﻿<?xml version="1.0" encoding="utf-8"?><gpx creator="Garmin Desktop App" version="1.1" xsi:schemaLocation="http://www.topografix.com/GPX/1/1 http://www.topografix.com/GPX/1/1/gpx.xsd http://www.garmin.com/xmlschemas/WaypointExtension/v1 http://www8.garmin.com/xmlschemas/WaypointExtensionv1.xsd http://www.garmin.com/xmlschemas/TrackPointExtension/v1 http://www.garmin.com/xmlschemas/TrackPointExtensionv1.xsd http://www.garmin.com/xmlschemas/GpxExtensions/v3 http://www8.garmin.com/xmlschemas/GpxExtensionsv3.xsd http://www.garmin.com/xmlschemas/ActivityExtension/v1 http://www8.garmin.com/xmlschemas/ActivityExtensionv1.xsd http://www.garmin.com/xmlschemas/AdventuresExtensions/v1 http://www8.garmin.com/xmlschemas/AdventuresExtensionv1.xsd http://www.garmin.com/xmlschemas/PressureExtension/v1 http://www.garmin.com/xmlschemas/PressureExtensionv1.xsd http://www.garmin.com/xmlschemas/TripExtensions/v1 http://www.garmin.com/xmlschemas/TripExtensionsv1.xsd http://www.garmin.com/xmlschemas/TripMetaDataExtensions/v1 http://www.garmin.com/xmlschemas/TripMetaDataExtensionsv1.xsd http://www.garmin.com/xmlschemas/ViaPointTransportationModeExtensions/v1 http://www.garmin.com/xmlschemas/ViaPointTransportationModeExtensionsv1.xsd http://www.garmin.com/xmlschemas/CreationTimeExtensions/v1 http://www.garmin.com/xmlschemas/CreationTimeExtensionsv1.xsd" xmlns="http://www.topografix.com/GPX/1/1" xmlns:xsi="http://www.w3.org/2001/XMLSchema-instance" xmlns:wptx1="http://www.garmin.com/xmlschemas/WaypointExtension/v1" xmlns:gpxtrx="http://www.garmin.com/xmlschemas/GpxExtensions/v3" xmlns:gpxtpx="http://www.garmin.com/xmlschemas/TrackPointExtension/v1" xmlns:gpxx="http://www.garmin.com/xmlschemas/GpxExtensions/v3" xmlns:trp="http://www.garmin.com/xmlschemas/TripExtensions/v1" xmlns:adv="http://www.garmin.com/xmlschemas/AdventuresExtensions/v1" xmlns:prs="http://www.garmin.com/xmlschemas/PressureExtension/v1" xmlns:tmd="http://www.garmin.com/xmlschemas/TripMetaDataExtensions/v1" xmlns:vptm="http://www.garmin.com/xmlschemas/ViaPointTransportationModeExtensions/v1" xmlns:ctx="http://www.garmin.com/xmlschemas/CreationTimeExtension/v1">

  <metadata>
    <link href="http://www.garmin.com">
      <text>Garmin International</text>
    </link>
    <time>2014-03-10T07:19:45Z</time>
    <bounds maxlat="46.889990754425526" maxlon="12.202969836071134" minlat="46.88026431016624" minlon="12.152207102626562" />
  </metadata>

  <trk>
    <name>passo staller2014-03-07</name>
    <extensions>
      <gpxx:TrackExtension>
        <gpxx:DisplayColor>Yellow</gpxx:DisplayColor>
      </gpxx:TrackExtension>
    </extensions>
    <trkseg>
      <trkpt lat="46.884011775255203" lon="12.157254097983241">
        <ele>1650.72</ele>
        <time>2014-03-07T09:08:38Z</time>
      </trkpt>
      <trkpt lat="46.884003393352032" lon="12.15722031891346">
        <ele>1651.2</ele>
        <time>2014-03-07T09:08:57Z</time>
      </trkpt>
      <trkpt lat="46.883993921801448" lon="12.157215876504779">
        <ele>1650.72</ele>
        <time>2014-03-07T09:09:09Z</time>
      </trkpt>
      <trkpt lat="46.883998867124319" lon="12.157207578420639">
        <ele>1651.2</ele>
        <time>2014-03-07T09:09:27Z</time>
      </trkpt>
      <trkpt lat="46.883993586525321" lon="12.157212188467383">
        <ele>1650.72</ele>
        <time>2014-03-07T09:09:31Z</time>
      </trkpt>
      <trkpt lat="46.883958633989096" lon="12.157250996679068">
        <ele>1651.2</ele>
        <time>2014-03-07T09:09:37Z</time>
      </trkpt>
      <trkpt lat="46.883921250700951" lon="12.157339761033654">
        <ele>1651.6800000000001</ele>
        <time>2014-03-07T09:09:44Z</time>
      </trkpt>
      <trkpt lat="46.883836174383759" lon="12.157575208693743">
        <ele>1651.2</ele>
        <time>2014-03-07T09:10:01Z</time>
      </trkpt>
      <trkpt lat="46.883793091401458" lon="12.157853236421943">
        <ele>1651.2</ele>
        <time>2014-03-07T09:10:18Z</time>
      </trkpt>
      <trkpt lat="46.883873557671905" lon="12.158096646890044">
        <ele>1651.6800000000001</ele>
        <time>2014-03-07T09:10:33Z</time>
      </trkpt>
      <trkpt lat="46.883895602077246" lon="12.158286245539784">
        <ele>1651.6800000000001</ele>
        <time>2014-03-07T09:10:45Z</time>
      </trkpt>
      <trkpt lat="46.883898954838514" lon="12.158378530293703">
        <ele>1651.6800000000001</ele>
        <time>2014-03-07T09:10:51Z</time>
      </trkpt>
      <trkpt lat="46.883879844099283" lon="12.158647924661636">
        <ele>1652.1600000000001</ele>
        <time>2014-03-07T09:11:07Z</time>
      </trkpt>
      <trkpt lat="46.883864924311638" lon="12.158797038719058">
        <ele>1652.1600000000001</ele>
        <time>2014-03-07T09:11:16Z</time>
      </trkpt>
      <trkpt lat="46.883835671469569" lon="12.15897205285728">
        <ele>1652.1600000000001</ele>
        <time>2014-03-07T09:11:27Z</time>
      </trkpt>
      <trkpt lat="46.883792253211141" lon="12.15919291600585">
        <ele>1652.1600000000001</ele>
        <time>2014-03-07T09:11:40Z</time>
      </trkpt>
      <trkpt lat="46.883775070309639" lon="12.159464070573449">
        <ele>1652.1600000000001</ele>
        <time>2014-03-07T09:11:57Z</time>
      </trkpt>
      <trkpt lat="46.883725114166737" lon="12.159718293696642">
        <ele>1652.1600000000001</ele>
        <time>2014-03-07T09:12:13Z</time>
      </trkpt>
      <trkpt lat="46.883642468601465" lon="12.159926667809486">
        <ele>1652.6400000000001</ele>
        <time>2014-03-07T09:12:28Z</time>
      </trkpt>
      <trkpt lat="46.883603744208813" lon="12.160111991688609">
        <ele>1652.1600000000001</ele>
        <time>2014-03-07T09:12:39Z</time>
      </trkpt>
      <trkpt lat="46.88360114581883" lon="12.160375854000449">
        <ele>1653.1199999999999</ele>
        <time>2014-03-07T09:12:55Z</time>
      </trkpt>
      <trkpt lat="46.883597122505307" lon="12.16042379848659">
        <ele>1653.1199999999999</ele>
        <time>2014-03-07T09:12:58Z</time>
      </trkpt>
      <trkpt lat="46.883582454174757" lon="12.160619348287582">
        <ele>1653.5999999999999</ele>
        <time>2014-03-07T09:13:12Z</time>
      </trkpt>
      <trkpt lat="46.883564935997128" lon="12.160757901147008">
        <ele>1653.5999999999999</ele>
        <time>2014-03-07T09:13:21Z</time>
      </trkpt>
      <trkpt lat="46.883541885763407" lon="12.160980105400085">
        <ele>1653.1199999999999</ele>
        <time>2014-03-07T09:13:34Z</time>
      </trkpt>
      <trkpt lat="46.88353518024087" lon="12.161138858646154">
        <ele>1653.5999999999999</ele>
        <time>2014-03-07T09:13:44Z</time>
      </trkpt>
      <trkpt lat="46.88353911973536" lon="12.161215972155333">
        <ele>1653.5999999999999</ele>
        <time>2014-03-07T09:13:49Z</time>
      </trkpt>
      <trkpt lat="46.88353618606925" lon="12.161319153383374">
        <ele>1653.5999999999999</ele>
        <time>2014-03-07T09:14:00Z</time>
      </trkpt>
      <trkpt lat="46.883502909913659" lon="12.161511685699224">
        <ele>1654.0899999999999</ele>
        <time>2014-03-07T09:14:12Z</time>
      </trkpt>
      <trkpt lat="46.88348782248795" lon="12.161593241617084">
        <ele>1654.0899999999999</ele>
        <time>2014-03-07T09:14:17Z</time>
      </trkpt>
      <trkpt lat="46.883542807772756" lon="12.161847380921245">
        <ele>1654.5699999999999</ele>
        <time>2014-03-07T09:14:33Z</time>
      </trkpt>
      <trkpt lat="46.883545489981771" lon="12.161864480003715">
        <ele>1654.5699999999999</ele>
        <time>2014-03-07T09:14:34Z</time>
      </trkpt>
      <trkpt lat="46.883508525788784" lon="12.162165474146605">
        <ele>1654.0899999999999</ele>
        <time>2014-03-07T09:14:52Z</time>
      </trkpt>
      <trkpt lat="46.883470052853227" lon="12.162344176322222">
        <ele>1654.0899999999999</ele>
        <time>2014-03-07T09:15:03Z</time>
      </trkpt>
      <trkpt lat="46.883409954607487" lon="12.162534110248089">
        <ele>1654.0899999999999</ele>
        <time>2014-03-07T09:15:15Z</time>
      </trkpt>
      <trkpt lat="46.883394112810493" lon="12.162641985341907">
        <ele>1654.0899999999999</ele>
        <time>2014-03-07T09:15:21Z</time>
      </trkpt>
      <trkpt lat="46.883364943787456" lon="12.162731755524874">
        <ele>1654.0899999999999</ele>
        <time>2014-03-07T09:15:27Z</time>
      </trkpt>
      <trkpt lat="46.883280957117677" lon="12.1627804543823">
        <ele>1654.5699999999999</ele>
        <time>2014-03-07T09:15:36Z</time>
      </trkpt>
      <trkpt lat="46.883173920214176" lon="12.162967035546899">
        <ele>1654.0899999999999</ele>
        <time>2014-03-07T09:15:50Z</time>
      </trkpt>
      <trkpt lat="46.883226223289967" lon="12.162963934242725">
        <ele>1654.0899999999999</ele>
        <time>2014-03-07T09:16:01Z</time>
      </trkpt>
      <trkpt lat="46.883163442835212" lon="12.163079269230366">
        <ele>1654.5699999999999</ele>
        <time>2014-03-07T09:16:22Z</time>
      </trkpt>
      <trkpt lat="46.883047940209508" lon="12.163249840959907">
        <ele>1655.05</ele>
        <time>2014-03-07T09:16:37Z</time>
      </trkpt>
      <trkpt lat="46.883042743429542" lon="12.163280518725514">
        <ele>1655.05</ele>
        <time>2014-03-07T09:16:50Z</time>
      </trkpt>
      <trkpt lat="46.883041653782129" lon="12.163288984447718">
        <ele>1655.05</ele>
        <time>2014-03-07T09:17:08Z</time>
      </trkpt>
      <trkpt lat="46.883034696802497" lon="12.163342544808984">
        <ele>1654.5699999999999</ele>
        <time>2014-03-07T09:17:13Z</time>
      </trkpt>
      <trkpt lat="46.883010054007173" lon="12.163414377719164">
        <ele>1655.05</ele>
        <time>2014-03-07T09:17:28Z</time>
      </trkpt>
      <trkpt lat="46.883007707074285" lon="12.16341563500464">
        <ele>1655.05</ele>
        <time>2014-03-07T09:17:46Z</time>
      </trkpt>
      <trkpt lat="46.882897568866611" lon="12.163478834554553">
        <ele>1655.53</ele>
        <time>2014-03-07T09:18:05Z</time>
      </trkpt>
      <trkpt lat="46.882829423993826" lon="12.163629457354546">
        <ele>1655.53</ele>
        <time>2014-03-07T09:18:20Z</time>
      </trkpt>
      <trkpt lat="46.882822467014194" lon="12.163640102371573">
        <ele>1656.01</ele>
        <time>2014-03-07T09:18:22Z</time>
      </trkpt>
      <trkpt lat="46.882770834490657" lon="12.163774883374572">
        <ele>1657.45</ele>
        <time>2014-03-07T09:18:33Z</time>
      </trkpt>
      <trkpt lat="46.882692463696003" lon="12.163906982168555">
        <ele>1656.49</ele>
        <time>2014-03-07T09:18:46Z</time>
      </trkpt>
      <trkpt lat="46.882669748738408" lon="12.163917208090425">
        <ele>1656.97</ele>
        <time>2014-03-07T09:18:49Z</time>
      </trkpt>
      <trkpt lat="46.882654074579477" lon="12.163954172283411">
        <ele>1657.45</ele>
        <time>2014-03-07T09:19:03Z</time>
      </trkpt>
      <trkpt lat="46.882650554180145" lon="12.164009576663375">
        <ele>1656.97</ele>
        <time>2014-03-07T09:19:16Z</time>
      </trkpt>
      <trkpt lat="46.882628928869963" lon="12.16407336294651">
        <ele>1656.97</ele>
        <time>2014-03-07T09:19:31Z</time>
      </trkpt>
      <trkpt lat="46.882566316053271" lon="12.16415835544467">
        <ele>1657.45</ele>
        <time>2014-03-07T09:19:39Z</time>
      </trkpt>
      <trkpt lat="46.882447209209204" lon="12.164347786456347">
        <ele>1657.45</ele>
        <time>2014-03-07T09:19:55Z</time>
      </trkpt>
      <trkpt lat="46.882414435967803" lon="12.164416685700417">
        <ele>1657.45</ele>
        <time>2014-03-07T09:20:01Z</time>
      </trkpt>
      <trkpt lat="46.882291473448277" lon="12.164518693462014">
        <ele>1658.4100000000001</ele>
        <time>2014-03-07T09:20:15Z</time>
      </trkpt>
      <trkpt lat="46.882229782640934" lon="12.164468066766858">
        <ele>1658.8900000000001</ele>
        <time>2014-03-07T09:20:28Z</time>
      </trkpt>
      <trkpt lat="46.882271273061633" lon="12.164508132264018">
        <ele>1658.4100000000001</ele>
        <time>2014-03-07T09:20:43Z</time>
      </trkpt>
      <trkpt lat="46.882249312475324" lon="12.164571415632963">
        <ele>1657.9300000000001</ele>
        <time>2014-03-07T09:20:48Z</time>
      </trkpt>
      <trkpt lat="46.882177144289017" lon="12.16475154273212">
        <ele>1658.4100000000001</ele>
        <time>2014-03-07T09:21:03Z</time>
      </trkpt>
      <trkpt lat="46.882103383541107" lon="12.16490987688303">
        <ele>1657.9300000000001</ele>
        <time>2014-03-07T09:21:18Z</time>
      </trkpt>
      <trkpt lat="46.882027862593532" lon="12.165009286254644">
        <ele>1658.4100000000001</ele>
        <time>2014-03-07T09:21:38Z</time>
      </trkpt>
      <trkpt lat="46.882023504003882" lon="12.165032001212239">
        <ele>1658.4100000000001</ele>
        <time>2014-03-07T09:21:47Z</time>
      </trkpt>
      <trkpt lat="46.881935242563486" lon="12.165221180766821">
        <ele>1658.8900000000001</ele>
        <time>2014-03-07T09:22:01Z</time>
      </trkpt>
      <trkpt lat="46.881853602826595" lon="12.165390998125076">
        <ele>1658.8900000000001</ele>
        <time>2014-03-07T09:22:15Z</time>
      </trkpt>
      <trkpt lat="46.881847148761153" lon="12.165401391685009">
        <ele>1658.8900000000001</ele>
        <time>2014-03-07T09:22:16Z</time>
      </trkpt>
      <trkpt lat="46.881830804049969" lon="12.165424358099699">
        <ele>1658.8900000000001</ele>
        <time>2014-03-07T09:22:18Z</time>
      </trkpt>
      <trkpt lat="46.881730137392879" lon="12.165578417479992">
        <ele>1659.3699999999999</ele>
        <time>2014-03-07T09:22:31Z</time>
      </trkpt>
      <trkpt lat="46.881689401343465" lon="12.165682604536414">
        <ele>1659.3699999999999</ele>
        <time>2014-03-07T09:22:39Z</time>
      </trkpt>
      <trkpt lat="46.881649671122432" lon="12.165842866525054">
        <ele>1658.8900000000001</ele>
        <time>2014-03-07T09:22:50Z</time>
      </trkpt>
      <trkpt lat="46.881639193743467" lon="12.166031626984477">
        <ele>1658.8900000000001</ele>
        <time>2014-03-07T09:23:01Z</time>
      </trkpt>
      <trkpt lat="46.881633242592216" lon="12.166150733828545">
        <ele>1657.9300000000001</ele>
        <time>2014-03-07T09:23:09Z</time>
      </trkpt>
      <trkpt lat="46.881639445200562" lon="12.166284173727036">
        <ele>1657.9300000000001</ele>
        <time>2014-03-07T09:23:17Z</time>
      </trkpt>
      <trkpt lat="46.881667440757155" lon="12.16640948317945">
        <ele>1656.97</ele>
        <time>2014-03-07T09:23:26Z</time>
      </trkpt>
      <trkpt lat="46.88163592480123" lon="12.166560189798474">
        <ele>1657.45</ele>
        <time>2014-03-07T09:23:38Z</time>
      </trkpt>
      <trkpt lat="46.881615305319428" lon="12.166557088494301">
        <ele>1657.45</ele>
        <time>2014-03-07T09:23:40Z</time>
      </trkpt>
      <trkpt lat="46.88149225898087" lon="12.166535798460245">
        <ele>1658.8900000000001</ele>
        <time>2014-03-07T09:23:53Z</time>
      </trkpt>
      <trkpt lat="46.881516566500068" lon="12.166542084887624">
        <ele>1658.8900000000001</ele>
        <time>2014-03-07T09:24:04Z</time>
      </trkpt>
      <trkpt lat="46.881546657532454" lon="12.166614085435867">
        <ele>1658.8900000000001</ele>
        <time>2014-03-07T09:24:09Z</time>
      </trkpt>
      <trkpt lat="46.881622765213251" lon="12.166705699637532">
        <ele>1661.78</ele>
        <time>2014-03-07T09:24:22Z</time>
      </trkpt>
      <trkpt lat="46.88169308938086" lon="12.166721457615495">
        <ele>1663.22</ele>
        <time>2014-03-07T09:24:35Z</time>
      </trkpt>
      <trkpt lat="46.881725275889039" lon="12.166804606094956">
        <ele>1664.1800000000001</ele>
        <time>2014-03-07T09:24:48Z</time>
      </trkpt>
      <trkpt lat="46.88174095004797" lon="12.166827153414488">
        <ele>1663.7</ele>
        <time>2014-03-07T09:25:14Z</time>
      </trkpt>
      <trkpt lat="46.881711613386869" lon="12.16683310456574">
        <ele>1663.22</ele>
        <time>2014-03-07T09:25:30Z</time>
      </trkpt>
      <trkpt lat="46.881716307252645" lon="12.166847186163068">
        <ele>1663.7</ele>
        <time>2014-03-07T09:26:02Z</time>
      </trkpt>
      <trkpt lat="46.881697364151478" lon="12.16679354198277">
        <ele>1664.1800000000001</ele>
        <time>2014-03-07T09:26:23Z</time>
      </trkpt>
      <trkpt lat="46.881709517911077" lon="12.166793290525675">
        <ele>1664.1800000000001</ele>
        <time>2014-03-07T09:26:37Z</time>
      </trkpt>
      <trkpt lat="46.881707673892379" lon="12.166814245283604">
        <ele>1664.6600000000001</ele>
        <time>2014-03-07T09:26:52Z</time>
      </trkpt>
      <trkpt lat="46.881767269223928" lon="12.16688297688961">
        <ele>1665.6199999999999</ele>
        <time>2014-03-07T09:27:06Z</time>
      </trkpt>
      <trkpt lat="46.881824182346463" lon="12.166955312713981">
        <ele>1667.54</ele>
        <time>2014-03-07T09:27:18Z</time>
      </trkpt>
      <trkpt lat="46.881836839020252" lon="12.166982721537352">
        <ele>1668.02</ele>
        <time>2014-03-07T09:27:23Z</time>
      </trkpt>
      <trkpt lat="46.881847064942122" lon="12.166999988257885">
        <ele>1668.02</ele>
        <time>2014-03-07T09:27:25Z</time>
      </trkpt>
      <trkpt lat="46.881880844011903" lon="12.167049776762724">
        <ele>1668.99</ele>
        <time>2014-03-07T09:27:30Z</time>
      </trkpt>
      <trkpt lat="46.881918227300048" lon="12.167129153385758">
        <ele>1670.4300000000001</ele>
        <time>2014-03-07T09:27:39Z</time>
      </trkpt>
      <trkpt lat="46.882010512053967" lon="12.16722990386188">
        <ele>1671.8699999999999</ele>
        <time>2014-03-07T09:27:51Z</time>
      </trkpt>
      <trkpt lat="46.882081087678671" lon="12.167379939928651">
        <ele>1672.8299999999999</ele>
        <time>2014-03-07T09:28:03Z</time>
      </trkpt>
      <trkpt lat="46.882177647203207" lon="12.167484126985073">
        <ele>1674.27</ele>
        <time>2014-03-07T09:28:15Z</time>
      </trkpt>
      <trkpt lat="46.882291389629245" lon="12.167551936581731">
        <ele>1674.75</ele>
        <time>2014-03-07T09:28:31Z</time>
      </trkpt>
      <trkpt lat="46.882399097084999" lon="12.16766182333231">
        <ele>1676.2</ele>
        <time>2014-03-07T09:28:44Z</time>
      </trkpt>
      <trkpt lat="46.88241426832974" lon="12.167754611000419">
        <ele>1676.2</ele>
        <time>2014-03-07T09:28:51Z</time>
      </trkpt>
      <trkpt lat="46.88249004073441" lon="12.167879333719611">
        <ele>1676.6800000000001</ele>
        <time>2014-03-07T09:29:05Z</time>
      </trkpt>
      <trkpt lat="46.882502026855946" lon="12.16791395097971">
        <ele>1677.1600000000001</ele>
        <time>2014-03-07T09:29:21Z</time>
      </trkpt>
      <trkpt lat="46.882553743198514" lon="12.167994165793061">
        <ele>1678.1199999999999</ele>
        <time>2014-03-07T09:29:34Z</time>
      </trkpt>
      <trkpt lat="46.882568160071969" lon="12.168005146086216">
        <ele>1678.1199999999999</ele>
        <time>2014-03-07T09:29:36Z</time>
      </trkpt>
      <trkpt lat="46.882652146741748" lon="12.168053761124611">
        <ele>1680.04</ele>
        <time>2014-03-07T09:29:48Z</time>
      </trkpt>
      <trkpt lat="46.882744766771793" lon="12.168060215190053">
        <ele>1680.52</ele>
        <time>2014-03-07T09:30:01Z</time>
      </trkpt>
      <trkpt lat="46.882830262184143" lon="12.168138921260834">
        <ele>1681.96</ele>
        <time>2014-03-07T09:30:15Z</time>
      </trkpt>
      <trkpt lat="46.882883151993155" lon="12.16828091070056">
        <ele>1683.4100000000001</ele>
        <time>2014-03-07T09:30:29Z</time>
      </trkpt>
      <trkpt lat="46.882919361814857" lon="12.168359868228436">
        <ele>1684.8499999999999</ele>
        <time>2014-03-07T09:30:41Z</time>
      </trkpt>
      <trkpt lat="46.882939143106341" lon="12.168371435254812">
        <ele>1684.8499999999999</ele>
        <time>2014-03-07T09:30:43Z</time>
      </trkpt>
      <trkpt lat="46.882993541657925" lon="12.168469168245792">
        <ele>1686.29</ele>
        <time>2014-03-07T09:30:55Z</time>
      </trkpt>
      <trkpt lat="46.883011730387807" lon="12.168523734435439">
        <ele>1687.25</ele>
        <time>2014-03-07T09:31:02Z</time>
      </trkpt>
      <trkpt lat="46.883070403710008" lon="12.168702939525247">
        <ele>1687.25</ele>
        <time>2014-03-07T09:31:17Z</time>
      </trkpt>
      <trkpt lat="46.88308373093605" lon="12.168726325035095">
        <ele>1686.77</ele>
        <time>2014-03-07T09:31:19Z</time>
      </trkpt>
      <trkpt lat="46.883156737312675" lon="12.168860519304872">
        <ele>1688.21</ele>
        <time>2014-03-07T09:31:33Z</time>
      </trkpt>
      <trkpt lat="46.883235108107328" lon="12.168979961425066">
        <ele>1689.6500000000001</ele>
        <time>2014-03-07T09:31:49Z</time>
      </trkpt>
      <trkpt lat="46.883321022614837" lon="12.169030085206032">
        <ele>1691.0999999999999</ele>
        <time>2014-03-07T09:32:04Z</time>
      </trkpt>
      <trkpt lat="46.88334122300148" lon="12.1690559014678">
        <ele>1692.0599999999999</ele>
        <time>2014-03-07T09:32:17Z</time>
      </trkpt>
      <trkpt lat="46.883407775312662" lon="12.169062271714211">
        <ele>1692.0599999999999</ele>
        <time>2014-03-07T09:32:42Z</time>
      </trkpt>
      <trkpt lat="46.883554039523005" lon="12.169183557853103">
        <ele>1690.6199999999999</ele>
        <time>2014-03-07T09:32:57Z</time>
      </trkpt>
      <trkpt lat="46.88358748331666" lon="12.169215409085155">
        <ele>1690.1400000000001</ele>
        <time>2014-03-07T09:33:01Z</time>
      </trkpt>
      <trkpt lat="46.883616736158729" lon="12.169261341914535">
        <ele>1689.6500000000001</ele>
        <time>2014-03-07T09:33:05Z</time>
      </trkpt>
      <trkpt lat="46.883658226579428" lon="12.169344406574965">
        <ele>1689.6500000000001</ele>
        <time>2014-03-07T09:33:12Z</time>
      </trkpt>
      <trkpt lat="46.883728634566069" lon="12.169558815658092">
        <ele>1690.6199999999999</ele>
        <time>2014-03-07T09:33:29Z</time>
      </trkpt>
      <trkpt lat="46.883795438334346" lon="12.169635761529207">
        <ele>1689.6500000000001</ele>
        <time>2014-03-07T09:33:41Z</time>
      </trkpt>
      <trkpt lat="46.883809100836515" lon="12.169619249179959">
        <ele>1689.6500000000001</ele>
        <time>2014-03-07T09:33:43Z</time>
      </trkpt>
      <trkpt lat="46.883844556286931" lon="12.169574908912182">
        <ele>1689.6500000000001</ele>
        <time>2014-03-07T09:33:58Z</time>
      </trkpt>
      <trkpt lat="46.883847154676914" lon="12.169580357149243">
        <ele>1689.6500000000001</ele>
        <time>2014-03-07T09:34:00Z</time>
      </trkpt>
      <trkpt lat="46.883904067799449" lon="12.169630313292146">
        <ele>1690.1400000000001</ele>
        <time>2014-03-07T09:34:05Z</time>
      </trkpt>
      <trkpt lat="46.883960980921984" lon="12.169698206707835">
        <ele>1690.6199999999999</ele>
        <time>2014-03-07T09:34:11Z</time>
      </trkpt>
      <trkpt lat="46.884021498262882" lon="12.169767860323191">
        <ele>1690.1400000000001</ele>
        <time>2014-03-07T09:34:17Z</time>
      </trkpt>
      <trkpt lat="46.884085033088923" lon="12.169948406517506">
        <ele>1689.1700000000001</ele>
        <time>2014-03-07T09:34:31Z</time>
      </trkpt>
      <trkpt lat="46.884163403883576" lon="12.170148817822337">
        <ele>1687.25</ele>
        <time>2014-03-07T09:34:45Z</time>
      </trkpt>
      <trkpt lat="46.884194500744343" lon="12.170173041522503">
        <ele>1687.73</ele>
        <time>2014-03-07T09:34:49Z</time>
      </trkpt>
      <trkpt lat="46.884324168786407" lon="12.170235989615321">
        <ele>1687.73</ele>
        <time>2014-03-07T09:35:03Z</time>
      </trkpt>
      <trkpt lat="46.884366748854518" lon="12.170278653502464">
        <ele>1687.25</ele>
        <time>2014-03-07T09:35:07Z</time>
      </trkpt>
      <trkpt lat="46.884492309764028" lon="12.170382002368569">
        <ele>1686.77</ele>
        <time>2014-03-07T09:35:21Z</time>
      </trkpt>
      <trkpt lat="46.884563639760017" lon="12.170445621013641">
        <ele>1685.8099999999999</ele>
        <time>2014-03-07T09:35:29Z</time>
      </trkpt>
      <trkpt lat="46.884617786854506" lon="12.17046657577157">
        <ele>1685.3299999999999</ele>
        <time>2014-03-07T09:35:35Z</time>
      </trkpt>
      <trkpt lat="46.88479539938271" lon="12.170650893822312">
        <ele>1683.8900000000001</ele>
        <time>2014-03-07T09:35:51Z</time>
      </trkpt>
      <trkpt lat="46.884808223694563" lon="12.170662963762879">
        <ele>1683.8900000000001</ele>
        <time>2014-03-07T09:35:53Z</time>
      </trkpt>
      <trkpt lat="46.884894138202071" lon="12.170776873826981">
        <ele>1684.8499999999999</ele>
        <time>2014-03-07T09:36:05Z</time>
      </trkpt>
      <trkpt lat="46.884960355237126" lon="12.170836636796594">
        <ele>1684.8499999999999</ele>
        <time>2014-03-07T09:36:13Z</time>
      </trkpt>
      <trkpt lat="46.885070074349642" lon="12.170932022854686">
        <ele>1683.8900000000001</ele>
        <time>2014-03-07T09:36:25Z</time>
      </trkpt>
      <trkpt lat="46.885136375203729" lon="12.170992540195584">
        <ele>1684.3699999999999</ele>
        <time>2014-03-07T09:36:35Z</time>
      </trkpt>
      <trkpt lat="46.88516135327518" lon="12.170992288738489">
        <ele>1683.8900000000001</ele>
        <time>2014-03-07T09:36:36Z</time>
      </trkpt>
      <trkpt lat="46.885183397680521" lon="12.171002430841327">
        <ele>1683.8900000000001</ele>
        <time>2014-03-07T09:36:37Z</time>
      </trkpt>
      <trkpt lat="46.885296553373337" lon="12.171135284006596">
        <ele>1684.3699999999999</ele>
        <time>2014-03-07T09:36:50Z</time>
      </trkpt>
      <trkpt lat="46.885382551699877" lon="12.171268220990896">
        <ele>1684.8499999999999</ele>
        <time>2014-03-07T09:37:01Z</time>
      </trkpt>
      <trkpt lat="46.885459749028087" lon="12.171351118013263">
        <ele>1684.3699999999999</ele>
        <time>2014-03-07T09:37:12Z</time>
      </trkpt>
      <trkpt lat="46.885467376559973" lon="12.171366708353162">
        <ele>1684.3699999999999</ele>
        <time>2014-03-07T09:37:14Z</time>
      </trkpt>
      <trkpt lat="46.885504592210054" lon="12.171425130218267">
        <ele>1684.3699999999999</ele>
        <time>2014-03-07T09:37:20Z</time>
      </trkpt>
      <trkpt lat="46.88552487641573" lon="12.171443067491055">
        <ele>1684.3699999999999</ele>
        <time>2014-03-07T09:37:22Z</time>
      </trkpt>
      <trkpt lat="46.885533761233091" lon="12.171452287584543">
        <ele>1684.8499999999999</ele>
        <time>2014-03-07T09:37:23Z</time>
      </trkpt>
      <trkpt lat="46.885625962167978" lon="12.171586649492383">
        <ele>1684.8499999999999</ele>
        <time>2014-03-07T09:37:35Z</time>
      </trkpt>
      <trkpt lat="46.885637529194355" lon="12.171601234003901">
        <ele>1684.3699999999999</ele>
        <time>2014-03-07T09:37:36Z</time>
      </trkpt>
      <trkpt lat="46.885667033493519" lon="12.171706175431609">
        <ele>1684.8499999999999</ele>
        <time>2014-03-07T09:37:49Z</time>
      </trkpt>
      <trkpt lat="46.885751187801361" lon="12.171869622543454">
        <ele>1683.4100000000001</ele>
        <time>2014-03-07T09:38:03Z</time>
      </trkpt>
      <trkpt lat="46.885792426764965" lon="12.172070955857635">
        <ele>1683.4100000000001</ele>
        <time>2014-03-07T09:38:16Z</time>
      </trkpt>
      <trkpt lat="46.88579167239368" lon="12.172182854264975">
        <ele>1683.4100000000001</ele>
        <time>2014-03-07T09:38:26Z</time>
      </trkpt>
      <trkpt lat="46.88580390997231" lon="12.17219140380621">
        <ele>1683.4100000000001</ele>
        <time>2014-03-07T09:38:27Z</time>
      </trkpt>
      <trkpt lat="46.885816818103194" lon="12.172199869528413">
        <ele>1682.9300000000001</ele>
        <time>2014-03-07T09:38:28Z</time>
      </trkpt>
      <trkpt lat="46.885875323787332" lon="12.172335153445601">
        <ele>1681.96</ele>
        <time>2014-03-07T09:38:38Z</time>
      </trkpt>
      <trkpt lat="46.88588454388082" lon="12.172349402680993">
        <ele>1681.48</ele>
        <time>2014-03-07T09:38:39Z</time>
      </trkpt>
      <trkpt lat="46.885894350707531" lon="12.172362813726068">
        <ele>1681.48</ele>
        <time>2014-03-07T09:38:40Z</time>
      </trkpt>
      <trkpt lat="46.885905079543591" lon="12.172374464571476">
        <ele>1681.48</ele>
        <time>2014-03-07T09:38:41Z</time>
      </trkpt>
      <trkpt lat="46.885912455618382" lon="12.172387288883328">
        <ele>1681.48</ele>
        <time>2014-03-07T09:38:42Z</time>
      </trkpt>
      <trkpt lat="46.885951682925224" lon="12.172444369643927">
        <ele>1681.48</ele>
        <time>2014-03-07T09:38:50Z</time>
      </trkpt>
      <trkpt lat="46.885963333770633" lon="12.17244990170002">
        <ele>1681.96</ele>
        <time>2014-03-07T09:38:51Z</time>
      </trkpt>
      <trkpt lat="46.886051343753934" lon="12.172573870047927">
        <ele>1683.4100000000001</ele>
        <time>2014-03-07T09:39:05Z</time>
      </trkpt>
      <trkpt lat="46.886070957407355" lon="12.172755757346749">
        <ele>1683.4100000000001</ele>
        <time>2014-03-07T09:39:19Z</time>
      </trkpt>
      <trkpt lat="46.886081099510193" lon="12.172764558345079">
        <ele>1683.4100000000001</ele>
        <time>2014-03-07T09:39:20Z</time>
      </trkpt>
      <trkpt lat="46.886090151965618" lon="12.172771850600839">
        <ele>1682.9300000000001</ele>
        <time>2014-03-07T09:39:21Z</time>
      </trkpt>
      <trkpt lat="46.886101551353931" lon="12.172780651599169">
        <ele>1683.4100000000001</ele>
        <time>2014-03-07T09:39:22Z</time>
      </trkpt>
      <trkpt lat="46.886156033724546" lon="12.172850556671619">
        <ele>1683.4100000000001</ele>
        <time>2014-03-07T09:39:32Z</time>
      </trkpt>
      <trkpt lat="46.886160392314196" lon="12.172861201688647">
        <ele>1683.4100000000001</ele>
        <time>2014-03-07T09:39:33Z</time>
      </trkpt>
      <trkpt lat="46.88614496961236" lon="12.173018613830209">
        <ele>1683.8900000000001</ele>
        <time>2014-03-07T09:39:42Z</time>
      </trkpt>
      <trkpt lat="46.886138180270791" lon="12.173035042360425">
        <ele>1683.8900000000001</ele>
        <time>2014-03-07T09:39:43Z</time>
      </trkpt>
      <trkpt lat="46.886134492233396" lon="12.173052141442895">
        <ele>1683.4100000000001</ele>
        <time>2014-03-07T09:39:44Z</time>
      </trkpt>
      <trkpt lat="46.886131642386317" lon="12.173069743439555">
        <ele>1683.4100000000001</ele>
        <time>2014-03-07T09:39:45Z</time>
      </trkpt>
      <trkpt lat="46.886138934642076" lon="12.173118442296982">
        <ele>1682.9300000000001</ele>
        <time>2014-03-07T09:39:48Z</time>
      </trkpt>
      <trkpt lat="46.886155530810356" lon="12.173203770071268">
        <ele>1683.4100000000001</ele>
        <time>2014-03-07T09:39:54Z</time>
      </trkpt>
      <trkpt lat="46.886140191927552" lon="12.173265963792801">
        <ele>1682.4400000000001</ele>
        <time>2014-03-07T09:40:05Z</time>
      </trkpt>
      <trkpt lat="46.886147568002343" lon="12.173268143087626">
        <ele>1682.4400000000001</ele>
        <time>2014-03-07T09:40:06Z</time>
      </trkpt>
      <trkpt lat="46.886155195534229" lon="12.173299072310328">
        <ele>1681.96</ele>
        <time>2014-03-07T09:40:08Z</time>
      </trkpt>
      <trkpt lat="46.886165840551257" lon="12.173320194706321">
        <ele>1681.48</ele>
        <time>2014-03-07T09:40:09Z</time>
      </trkpt>
      <trkpt lat="46.886189309880137" lon="12.173420274630189">
        <ele>1681</ele>
        <time>2014-03-07T09:40:16Z</time>
      </trkpt>
      <trkpt lat="46.886218395084143" lon="12.17342572286725">
        <ele>1680.04</ele>
        <time>2014-03-07T09:40:23Z</time>
      </trkpt>
      <trkpt lat="46.886228201910853" lon="12.173425890505314">
        <ele>1680.04</ele>
        <time>2014-03-07T09:40:24Z</time>
      </trkpt>
      <trkpt lat="46.886236248537898" lon="12.1734300814569">
        <ele>1680.04</ele>
        <time>2014-03-07T09:40:25Z</time>
      </trkpt>
      <trkpt lat="46.886326689273119" lon="12.173500657081604">
        <ele>1677.1600000000001</ele>
        <time>2014-03-07T09:40:37Z</time>
      </trkpt>
      <trkpt lat="46.886346219107509" lon="12.173522198572755">
        <ele>1677.6400000000001</ele>
        <time>2014-03-07T09:40:44Z</time>
      </trkpt>
      <trkpt lat="46.886355020105839" lon="12.173535274341702">
        <ele>1677.6400000000001</ele>
        <time>2014-03-07T09:40:45Z</time>
      </trkpt>
      <trkpt lat="46.886363066732883" lon="12.173551535233855">
        <ele>1677.1600000000001</ele>
        <time>2014-03-07T09:40:46Z</time>
      </trkpt>
      <trkpt lat="46.886370442807674" lon="12.173568047583103">
        <ele>1676.6800000000001</ele>
        <time>2014-03-07T09:40:47Z</time>
      </trkpt>
      <trkpt lat="46.886381255462766" lon="12.173585901036859">
        <ele>1676.2</ele>
        <time>2014-03-07T09:40:48Z</time>
      </trkpt>
      <trkpt lat="46.88640933483839" lon="12.173610543832183">
        <ele>1676.2</ele>
        <time>2014-03-07T09:40:51Z</time>
      </trkpt>
      <trkpt lat="46.886429786682129" lon="12.173631498590112">
        <ele>1675.72</ele>
        <time>2014-03-07T09:40:53Z</time>
      </trkpt>
      <trkpt lat="46.886441269889474" lon="12.173640551045537">
        <ele>1675.72</ele>
        <time>2014-03-07T09:40:54Z</time>
      </trkpt>
      <trkpt lat="46.886547803878784" lon="12.173703331500292">
        <ele>1672.8299999999999</ele>
        <time>2014-03-07T09:41:04Z</time>
      </trkpt>
      <trkpt lat="46.886620977893472" lon="12.173796119168401">
        <ele>1672.3499999999999</ele>
        <time>2014-03-07T09:41:11Z</time>
      </trkpt>
      <trkpt lat="46.886616284027696" lon="12.174072554334998">
        <ele>1670.4300000000001</ele>
        <time>2014-03-07T09:41:25Z</time>
      </trkpt>
      <trkpt lat="46.88667805865407" lon="12.174195265397429">
        <ele>1668.51</ele>
        <time>2014-03-07T09:41:34Z</time>
      </trkpt>
      <trkpt lat="46.886691218242049" lon="12.174360472708941">
        <ele>1666.0999999999999</ele>
        <time>2014-03-07T09:41:44Z</time>
      </trkpt>
      <trkpt lat="46.886702533811331" lon="12.174419229850173">
        <ele>1665.1400000000001</ele>
        <time>2014-03-07T09:41:48Z</time>
      </trkpt>
      <trkpt lat="46.886740671470761" lon="12.174502545967698">
        <ele>1663.22</ele>
        <time>2014-03-07T09:41:53Z</time>
      </trkpt>
      <trkpt lat="46.886790208518505" lon="12.174550909548998">
        <ele>1662.74</ele>
        <time>2014-03-07T09:41:58Z</time>
      </trkpt>
      <trkpt lat="46.886839075013995" lon="12.174591813236475">
        <ele>1662.26</ele>
        <time>2014-03-07T09:42:13Z</time>
      </trkpt>
      <trkpt lat="46.886815186589956" lon="12.174618635326624">
        <ele>1662.26</ele>
        <time>2014-03-07T09:42:27Z</time>
      </trkpt>
      <trkpt lat="46.886860867962241" lon="12.174570607021451">
        <ele>1662.74</ele>
        <time>2014-03-07T09:42:39Z</time>
      </trkpt>
      <trkpt lat="46.886978382244706" lon="12.174583934247494">
        <ele>1662.26</ele>
        <time>2014-03-07T09:42:54Z</time>
      </trkpt>
      <trkpt lat="46.887057172134519" lon="12.174597680568695">
        <ele>1663.22</ele>
        <time>2014-03-07T09:43:08Z</time>
      </trkpt>
      <trkpt lat="46.887098746374249" lon="12.17464629560709">
        <ele>1662.74</ele>
        <time>2014-03-07T09:43:26Z</time>
      </trkpt>
      <trkpt lat="46.887076031416655" lon="12.174671525135636">
        <ele>1662.74</ele>
        <time>2014-03-07T09:43:40Z</time>
      </trkpt>
      <trkpt lat="46.887053400278091" lon="12.174701280891895">
        <ele>1662.74</ele>
        <time>2014-03-07T09:43:49Z</time>
      </trkpt>
      <trkpt lat="46.887108637019992" lon="12.174787111580372">
        <ele>1662.74</ele>
        <time>2014-03-07T09:43:56Z</time>
      </trkpt>
      <trkpt lat="46.887132944539189" lon="12.174880988895893">
        <ele>1663.7</ele>
        <time>2014-03-07T09:44:03Z</time>
      </trkpt>
      <trkpt lat="46.887173680588603" lon="12.175093973055482">
        <ele>1664.6600000000001</ele>
        <time>2014-03-07T09:44:18Z</time>
      </trkpt>
      <trkpt lat="46.887158593162894" lon="12.175223138183355">
        <ele>1665.1400000000001</ele>
        <time>2014-03-07T09:44:29Z</time>
      </trkpt>
      <trkpt lat="46.887148283421993" lon="12.175273513421416">
        <ele>1665.1400000000001</ele>
        <time>2014-03-07T09:44:40Z</time>
      </trkpt>
      <trkpt lat="46.887146690860391" lon="12.175260605290532">
        <ele>1664.6600000000001</ele>
        <time>2014-03-07T09:44:42Z</time>
      </trkpt>
      <trkpt lat="46.887117186561227" lon="12.175163542851806">
        <ele>1665.1400000000001</ele>
        <time>2014-03-07T09:44:49Z</time>
      </trkpt>
      <trkpt lat="46.887111067771912" lon="12.175141833722591">
        <ele>1665.6199999999999</ele>
        <time>2014-03-07T09:44:51Z</time>
      </trkpt>
      <trkpt lat="46.88711098395288" lon="12.175094727426767">
        <ele>1664.6600000000001</ele>
        <time>2014-03-07T09:44:54Z</time>
      </trkpt>
      <trkpt lat="46.887141661718488" lon="12.175067737698555">
        <ele>1664.6600000000001</ele>
        <time>2014-03-07T09:44:56Z</time>
      </trkpt>
      <trkpt lat="46.887263283133507" lon="12.175223305821419">
        <ele>1665.6199999999999</ele>
        <time>2014-03-07T09:45:11Z</time>
      </trkpt>
      <trkpt lat="46.88730888068676" lon="12.17532254755497">
        <ele>1666.0999999999999</ele>
        <time>2014-03-07T09:45:20Z</time>
      </trkpt>
      <trkpt lat="46.887388005852699" lon="12.175442157313228">
        <ele>1667.54</ele>
        <time>2014-03-07T09:45:35Z</time>
      </trkpt>
      <trkpt lat="46.887425892055035" lon="12.175519522279501">
        <ele>1667.54</ele>
        <time>2014-03-07T09:45:43Z</time>
      </trkpt>
      <trkpt lat="46.887468136847019" lon="12.175547936931252">
        <ele>1667.54</ele>
        <time>2014-03-07T09:45:47Z</time>
      </trkpt>
      <trkpt lat="46.887575592845678" lon="12.175614573061466">
        <ele>1668.51</ele>
        <time>2014-03-07T09:45:59Z</time>
      </trkpt>
      <trkpt lat="46.887602331116796" lon="12.175681376829743">
        <ele>1668.99</ele>
        <time>2014-03-07T09:46:05Z</time>
      </trkpt>
      <trkpt lat="46.887672822922468" lon="12.175817750394344">
        <ele>1669.95</ele>
        <time>2014-03-07T09:46:18Z</time>
      </trkpt>
      <trkpt lat="46.887733088806272" lon="12.175908777862787">
        <ele>1670.9100000000001</ele>
        <time>2014-03-07T09:46:32Z</time>
      </trkpt>
      <trkpt lat="46.887716157361865" lon="12.17594507150352">
        <ele>1670.4300000000001</ele>
        <time>2014-03-07T09:46:45Z</time>
      </trkpt>
      <trkpt lat="46.887696627527475" lon="12.176013635471463">
        <ele>1670.9100000000001</ele>
        <time>2014-03-07T09:46:57Z</time>
      </trkpt>
      <trkpt lat="46.887686150148511" lon="12.175950603559613">
        <ele>1670.9100000000001</ele>
        <time>2014-03-07T09:47:17Z</time>
      </trkpt>
      <trkpt lat="46.887715151533484" lon="12.175952279940248">
        <ele>1670.9100000000001</ele>
        <time>2014-03-07T09:47:32Z</time>
      </trkpt>
      <trkpt lat="46.887707272544503" lon="12.175929984077811">
        <ele>1669.95</ele>
        <time>2014-03-07T09:47:50Z</time>
      </trkpt>
      <trkpt lat="46.887740381062031" lon="12.17592453584075">
        <ele>1670.9100000000001</ele>
        <time>2014-03-07T09:48:05Z</time>
      </trkpt>
      <trkpt lat="46.887733591720462" lon="12.175956889986992">
        <ele>1670.9100000000001</ele>
        <time>2014-03-07T09:48:20Z</time>
      </trkpt>
      <trkpt lat="46.887701824307442" lon="12.176078176125884">
        <ele>1671.3900000000001</ele>
        <time>2014-03-07T09:48:34Z</time>
      </trkpt>
      <trkpt lat="46.887694364413619" lon="12.176131485030055">
        <ele>1672.3499999999999</ele>
        <time>2014-03-07T09:48:38Z</time>
      </trkpt>
      <trkpt lat="46.88764943741262" lon="12.176367854699492">
        <ele>1672.8299999999999</ele>
        <time>2014-03-07T09:48:54Z</time>
      </trkpt>
      <trkpt lat="46.887618843466043" lon="12.176436418667436">
        <ele>1673.3099999999999</ele>
        <time>2014-03-07T09:48:59Z</time>
      </trkpt>
      <trkpt lat="46.887521613389254" lon="12.176538594067097">
        <ele>1674.27</ele>
        <time>2014-03-07T09:49:13Z</time>
      </trkpt>
      <trkpt lat="46.887508621439338" lon="12.176661053672433">
        <ele>1674.75</ele>
        <time>2014-03-07T09:49:27Z</time>
      </trkpt>
      <trkpt lat="46.887497557327151" lon="12.176742190495133">
        <ele>1675.72</ele>
        <time>2014-03-07T09:49:34Z</time>
      </trkpt>
      <trkpt lat="46.887495629489422" lon="12.176769180223346">
        <ele>1676.2</ele>
        <time>2014-03-07T09:49:36Z</time>
      </trkpt>
      <trkpt lat="46.887470902875066" lon="12.1769027877599">
        <ele>1677.6400000000001</ele>
        <time>2014-03-07T09:49:50Z</time>
      </trkpt>
      <trkpt lat="46.887473501265049" lon="12.177017452195287">
        <ele>1678.1199999999999</ele>
        <time>2014-03-07T09:50:05Z</time>
      </trkpt>
      <trkpt lat="46.887480122968554" lon="12.177074868232012">
        <ele>1678.1199999999999</ele>
        <time>2014-03-07T09:50:09Z</time>
      </trkpt>
      <trkpt lat="46.887485403567553" lon="12.177258264273405">
        <ele>1679.0799999999999</ele>
        <time>2014-03-07T09:50:24Z</time>
      </trkpt>
      <trkpt lat="46.887546675279737" lon="12.177394805476069">
        <ele>1680.04</ele>
        <time>2014-03-07T09:50:36Z</time>
      </trkpt>
      <trkpt lat="46.88757517375052" lon="12.177431853488088">
        <ele>1680.04</ele>
        <time>2014-03-07T09:50:39Z</time>
      </trkpt>
      <trkpt lat="46.8875952064991" lon="12.177570406347513">
        <ele>1681.48</ele>
        <time>2014-03-07T09:50:50Z</time>
      </trkpt>
      <trkpt lat="46.88762647099793" lon="12.177632851526141">
        <ele>1681.48</ele>
        <time>2014-03-07T09:50:56Z</time>
      </trkpt>
      <trkpt lat="46.887656645849347" lon="12.177840638905764">
        <ele>1682.9300000000001</ele>
        <time>2014-03-07T09:51:11Z</time>
      </trkpt>
      <trkpt lat="46.887730825692415" lon="12.177969301119447">
        <ele>1683.8900000000001</ele>
        <time>2014-03-07T09:51:26Z</time>
      </trkpt>
      <trkpt lat="46.887816321104765" lon="12.178119840100408">
        <ele>1685.3299999999999</ele>
        <time>2014-03-07T09:51:41Z</time>
      </trkpt>
      <trkpt lat="46.887841802090406" lon="12.17833248898387">
        <ele>1686.29</ele>
        <time>2014-03-07T09:51:57Z</time>
      </trkpt>
      <trkpt lat="46.887867534533143" lon="12.178476741537452">
        <ele>1687.73</ele>
        <time>2014-03-07T09:52:08Z</time>
      </trkpt>
      <trkpt lat="46.887863092124462" lon="12.178557375445962">
        <ele>1687.25</ele>
        <time>2014-03-07T09:52:14Z</time>
      </trkpt>
      <trkpt lat="46.887883711606264" lon="12.178723169490695">
        <ele>1689.1700000000001</ele>
        <time>2014-03-07T09:52:28Z</time>
      </trkpt>
      <trkpt lat="46.887895949184895" lon="12.178917545825243">
        <ele>1690.6199999999999</ele>
        <time>2014-03-07T09:52:43Z</time>
      </trkpt>
      <trkpt lat="46.887832330539823" lon="12.179084848612547">
        <ele>1691.5799999999999</ele>
        <time>2014-03-07T09:52:58Z</time>
      </trkpt>
      <trkpt lat="46.887832665815949" lon="12.179060708731413">
        <ele>1691.0999999999999</ele>
        <time>2014-03-07T09:53:10Z</time>
      </trkpt>
      <trkpt lat="46.887854961678386" lon="12.179113011807203">
        <ele>1691.0999999999999</ele>
        <time>2014-03-07T09:53:28Z</time>
      </trkpt>
      <trkpt lat="46.887921933084726" lon="12.179331192746758">
        <ele>1693.02</ele>
        <time>2014-03-07T09:53:44Z</time>
      </trkpt>
      <trkpt lat="46.887992760166526" lon="12.179496483877301">
        <ele>1694.46</ele>
        <time>2014-03-07T09:53:58Z</time>
      </trkpt>
      <trkpt lat="46.888020252808928" lon="12.179584410041571">
        <ele>1696.3800000000001</ele>
        <time>2014-03-07T09:54:05Z</time>
      </trkpt>
      <trkpt lat="46.888044979423285" lon="12.179670240730047">
        <ele>1696.3800000000001</ele>
        <time>2014-03-07T09:54:11Z</time>
      </trkpt>
      <trkpt lat="46.888082111254334" lon="12.179826060310006">
        <ele>1698.3099999999999</ele>
        <time>2014-03-07T09:54:24Z</time>
      </trkpt>
      <trkpt lat="46.888085464015603" lon="12.179834861308336">
        <ele>1698.79</ele>
        <time>2014-03-07T09:54:25Z</time>
      </trkpt>
      <trkpt lat="46.888118907809258" lon="12.179955393075943">
        <ele>1698.79</ele>
        <time>2014-03-07T09:54:34Z</time>
      </trkpt>
      <trkpt lat="46.888143382966518" lon="12.180049857124686">
        <ele>1700.23</ele>
        <time>2014-03-07T09:54:43Z</time>
      </trkpt>
      <trkpt lat="46.888166684657335" lon="12.180218836292624">
        <ele>1701.6700000000001</ele>
        <time>2014-03-07T09:54:56Z</time>
      </trkpt>
      <trkpt lat="46.888185711577535" lon="12.180309612303972">
        <ele>1702.6300000000001</ele>
        <time>2014-03-07T09:55:02Z</time>
      </trkpt>
      <trkpt lat="46.888224435970187" lon="12.180383205413818">
        <ele>1703.1099999999999</ele>
        <time>2014-03-07T09:55:08Z</time>
      </trkpt>
      <trkpt lat="46.888279337435961" lon="12.180467024445534">
        <ele>1704.0699999999999</ele>
        <time>2014-03-07T09:55:15Z</time>
      </trkpt>
      <trkpt lat="46.888287803158164" lon="12.180602392181754">
        <ele>1705.04</ele>
        <time>2014-03-07T09:55:31Z</time>
      </trkpt>
      <trkpt lat="46.888255029916763" lon="12.180662993341684">
        <ele>1705.04</ele>
        <time>2014-03-07T09:56:01Z</time>
      </trkpt>
      <trkpt lat="46.888271793723106" lon="12.180603733286262">
        <ele>1705.04</ele>
        <time>2014-03-07T09:56:17Z</time>
      </trkpt>
      <trkpt lat="46.888328874483705" lon="12.18070724979043">
        <ele>1706</ele>
        <time>2014-03-07T09:56:29Z</time>
      </trkpt>
      <trkpt lat="46.888378243893385" lon="12.18081814236939">
        <ele>1707.4400000000001</ele>
        <time>2014-03-07T09:56:43Z</time>
      </trkpt>
      <trkpt lat="46.88842442817986" lon="12.180855860933661">
        <ele>1707.9200000000001</ele>
        <time>2014-03-07T09:57:03Z</time>
      </trkpt>
      <trkpt lat="46.888471618294716" lon="12.180986534804106">
        <ele>1709.3599999999999</ele>
        <time>2014-03-07T09:57:13Z</time>
      </trkpt>
      <trkpt lat="46.888551749289036" lon="12.181137409061193">
        <ele>1710.8</ele>
        <time>2014-03-07T09:57:27Z</time>
      </trkpt>
      <trkpt lat="46.88858418725431" lon="12.181287109851837">
        <ele>1712.25</ele>
        <time>2014-03-07T09:57:41Z</time>
      </trkpt>
      <trkpt lat="46.888607572764158" lon="12.181451562792063">
        <ele>1714.1700000000001</ele>
        <time>2014-03-07T09:57:56Z</time>
      </trkpt>
      <trkpt lat="46.888656942173839" lon="12.181594138965011">
        <ele>1716.5699999999999</ele>
        <time>2014-03-07T09:58:10Z</time>
      </trkpt>
      <trkpt lat="46.888658618554473" lon="12.181608974933624">
        <ele>1716.5699999999999</ele>
        <time>2014-03-07T09:58:11Z</time>
      </trkpt>
      <trkpt lat="46.888677980750799" lon="12.181835034862161">
        <ele>1718.01</ele>
        <time>2014-03-07T09:58:29Z</time>
      </trkpt>
      <trkpt lat="46.888714274391532" lon="12.182042067870498">
        <ele>1719.46</ele>
        <time>2014-03-07T09:58:44Z</time>
      </trkpt>
      <trkpt lat="46.888670772314072" lon="12.18224985525012">
        <ele>1720.9000000000001</ele>
        <time>2014-03-07T09:59:00Z</time>
      </trkpt>
      <trkpt lat="46.888696840032935" lon="12.182337529957294">
        <ele>1722.3399999999999</ele>
        <time>2014-03-07T09:59:10Z</time>
      </trkpt>
      <trkpt lat="46.888713855296373" lon="12.182383462786674">
        <ele>1723.3</ele>
        <time>2014-03-07T09:59:15Z</time>
      </trkpt>
      <trkpt lat="46.888749981299043" lon="12.182513298466802">
        <ele>1725.22</ele>
        <time>2014-03-07T09:59:29Z</time>
      </trkpt>
      <trkpt lat="46.888738498091698" lon="12.182663502171636">
        <ele>1727.1500000000001</ele>
        <time>2014-03-07T09:59:43Z</time>
      </trkpt>
      <trkpt lat="46.888749143108726" lon="12.182820746675134">
        <ele>1728.5899999999999</ele>
        <time>2014-03-07T09:59:57Z</time>
      </trkpt>
      <trkpt lat="46.888770684599876" lon="12.182960389181972">
        <ele>1730.03</ele>
        <time>2014-03-07T10:00:12Z</time>
      </trkpt>
      <trkpt lat="46.888748975470662" lon="12.183136744424701">
        <ele>1730.51</ele>
        <time>2014-03-07T10:00:26Z</time>
      </trkpt>
      <trkpt lat="46.888746712356806" lon="12.183167254552245">
        <ele>1730.99</ele>
        <time>2014-03-07T10:00:29Z</time>
      </trkpt>
      <trkpt lat="46.888744365423918" lon="12.183387447148561">
        <ele>1731.95</ele>
        <time>2014-03-07T10:00:45Z</time>
      </trkpt>
      <trkpt lat="46.888748975470662" lon="12.183531196787953">
        <ele>1733.3900000000001</ele>
        <time>2014-03-07T10:00:58Z</time>
      </trkpt>
      <trkpt lat="46.888787364587188" lon="12.183601772412658">
        <ele>1734.3599999999999</ele>
        <time>2014-03-07T10:01:05Z</time>
      </trkpt>
      <trkpt lat="46.888822820037603" lon="12.183666313067079">
        <ele>1735.3199999999999</ele>
        <time>2014-03-07T10:01:13Z</time>
      </trkpt>
      <trkpt lat="46.888875374570489" lon="12.183788856491446">
        <ele>1736.28</ele>
        <time>2014-03-07T10:01:26Z</time>
      </trkpt>
      <trkpt lat="46.888892473652959" lon="12.183808051049709">
        <ele>1736.28</ele>
        <time>2014-03-07T10:01:30Z</time>
      </trkpt>
      <trkpt lat="46.888935305178165" lon="12.183939144015312">
        <ele>1737.24</ele>
        <time>2014-03-07T10:01:40Z</time>
      </trkpt>
      <trkpt lat="46.888933544978499" lon="12.184006366878748">
        <ele>1737.72</ele>
        <time>2014-03-07T10:01:45Z</time>
      </trkpt>
      <trkpt lat="46.888956092298031" lon="12.184185069054365">
        <ele>1739.1600000000001</ele>
        <time>2014-03-07T10:02:01Z</time>
      </trkpt>
      <trkpt lat="46.888958690688014" lon="12.184284729883075">
        <ele>1739.6400000000001</ele>
        <time>2014-03-07T10:02:10Z</time>
      </trkpt>
      <trkpt lat="46.889016022905707" lon="12.184421941637993">
        <ele>1740.5999999999999</ele>
        <time>2014-03-07T10:02:24Z</time>
      </trkpt>
      <trkpt lat="46.889010574668646" lon="12.184537025168538">
        <ele>1741.5699999999999</ele>
        <time>2014-03-07T10:02:33Z</time>
      </trkpt>
      <trkpt lat="46.889020800590515" lon="12.184584718197584">
        <ele>1741.5699999999999</ele>
        <time>2014-03-07T10:02:36Z</time>
      </trkpt>
      <trkpt lat="46.88903471454978" lon="12.184613719582558">
        <ele>1741.5699999999999</ele>
        <time>2014-03-07T10:02:38Z</time>
      </trkpt>
      <trkpt lat="46.889073858037591" lon="12.18479610979557">
        <ele>1743.01</ele>
        <time>2014-03-07T10:02:54Z</time>
      </trkpt>
      <trkpt lat="46.889129178598523" lon="12.184939859434962">
        <ele>1745.4100000000001</ele>
        <time>2014-03-07T10:03:09Z</time>
      </trkpt>
      <trkpt lat="46.889152396470308" lon="12.185026025399566">
        <ele>1747.3299999999999</ele>
        <time>2014-03-07T10:03:24Z</time>
      </trkpt>
      <trkpt lat="46.889141416177154" lon="12.185155861079693">
        <ele>1746.8499999999999</ele>
        <time>2014-03-07T10:03:35Z</time>
      </trkpt>
      <trkpt lat="46.889084503054619" lon="12.185349818319082">
        <ele>1746.8499999999999</ele>
        <time>2014-03-07T10:03:49Z</time>
      </trkpt>
      <trkpt lat="46.88909531570971" lon="12.185560623183846">
        <ele>1748.78</ele>
        <time>2014-03-07T10:04:07Z</time>
      </trkpt>
      <trkpt lat="46.889091962948442" lon="12.185802357271314">
        <ele>1750.7</ele>
        <time>2014-03-07T10:04:26Z</time>
      </trkpt>
      <trkpt lat="46.889071511104703" lon="12.18597368337214">
        <ele>1752.6199999999999</ele>
        <time>2014-03-07T10:04:40Z</time>
      </trkpt>
      <trkpt lat="46.889056088402867" lon="12.186154313385487">
        <ele>1754.0599999999999</ele>
        <time>2014-03-07T10:04:57Z</time>
      </trkpt>
      <trkpt lat="46.889016693457961" lon="12.1863435767591">
        <ele>1755.02</ele>
        <time>2014-03-07T10:05:12Z</time>
      </trkpt>
      <trkpt lat="46.888933125883341" lon="12.186505431309342">
        <ele>1756.47</ele>
        <time>2014-03-07T10:05:26Z</time>
      </trkpt>
      <trkpt lat="46.888877637684345" lon="12.186658401042223">
        <ele>1757.4300000000001</ele>
        <time>2014-03-07T10:05:43Z</time>
      </trkpt>
      <trkpt lat="46.888848133385181" lon="12.186816651374102">
        <ele>1758.8699999999999</ele>
        <time>2014-03-07T10:05:57Z</time>
      </trkpt>
      <trkpt lat="46.888828184455633" lon="12.186879012733698">
        <ele>1758.8699999999999</ele>
        <time>2014-03-07T10:06:10Z</time>
      </trkpt>
      <trkpt lat="46.888824244961143" lon="12.186903320252895">
        <ele>1757.4300000000001</ele>
        <time>2014-03-07T10:06:23Z</time>
      </trkpt>
      <trkpt lat="46.888842349871993" lon="12.186873815953732">
        <ele>1757.4300000000001</ele>
        <time>2014-03-07T10:06:46Z</time>
      </trkpt>
      <trkpt lat="46.888816114515066" lon="12.186955958604813">
        <ele>1757.4300000000001</ele>
        <time>2014-03-07T10:07:15Z</time>
      </trkpt>
      <trkpt lat="46.888814019039273" lon="12.186939530074596">
        <ele>1757.4300000000001</ele>
        <time>2014-03-07T10:07:20Z</time>
      </trkpt>
      <trkpt lat="46.888803960755467" lon="12.186930980533361">
        <ele>1758.3900000000001</ele>
        <time>2014-03-07T10:07:28Z</time>
      </trkpt>
      <trkpt lat="46.888802535831928" lon="12.186872223392129">
        <ele>1758.3900000000001</ele>
        <time>2014-03-07T10:07:48Z</time>
      </trkpt>
      <trkpt lat="46.888782000169158" lon="12.186878593638539">
        <ele>1758.3900000000001</ele>
        <time>2014-03-07T10:08:11Z</time>
      </trkpt>
      <trkpt lat="46.888753501698375" lon="12.186843305826187">
        <ele>1758.8699999999999</ele>
        <time>2014-03-07T10:08:26Z</time>
      </trkpt>
      <trkpt lat="46.888762470334768" lon="12.186878342181444">
        <ele>1759.3499999999999</ele>
        <time>2014-03-07T10:08:45Z</time>
      </trkpt>
      <trkpt lat="46.888771438971162" lon="12.186884544789791">
        <ele>1758.3900000000001</ele>
        <time>2014-03-07T10:09:03Z</time>
      </trkpt>
      <trkpt lat="46.888762889429927" lon="12.186867948621511">
        <ele>1758.8699999999999</ele>
        <time>2014-03-07T10:09:23Z</time>
      </trkpt>
      <trkpt lat="46.888773366808891" lon="12.18686543405056">
        <ele>1758.3900000000001</ele>
        <time>2014-03-07T10:09:45Z</time>
      </trkpt>
      <trkpt lat="46.888752831146121" lon="12.186893932521343">
        <ele>1758.8699999999999</ele>
        <time>2014-03-07T10:10:08Z</time>
      </trkpt>
      <trkpt lat="46.88875618390739" lon="12.186895022168756">
        <ele>1760.3099999999999</ele>
        <time>2014-03-07T10:10:30Z</time>
      </trkpt>
      <trkpt lat="46.888759201392531" lon="12.186893345788121">
        <ele>1759.8299999999999</ele>
        <time>2014-03-07T10:10:42Z</time>
      </trkpt>
      <trkpt lat="46.888742102310061" lon="12.186884293332696">
        <ele>1760.3099999999999</ele>
        <time>2014-03-07T10:11:04Z</time>
      </trkpt>
      <trkpt lat="46.888703880831599" lon="12.186917401850224">
        <ele>1760.3099999999999</ele>
        <time>2014-03-07T10:11:23Z</time>
      </trkpt>
      <trkpt lat="46.888709329068661" lon="12.186944978311658">
        <ele>1760.3099999999999</ele>
        <time>2014-03-07T10:11:46Z</time>
      </trkpt>
      <trkpt lat="46.888686446473002" lon="12.186928130686283">
        <ele>1760.3099999999999</ele>
        <time>2014-03-07T10:12:12Z</time>
      </trkpt>
      <trkpt lat="46.888753501698375" lon="12.186890160664916">
        <ele>1760.79</ele>
        <time>2014-03-07T10:12:36Z</time>
      </trkpt>
      <trkpt lat="46.888876296579838" lon="12.186896866187453">
        <ele>1761.27</ele>
        <time>2014-03-07T10:12:56Z</time>
      </trkpt>
      <trkpt lat="46.888871686533093" lon="12.186906337738037">
        <ele>1760.79</ele>
        <time>2014-03-07T10:13:30Z</time>
      </trkpt>
      <trkpt lat="46.888804966583848" lon="12.186840120702982">
        <ele>1760.79</ele>
        <time>2014-03-07T10:13:53Z</time>
      </trkpt>
      <trkpt lat="46.888793651014566" lon="12.187052685767412">
        <ele>1762.23</ele>
        <time>2014-03-07T10:14:07Z</time>
      </trkpt>
      <trkpt lat="46.888793064281344" lon="12.187067940831184">
        <ele>1762.23</ele>
        <time>2014-03-07T10:14:08Z</time>
      </trkpt>
      <trkpt lat="46.888740928843617" lon="12.187289474532008">
        <ele>1764.1600000000001</ele>
        <time>2014-03-07T10:14:24Z</time>
      </trkpt>
      <trkpt lat="46.888697929680347" lon="12.187441354617476">
        <ele>1765.5999999999999</ele>
        <time>2014-03-07T10:14:36Z</time>
      </trkpt>
      <trkpt lat="46.888659205287695" lon="12.18763162381947">
        <ele>1766.5599999999999</ele>
        <time>2014-03-07T10:14:51Z</time>
      </trkpt>
      <trkpt lat="46.88860279507935" lon="12.187743606045842">
        <ele>1768</ele>
        <time>2014-03-07T10:15:04Z</time>
      </trkpt>
      <trkpt lat="46.888607488945127" lon="12.187764644622803">
        <ele>1768</ele>
        <time>2014-03-07T10:15:06Z</time>
      </trkpt>
      <trkpt lat="46.888671023771167" lon="12.18795851804316">
        <ele>1769.9200000000001</ele>
        <time>2014-03-07T10:15:24Z</time>
      </trkpt>
      <trkpt lat="46.888677561655641" lon="12.187965139746666">
        <ele>1769.4400000000001</ele>
        <time>2014-03-07T10:15:25Z</time>
      </trkpt>
      <trkpt lat="46.888782167807221" lon="12.188018867745996">
        <ele>1770.4100000000001</ele>
        <time>2014-03-07T10:15:37Z</time>
      </trkpt>
      <trkpt lat="46.888880990445614" lon="12.188090197741985">
        <ele>1772.3299999999999</ele>
        <time>2014-03-07T10:15:50Z</time>
      </trkpt>
      <trkpt lat="46.888973442837596" lon="12.188195893540978">
        <ele>1774.25</ele>
        <time>2014-03-07T10:16:05Z</time>
      </trkpt>
      <trkpt lat="46.889049131423235" lon="12.188210478052497">
        <ele>1774.25</ele>
        <time>2014-03-07T10:16:11Z</time>
      </trkpt>
      <trkpt lat="46.889118617400527" lon="12.18826437368989">
        <ele>1775.21</ele>
        <time>2014-03-07T10:16:20Z</time>
      </trkpt>
      <trkpt lat="46.889240490272641" lon="12.18839043751359">
        <ele>1777.1300000000001</ele>
        <time>2014-03-07T10:16:36Z</time>
      </trkpt>
      <trkpt lat="46.889316933229566" lon="12.188436537981033">
        <ele>1778.0999999999999</ele>
        <time>2014-03-07T10:16:49Z</time>
      </trkpt>
      <trkpt lat="46.8894187733531" lon="12.188464533537626">
        <ele>1779.0599999999999</ele>
        <time>2014-03-07T10:17:03Z</time>
      </trkpt>
      <trkpt lat="46.889435788616538" lon="12.188495127484202">
        <ele>1779.54</ele>
        <time>2014-03-07T10:17:14Z</time>
      </trkpt>
      <trkpt lat="46.889476524665952" lon="12.188576012849808">
        <ele>1781.46</ele>
        <time>2014-03-07T10:17:35Z</time>
      </trkpt>
      <trkpt lat="46.889524217694998" lon="12.188646756112576">
        <ele>1783.3800000000001</ele>
        <time>2014-03-07T10:17:45Z</time>
      </trkpt>
      <trkpt lat="46.889573838561773" lon="12.188869714736938">
        <ele>1785.3099999999999</ele>
        <time>2014-03-07T10:18:03Z</time>
      </trkpt>
      <trkpt lat="46.889558918774128" lon="12.189000891521573">
        <ele>1786.27</ele>
        <time>2014-03-07T10:18:12Z</time>
      </trkpt>
      <trkpt lat="46.889563528820872" lon="12.189072640612721">
        <ele>1786.27</ele>
        <time>2014-03-07T10:18:17Z</time>
      </trkpt>
      <trkpt lat="46.889546681195498" lon="12.189299538731575">
        <ele>1787.71</ele>
        <time>2014-03-07T10:18:33Z</time>
      </trkpt>
      <trkpt lat="46.889551626518369" lon="12.18938042409718">
        <ele>1788.1900000000001</ele>
        <time>2014-03-07T10:18:39Z</time>
      </trkpt>
      <trkpt lat="46.889526145532727" lon="12.189628947526217">
        <ele>1788.1900000000001</ele>
        <time>2014-03-07T10:18:54Z</time>
      </trkpt>
      <trkpt lat="46.889521954581141" lon="12.189850648865104">
        <ele>1788.6700000000001</ele>
        <time>2014-03-07T10:19:10Z</time>
      </trkpt>
      <trkpt lat="46.889525894075632" lon="12.189926924183965">
        <ele>1789.1500000000001</ele>
        <time>2014-03-07T10:19:15Z</time>
      </trkpt>
      <trkpt lat="46.889607114717364" lon="12.190122222527862">
        <ele>1791.0699999999999</ele>
        <time>2014-03-07T10:19:33Z</time>
      </trkpt>
      <trkpt lat="46.88961717300117" lon="12.190144769847393">
        <ele>1791.55</ele>
        <time>2014-03-07T10:19:44Z</time>
      </trkpt>
      <trkpt lat="46.889596553519368" lon="12.190131107345223">
        <ele>1791.55</ele>
        <time>2014-03-07T10:20:01Z</time>
      </trkpt>
      <trkpt lat="46.88959077000618" lon="12.190161449834704">
        <ele>1791.0699999999999</ele>
        <time>2014-03-07T10:20:17Z</time>
      </trkpt>
      <trkpt lat="46.889560846611857" lon="12.190124904736876">
        <ele>1791.55</ele>
        <time>2014-03-07T10:20:37Z</time>
      </trkpt>
      <trkpt lat="46.889607366174459" lon="12.190149296075106">
        <ele>1792.03</ele>
        <time>2014-03-07T10:20:58Z</time>
      </trkpt>
      <trkpt lat="46.889594877138734" lon="12.190167149528861">
        <ele>1792.52</ele>
        <time>2014-03-07T10:21:13Z</time>
      </trkpt>
      <trkpt lat="46.889574844390154" lon="12.190196821466088">
        <ele>1793</ele>
        <time>2014-03-07T10:21:30Z</time>
      </trkpt>
      <trkpt lat="46.889596050605178" lon="12.190214339643717">
        <ele>1793.48</ele>
        <time>2014-03-07T10:21:44Z</time>
      </trkpt>
      <trkpt lat="46.88966796733439" lon="12.190244933590293">
        <ele>1793.96</ele>
        <time>2014-03-07T10:22:02Z</time>
      </trkpt>
      <trkpt lat="46.889694454148412" lon="12.19026337377727">
        <ele>1794.4400000000001</ele>
        <time>2014-03-07T10:22:05Z</time>
      </trkpt>
      <trkpt lat="46.889768214896321" lon="12.190295895561576">
        <ele>1795.4000000000001</ele>
        <time>2014-03-07T10:22:12Z</time>
      </trkpt>
      <trkpt lat="46.889871479943395" lon="12.190413828939199">
        <ele>1797.3199999999999</ele>
        <time>2014-03-07T10:22:27Z</time>
      </trkpt>
      <trkpt lat="46.889933254569769" lon="12.19067333266139">
        <ele>1796.8399999999999</ele>
        <time>2014-03-07T10:22:44Z</time>
      </trkpt>
      <trkpt lat="46.889966698363423" lon="12.190768048167229">
        <ele>1796.8399999999999</ele>
        <time>2014-03-07T10:22:51Z</time>
      </trkpt>
      <trkpt lat="46.889945575967431" lon="12.190882880240679">
        <ele>1800.21</ele>
        <time>2014-03-07T10:23:06Z</time>
      </trkpt>
      <trkpt lat="46.889927471056581" lon="12.190955216065049">
        <ele>1802.1300000000001</ele>
        <time>2014-03-07T10:23:19Z</time>
      </trkpt>
      <trkpt lat="46.889960328117013" lon="12.191050769761205">
        <ele>1804.53</ele>
        <time>2014-03-07T10:23:32Z</time>
      </trkpt>
      <trkpt lat="46.889972817152739" lon="12.191120171919465">
        <ele>1806.45</ele>
        <time>2014-03-07T10:23:46Z</time>
      </trkpt>
      <trkpt lat="46.889986228197813" lon="12.191149676218629">
        <ele>1808.3800000000001</ele>
        <time>2014-03-07T10:23:59Z</time>
      </trkpt>
      <trkpt lat="46.889933506026864" lon="12.191227711737156">
        <ele>1811.26</ele>
        <time>2014-03-07T10:24:12Z</time>
      </trkpt>
      <trkpt lat="46.889948425814509" lon="12.191344639286399">
        <ele>1814.1500000000001</ele>
        <time>2014-03-07T10:24:25Z</time>
      </trkpt>
      <trkpt lat="46.889926716685295" lon="12.191427787765861">
        <ele>1817.03</ele>
        <time>2014-03-07T10:24:39Z</time>
      </trkpt>
      <trkpt lat="46.889902576804161" lon="12.19151864759624">
        <ele>1820.3900000000001</ele>
        <time>2014-03-07T10:24:54Z</time>
      </trkpt>
      <trkpt lat="46.889932081103325" lon="12.191607244312763">
        <ele>1823.28</ele>
        <time>2014-03-07T10:25:09Z</time>
      </trkpt>
      <trkpt lat="46.889923866838217" lon="12.191686872392893">
        <ele>1825.2</ele>
        <time>2014-03-07T10:25:18Z</time>
      </trkpt>
      <trkpt lat="46.88985999673605" lon="12.191772954538465">
        <ele>1827.1199999999999</ele>
        <time>2014-03-07T10:25:32Z</time>
      </trkpt>
      <trkpt lat="46.889806017279625" lon="12.191828861832619">
        <ele>1830.49</ele>
        <time>2014-03-07T10:25:47Z</time>
      </trkpt>
      <trkpt lat="46.88976913690567" lon="12.191898683086038">
        <ele>1832.8900000000001</ele>
        <time>2014-03-07T10:26:02Z</time>
      </trkpt>
      <trkpt lat="46.889765784144402" lon="12.191947801038623">
        <ele>1835.29</ele>
        <time>2014-03-07T10:26:16Z</time>
      </trkpt>
      <trkpt lat="46.889790259301662" lon="12.192007647827268">
        <ele>1836.74</ele>
        <time>2014-03-07T10:26:28Z</time>
      </trkpt>
      <trkpt lat="46.889720605686307" lon="12.192088449373841">
        <ele>1839.6199999999999</ele>
        <time>2014-03-07T10:26:44Z</time>
      </trkpt>
      <trkpt lat="46.889655729755759" lon="12.192118540406227">
        <ele>1842.02</ele>
        <time>2014-03-07T10:26:58Z</time>
      </trkpt>
      <trkpt lat="46.889678025618196" lon="12.192223900929093">
        <ele>1844.4300000000001</ele>
        <time>2014-03-07T10:27:13Z</time>
      </trkpt>
      <trkpt lat="46.889684563502669" lon="12.192260110750794">
        <ele>1845.8699999999999</ele>
        <time>2014-03-07T10:27:17Z</time>
      </trkpt>
      <trkpt lat="46.889647515490651" lon="12.192349378019571">
        <ele>1847.79</ele>
        <time>2014-03-07T10:27:29Z</time>
      </trkpt>
      <trkpt lat="46.889663944020867" lon="12.192354826256633">
        <ele>1848.75</ele>
        <time>2014-03-07T10:27:41Z</time>
      </trkpt>
      <trkpt lat="46.889588255435228" lon="12.192457588389516">
        <ele>1852.1199999999999</ele>
        <time>2014-03-07T10:27:56Z</time>
      </trkpt>
      <trkpt lat="46.88948716968298" lon="12.192536210641265">
        <ele>1854.52</ele>
        <time>2014-03-07T10:28:11Z</time>
      </trkpt>
      <trkpt lat="46.889431513845921" lon="12.192488014698029">
        <ele>1856.9200000000001</ele>
        <time>2014-03-07T10:28:24Z</time>
      </trkpt>
      <trkpt lat="46.889364961534739" lon="12.192539144307375">
        <ele>1858.8499999999999</ele>
        <time>2014-03-07T10:28:36Z</time>
      </trkpt>
      <trkpt lat="46.88933671452105" lon="12.19251986593008">
        <ele>1859.3299999999999</ele>
        <time>2014-03-07T10:28:54Z</time>
      </trkpt>
      <trkpt lat="46.889337804168463" lon="12.192518776282668">
        <ele>1858.8499999999999</ele>
        <time>2014-03-07T10:29:14Z</time>
      </trkpt>
      <trkpt lat="46.889360435307026" lon="12.19247535802424">
        <ele>1859.8099999999999</ele>
        <time>2014-03-07T10:29:28Z</time>
      </trkpt>
      <trkpt lat="46.889354567974806" lon="12.192439148202538">
        <ele>1858.8499999999999</ele>
        <time>2014-03-07T10:29:49Z</time>
      </trkpt>
      <trkpt lat="46.889340234920382" lon="12.192420624196529">
        <ele>1859.3299999999999</ele>
        <time>2014-03-07T10:30:03Z</time>
      </trkpt>
      <trkpt lat="46.889354232698679" lon="12.19255699776113">
        <ele>1860.77</ele>
        <time>2014-03-07T10:30:16Z</time>
      </trkpt>
      <trkpt lat="46.889362530782819" lon="12.192592034116387">
        <ele>1861.73</ele>
        <time>2014-03-07T10:30:18Z</time>
      </trkpt>
      <trkpt lat="46.889370577409863" lon="12.192705441266298">
        <ele>1863.6500000000001</ele>
        <time>2014-03-07T10:30:31Z</time>
      </trkpt>
      <trkpt lat="46.889344677329063" lon="12.192686079069972">
        <ele>1863.6500000000001</ele>
        <time>2014-03-07T10:30:46Z</time>
      </trkpt>
      <trkpt lat="46.889345096424222" lon="12.192754810675979">
        <ele>1863.6500000000001</ele>
        <time>2014-03-07T10:30:59Z</time>
      </trkpt>
      <trkpt lat="46.889331853017211" lon="12.192724887281656">
        <ele>1863.1700000000001</ele>
        <time>2014-03-07T10:31:11Z</time>
      </trkpt>
      <trkpt lat="46.889338055625558" lon="12.192715583369136">
        <ele>1863.6500000000001</ele>
        <time>2014-03-07T10:31:28Z</time>
      </trkpt>
      <trkpt lat="46.889352472499013" lon="12.192679373547435">
        <ele>1863.6500000000001</ele>
        <time>2014-03-07T10:31:41Z</time>
      </trkpt>
      <trkpt lat="46.889394046738744" lon="12.19268792308867">
        <ele>1864.1300000000001</ele>
        <time>2014-03-07T10:31:54Z</time>
      </trkpt>
      <trkpt lat="46.889434028416872" lon="12.192768640816212">
        <ele>1865.0899999999999</ele>
        <time>2014-03-07T10:32:08Z</time>
      </trkpt>
      <trkpt lat="46.889435453340411" lon="12.1927744243294">
        <ele>1865.0899999999999</ele>
        <time>2014-03-07T10:32:22Z</time>
      </trkpt>
      <trkpt lat="46.889406200498343" lon="12.192815830931067">
        <ele>1865.5799999999999</ele>
        <time>2014-03-07T10:32:37Z</time>
      </trkpt>
      <trkpt lat="46.889320956543088" lon="12.192859500646591">
        <ele>1868.46</ele>
        <time>2014-03-07T10:32:50Z</time>
      </trkpt>
      <trkpt lat="46.889298409223557" lon="12.192916246131063">
        <ele>1870.8599999999999</ele>
        <time>2014-03-07T10:33:04Z</time>
      </trkpt>
      <trkpt lat="46.889391867443919" lon="12.192968465387821">
        <ele>1871.8199999999999</ele>
        <time>2014-03-07T10:33:19Z</time>
      </trkpt>
      <trkpt lat="46.889414079487324" lon="12.193035017699003">
        <ele>1873.27</ele>
        <time>2014-03-07T10:33:34Z</time>
      </trkpt>
      <trkpt lat="46.889403350651264" lon="12.193023199215531">
        <ele>1872.79</ele>
        <time>2014-03-07T10:33:59Z</time>
      </trkpt>
      <trkpt lat="46.88938264735043" lon="12.193087739869952">
        <ele>1873.27</ele>
        <time>2014-03-07T10:34:26Z</time>
      </trkpt>
      <trkpt lat="46.889392370358109" lon="12.193032084032893">
        <ele>1873.75</ele>
        <time>2014-03-07T10:34:45Z</time>
      </trkpt>
      <trkpt lat="46.889405949041247" lon="12.193006603047252">
        <ele>1873.27</ele>
        <time>2014-03-07T10:35:06Z</time>
      </trkpt>
      <trkpt lat="46.889363285154104" lon="12.193000065162778">
        <ele>1873.27</ele>
        <time>2014-03-07T10:35:32Z</time>
      </trkpt>
      <trkpt lat="46.889359932392836" lon="12.192997047677636">
        <ele>1873.27</ele>
        <time>2014-03-07T10:35:53Z</time>
      </trkpt>
      <trkpt lat="46.889374935999513" lon="12.19304172322154">
        <ele>1873.75</ele>
        <time>2014-03-07T10:36:07Z</time>
      </trkpt>
      <trkpt lat="46.889371415600181" lon="12.193033592775464">
        <ele>1873.27</ele>
        <time>2014-03-07T10:36:24Z</time>
      </trkpt>
      <trkpt lat="46.889383736997843" lon="12.193011632189155">
        <ele>1873.75</ele>
        <time>2014-03-07T10:36:43Z</time>
      </trkpt>
      <trkpt lat="46.889360435307026" lon="12.193078603595495">
        <ele>1873.27</ele>
        <time>2014-03-07T10:37:05Z</time>
      </trkpt>
      <trkpt lat="46.889342498034239" lon="12.19313551671803">
        <ele>1873.27</ele>
        <time>2014-03-07T10:37:17Z</time>
      </trkpt>
      <trkpt lat="46.889337385073304" lon="12.193134594708681">
        <ele>1873.75</ele>
        <time>2014-03-07T10:37:29Z</time>
      </trkpt>
      <trkpt lat="46.889348030090332" lon="12.193139037117362">
        <ele>1873.75</ele>
        <time>2014-03-07T10:37:45Z</time>
      </trkpt>
      <trkpt lat="46.889336379244924" lon="12.193135265260935">
        <ele>1873.27</ele>
        <time>2014-03-07T10:38:01Z</time>
      </trkpt>
      <trkpt lat="46.889341743662953" lon="12.193133337423205">
        <ele>1873.75</ele>
        <time>2014-03-07T10:38:21Z</time>
      </trkpt>
      <trkpt lat="46.889334367588162" lon="12.19314088113606">
        <ele>1873.75</ele>
        <time>2014-03-07T10:38:42Z</time>
      </trkpt>
      <trkpt lat="46.889319363981485" lon="12.193154124543071">
        <ele>1873.75</ele>
        <time>2014-03-07T10:38:58Z</time>
      </trkpt>
      <trkpt lat="46.889319028705359" lon="12.193154208362103">
        <ele>1873.75</ele>
        <time>2014-03-07T10:39:18Z</time>
      </trkpt>
      <trkpt lat="46.889271922409534" lon="12.193280020728707">
        <ele>1876.1500000000001</ele>
        <time>2014-03-07T10:39:32Z</time>
      </trkpt>
      <trkpt lat="46.889213835820556" lon="12.19344774261117">
        <ele>1878.55</ele>
        <time>2014-03-07T10:39:47Z</time>
      </trkpt>
      <trkpt lat="46.889194725081325" lon="12.193565340712667">
        <ele>1881.4400000000001</ele>
        <time>2014-03-07T10:40:00Z</time>
      </trkpt>
      <trkpt lat="46.889191707596183" lon="12.193662486970425">
        <ele>1883.3599999999999</ele>
        <time>2014-03-07T10:40:14Z</time>
      </trkpt>
      <trkpt lat="46.889099841937423" lon="12.193650417029858">
        <ele>1884.8</ele>
        <time>2014-03-07T10:40:28Z</time>
      </trkpt>
      <trkpt lat="46.889143511652946" lon="12.193741360679269">
        <ele>1886.72</ele>
        <time>2014-03-07T10:40:45Z</time>
      </trkpt>
      <trkpt lat="46.889185002073646" lon="12.193804727867246">
        <ele>1888.1700000000001</ele>
        <time>2014-03-07T10:41:00Z</time>
      </trkpt>
      <trkpt lat="46.889163041487336" lon="12.193870944902301">
        <ele>1891.05</ele>
        <time>2014-03-07T10:41:15Z</time>
      </trkpt>
      <trkpt lat="46.889152145013213" lon="12.193949399515986">
        <ele>1893.45</ele>
        <time>2014-03-07T10:41:28Z</time>
      </trkpt>
      <trkpt lat="46.889088610187173" lon="12.194022573530674">
        <ele>1895.3800000000001</ele>
        <time>2014-03-07T10:41:43Z</time>
      </trkpt>
      <trkpt lat="46.889146696776152" lon="12.19407806172967">
        <ele>1897.78</ele>
        <time>2014-03-07T10:41:59Z</time>
      </trkpt>
      <trkpt lat="46.889103194698691" lon="12.194155091419816">
        <ele>1899.7</ele>
        <time>2014-03-07T10:42:11Z</time>
      </trkpt>
      <trkpt lat="46.889063213020563" lon="12.194228013977408">
        <ele>1902.1099999999999</ele>
        <time>2014-03-07T10:42:29Z</time>
      </trkpt>
      <trkpt lat="46.889118952676654" lon="12.194261373952031">
        <ele>1903.55</ele>
        <time>2014-03-07T10:42:44Z</time>
      </trkpt>
      <trkpt lat="46.889151306822896" lon="12.194237988442183">
        <ele>1903.55</ele>
        <time>2014-03-07T10:42:50Z</time>
      </trkpt>
      <trkpt lat="46.889264546334743" lon="12.19415676780045">
        <ele>1904.99</ele>
        <time>2014-03-07T10:43:07Z</time>
      </trkpt>
      <trkpt lat="46.889361524954438" lon="12.194163892418146">
        <ele>1906.9100000000001</ele>
        <time>2014-03-07T10:43:22Z</time>
      </trkpt>
      <trkpt lat="46.889441907405853" lon="12.194266906008124">
        <ele>1908.8299999999999</ele>
        <time>2014-03-07T10:43:37Z</time>
      </trkpt>
      <trkpt lat="46.88948423601687" lon="12.194346282631159">
        <ele>1910.76</ele>
        <time>2014-03-07T10:43:49Z</time>
      </trkpt>
      <trkpt lat="46.889479542151093" lon="12.194450804963708">
        <ele>1912.2</ele>
        <time>2014-03-07T10:44:01Z</time>
      </trkpt>
      <trkpt lat="46.889407876878977" lon="12.194516099989414">
        <ele>1914.1199999999999</ele>
        <time>2014-03-07T10:44:19Z</time>
      </trkpt>
      <trkpt lat="46.889321208000183" lon="12.194541245698929">
        <ele>1916.53</ele>
        <time>2014-03-07T10:44:36Z</time>
      </trkpt>
      <trkpt lat="46.889229761436582" lon="12.194602349773049">
        <ele>1918.45</ele>
        <time>2014-03-07T10:44:51Z</time>
      </trkpt>
      <trkpt lat="46.889149798080325" lon="12.194687677547336">
        <ele>1920.8499999999999</ele>
        <time>2014-03-07T10:45:06Z</time>
      </trkpt>
      <trkpt lat="46.889063883572817" lon="12.194735370576382">
        <ele>1921.8099999999999</ele>
        <time>2014-03-07T10:45:20Z</time>
      </trkpt>
      <trkpt lat="46.889015100896358" lon="12.194750625640154">
        <ele>1921.8099999999999</ele>
        <time>2014-03-07T10:45:34Z</time>
      </trkpt>
      <trkpt lat="46.8889179546386" lon="12.194770406931639">
        <ele>1923.74</ele>
        <time>2014-03-07T10:45:50Z</time>
      </trkpt>
      <trkpt lat="46.888827681541443" lon="12.194640571251512">
        <ele>1925.6600000000001</ele>
        <time>2014-03-07T10:46:08Z</time>
      </trkpt>
      <trkpt lat="46.888746712356806" lon="12.194487601518631">
        <ele>1928.54</ele>
        <time>2014-03-07T10:46:26Z</time>
      </trkpt>
      <trkpt lat="46.888645039871335" lon="12.194448122754693">
        <ele>1931.4300000000001</ele>
        <time>2014-03-07T10:46:44Z</time>
      </trkpt>
      <trkpt lat="46.888534985482693" lon="12.194360783323646">
        <ele>1933.3499999999999</ele>
        <time>2014-03-07T10:47:01Z</time>
      </trkpt>
      <trkpt lat="46.888434989377856" lon="12.194309150800109">
        <ele>1934.79</ele>
        <time>2014-03-07T10:47:16Z</time>
      </trkpt>
      <trkpt lat="46.888317307457328" lon="12.194307558238506">
        <ele>1936.71</ele>
        <time>2014-03-07T10:47:32Z</time>
      </trkpt>
      <trkpt lat="46.888218820095062" lon="12.194330608472228">
        <ele>1938.1600000000001</ele>
        <time>2014-03-07T10:47:47Z</time>
      </trkpt>
      <trkpt lat="46.888137012720108" lon="12.194235976785421">
        <ele>1940.5599999999999</ele>
        <time>2014-03-07T10:48:02Z</time>
      </trkpt>
      <trkpt lat="46.888107340782881" lon="12.194223990663886">
        <ele>1942.48</ele>
        <time>2014-03-07T10:48:15Z</time>
      </trkpt>
      <trkpt lat="46.888153944164515" lon="12.194364136084914">
        <ele>1943.9200000000001</ele>
        <time>2014-03-07T10:48:30Z</time>
      </trkpt>
      <trkpt lat="46.888149753212929" lon="12.194460025057197">
        <ele>1946.8099999999999</ele>
        <time>2014-03-07T10:48:46Z</time>
      </trkpt>
      <trkpt lat="46.888093175366521" lon="12.194534875452518">
        <ele>1950.1700000000001</ele>
        <time>2014-03-07T10:49:01Z</time>
      </trkpt>
      <trkpt lat="46.888092588633299" lon="12.194527918472886">
        <ele>1950.1700000000001</ele>
        <time>2014-03-07T10:49:17Z</time>
      </trkpt>
      <trkpt lat="46.888031819835305" lon="12.194599583745003">
        <ele>1952.5699999999999</ele>
        <time>2014-03-07T10:49:31Z</time>
      </trkpt>
      <trkpt lat="46.888089319691062" lon="12.194656580686569">
        <ele>1955.46</ele>
        <time>2014-03-07T10:49:46Z</time>
      </trkpt>
      <trkpt lat="46.888105580583215" lon="12.194776358082891">
        <ele>1957.8599999999999</ele>
        <time>2014-03-07T10:50:05Z</time>
      </trkpt>
      <trkpt lat="46.888098455965519" lon="12.19474945217371">
        <ele>1957.3800000000001</ele>
        <time>2014-03-07T10:50:19Z</time>
      </trkpt>
      <trkpt lat="46.88809460029006" lon="12.194789601489902">
        <ele>1957.8599999999999</ele>
        <time>2014-03-07T10:50:29Z</time>
      </trkpt>
      <trkpt lat="46.888083033263683" lon="12.194780549034476">
        <ele>1958.3399999999999</ele>
        <time>2014-03-07T10:50:45Z</time>
      </trkpt>
      <trkpt lat="46.888084877282381" lon="12.194817429408431">
        <ele>1957.8599999999999</ele>
        <time>2014-03-07T10:51:09Z</time>
      </trkpt>
      <trkpt lat="46.888114968314767" lon="12.194757917895913">
        <ele>1958.3399999999999</ele>
        <time>2014-03-07T10:51:31Z</time>
      </trkpt>
      <trkpt lat="46.88810046762228" lon="12.194782644510269">
        <ele>1958.3399999999999</ele>
        <time>2014-03-07T10:51:44Z</time>
      </trkpt>
      <trkpt lat="46.888096025213599" lon="12.194763198494911">
        <ele>1958.3399999999999</ele>
        <time>2014-03-07T10:51:59Z</time>
      </trkpt>
      <trkpt lat="46.888102311640978" lon="12.194814495742321">
        <ele>1958.8199999999999</ele>
        <time>2014-03-07T10:52:19Z</time>
      </trkpt>
      <trkpt lat="46.88811220228672" lon="12.194745345041156">
        <ele>1959.3</ele>
        <time>2014-03-07T10:52:37Z</time>
      </trkpt>
      <trkpt lat="46.888082195073366" lon="12.194746853783727">
        <ele>1958.8199999999999</ele>
        <time>2014-03-07T10:52:50Z</time>
      </trkpt>
      <trkpt lat="46.888055708259344" lon="12.194778621196747">
        <ele>1959.3</ele>
        <time>2014-03-07T10:53:08Z</time>
      </trkpt>
      <trkpt lat="46.88806870020926" lon="12.194762779399753">
        <ele>1959.3</ele>
        <time>2014-03-07T10:53:33Z</time>
      </trkpt>
      <trkpt lat="46.888072974979877" lon="12.194709051400423">
        <ele>1958.8199999999999</ele>
        <time>2014-03-07T10:53:55Z</time>
      </trkpt>
      <trkpt lat="46.888083703815937" lon="12.194735957309604">
        <ele>1959.3</ele>
        <time>2014-03-07T10:54:12Z</time>
      </trkpt>
      <trkpt lat="46.888055624440312" lon="12.194721372798085">
        <ele>1958.8199999999999</ele>
        <time>2014-03-07T10:54:33Z</time>
      </trkpt>
      <trkpt lat="46.888021510094404" lon="12.194722462445498">
        <ele>1958.8199999999999</ele>
        <time>2014-03-07T10:54:51Z</time>
      </trkpt>
      <trkpt lat="46.888024276122451" lon="12.194736041128635">
        <ele>1959.78</ele>
        <time>2014-03-07T10:55:07Z</time>
      </trkpt>
      <trkpt lat="46.888031316921115" lon="12.194783482700586">
        <ele>1960.27</ele>
        <time>2014-03-07T10:55:27Z</time>
      </trkpt>
      <trkpt lat="46.888031987473369" lon="12.194823548197746">
        <ele>1961.23</ele>
        <time>2014-03-07T10:55:46Z</time>
      </trkpt>
      <trkpt lat="46.8880545347929" lon="12.194855734705925">
        <ele>1962.1900000000001</ele>
        <time>2014-03-07T10:56:02Z</time>
      </trkpt>
      <trkpt lat="46.888010697439313" lon="12.194924969226122">
        <ele>1965.0699999999999</ele>
        <time>2014-03-07T10:56:13Z</time>
      </trkpt>
      <trkpt lat="46.887956382706761" lon="12.194989928975701">
        <ele>1968.4400000000001</ele>
        <time>2014-03-07T10:56:28Z</time>
      </trkpt>
      <trkpt lat="46.88795973546803" lon="12.195095792412758">
        <ele>1970.8399999999999</ele>
        <time>2014-03-07T10:56:44Z</time>
      </trkpt>
      <trkpt lat="46.887960825115442" lon="12.195200398564339">
        <ele>1973.24</ele>
        <time>2014-03-07T10:56:59Z</time>
      </trkpt>
      <trkpt lat="46.888012206181884" lon="12.195240631699562">
        <ele>1975.1700000000001</ele>
        <time>2014-03-07T10:57:13Z</time>
      </trkpt>
      <trkpt lat="46.888034166768193" lon="12.195335850119591">
        <ele>1978.05</ele>
        <time>2014-03-07T10:57:27Z</time>
      </trkpt>
      <trkpt lat="46.887964848428965" lon="12.195469960570335">
        <ele>1980.9300000000001</ele>
        <time>2014-03-07T10:57:49Z</time>
      </trkpt>
      <trkpt lat="46.887944815680385" lon="12.195567190647125">
        <ele>1983.3399999999999</ele>
        <time>2014-03-07T10:58:04Z</time>
      </trkpt>
      <trkpt lat="46.888030646368861" lon="12.195585630834103">
        <ele>1985.74</ele>
        <time>2014-03-07T10:58:19Z</time>
      </trkpt>
      <trkpt lat="46.888087056577206" lon="12.195624774321914">
        <ele>1987.6600000000001</ele>
        <time>2014-03-07T10:58:32Z</time>
      </trkpt>
      <trkpt lat="46.888114046305418" lon="12.195718064904213">
        <ele>1990.0699999999999</ele>
        <time>2014-03-07T10:58:47Z</time>
      </trkpt>
      <trkpt lat="46.888070879504085" lon="12.195801632478833">
        <ele>1991.99</ele>
        <time>2014-03-07T10:59:02Z</time>
      </trkpt>
      <trkpt lat="46.888052020221949" lon="12.195903975516558">
        <ele>1994.3900000000001</ele>
        <time>2014-03-07T10:59:17Z</time>
      </trkpt>
      <trkpt lat="46.888111783191562" lon="12.195966420695186">
        <ele>1996.8</ele>
        <time>2014-03-07T10:59:33Z</time>
      </trkpt>
      <trkpt lat="46.888156458735466" lon="12.196039510890841">
        <ele>1999.6800000000001</ele>
        <time>2014-03-07T10:59:47Z</time>
      </trkpt>
      <trkpt lat="46.888188812881708" lon="12.19610933214426">
        <ele>2002.0799999999999</ele>
        <time>2014-03-07T10:59:59Z</time>
      </trkpt>
      <trkpt lat="46.888199876993895" lon="12.196167754009366">
        <ele>2004.49</ele>
        <time>2014-03-07T11:00:12Z</time>
      </trkpt>
      <trkpt lat="46.888199960812926" lon="12.19617135822773">
        <ele>2004.97</ele>
        <time>2014-03-07T11:00:13Z</time>
      </trkpt>
      <trkpt lat="46.888181520625949" lon="12.196190720424056">
        <ele>2004.49</ele>
        <time>2014-03-07T11:00:23Z</time>
      </trkpt>
      <trkpt lat="46.888256035745144" lon="12.196271857246757">
        <ele>2005.45</ele>
        <time>2014-03-07T11:00:38Z</time>
      </trkpt>
      <trkpt lat="46.888303644955158" lon="12.196321813389659">
        <ele>2006.8900000000001</ele>
        <time>2014-03-07T11:00:51Z</time>
      </trkpt>
      <trkpt lat="46.88827296718955" lon="12.196297338232398">
        <ele>2006.8900000000001</ele>
        <time>2014-03-07T11:01:09Z</time>
      </trkpt>
      <trkpt lat="46.88826022669673" lon="12.19629792496562">
        <ele>2006.8900000000001</ele>
        <time>2014-03-07T11:01:24Z</time>
      </trkpt>
      <trkpt lat="46.888219825923443" lon="12.196317119523883">
        <ele>2008.8099999999999</ele>
        <time>2014-03-07T11:01:40Z</time>
      </trkpt>
      <trkpt lat="46.888180011883378" lon="12.196296835318208">
        <ele>2009.29</ele>
        <time>2014-03-07T11:01:56Z</time>
      </trkpt>
      <trkpt lat="46.888187052682042" lon="12.196292476728559">
        <ele>2008.8099999999999</ele>
        <time>2014-03-07T11:02:17Z</time>
      </trkpt>
      <trkpt lat="46.888173222541809" lon="12.196306139230728">
        <ele>2009.29</ele>
        <time>2014-03-07T11:02:38Z</time>
      </trkpt>
      <trkpt lat="46.888119578361511" lon="12.19640395604074">
        <ele>2011.22</ele>
        <time>2014-03-07T11:02:54Z</time>
      </trkpt>
      <trkpt lat="46.888113543391228" lon="12.196506801992655">
        <ele>2014.0999999999999</ele>
        <time>2014-03-07T11:03:08Z</time>
      </trkpt>
      <trkpt lat="46.888129888102412" lon="12.196536138653755">
        <ele>2015.0599999999999</ele>
        <time>2014-03-07T11:03:21Z</time>
      </trkpt>
      <trkpt lat="46.88817473128438" lon="12.196646276861429">
        <ele>2016.02</ele>
        <time>2014-03-07T11:03:36Z</time>
      </trkpt>
      <trkpt lat="46.888118991628289" lon="12.196700591593981">
        <ele>2017.9400000000001</ele>
        <time>2014-03-07T11:03:52Z</time>
      </trkpt>
      <trkpt lat="46.88809703104198" lon="12.196816513314843">
        <ele>2019.3900000000001</ele>
        <time>2014-03-07T11:04:07Z</time>
      </trkpt>
      <trkpt lat="46.888057636097074" lon="12.196931261569262">
        <ele>2022.27</ele>
        <time>2014-03-07T11:04:22Z</time>
      </trkpt>
      <trkpt lat="46.888023018836975" lon="12.197076436132193">
        <ele>2025.1500000000001</ele>
        <time>2014-03-07T11:04:39Z</time>
      </trkpt>
      <trkpt lat="46.888029640540481" lon="12.197110131382942">
        <ele>2026.1199999999999</ele>
        <time>2014-03-07T11:04:48Z</time>
      </trkpt>
      <trkpt lat="46.888067359104753" lon="12.197054224088788">
        <ele>2026.5999999999999</ele>
        <time>2014-03-07T11:04:55Z</time>
      </trkpt>
      <trkpt lat="46.888107508420944" lon="12.197016254067421">
        <ele>2026.1199999999999</ele>
        <time>2014-03-07T11:05:09Z</time>
      </trkpt>
      <trkpt lat="46.888091918081045" lon="12.196995802223682">
        <ele>2025.6400000000001</ele>
        <time>2014-03-07T11:05:16Z</time>
      </trkpt>
      <trkpt lat="46.888086721301079" lon="12.197005776688457">
        <ele>2025.6400000000001</ele>
        <time>2014-03-07T11:05:29Z</time>
      </trkpt>
      <trkpt lat="46.888096360489726" lon="12.196990353986621">
        <ele>2025.6400000000001</ele>
        <time>2014-03-07T11:05:58Z</time>
      </trkpt>
      <trkpt lat="46.888090576976538" lon="12.196968980133533">
        <ele>2025.6400000000001</ele>
        <time>2014-03-07T11:06:26Z</time>
      </trkpt>
      <trkpt lat="46.888085883110762" lon="12.196984738111496">
        <ele>2026.1199999999999</ele>
        <time>2014-03-07T11:06:55Z</time>
      </trkpt>
      <trkpt lat="46.888109603896737" lon="12.197004100307822">
        <ele>2026.1199999999999</ele>
        <time>2014-03-07T11:07:29Z</time>
      </trkpt>
      <trkpt lat="46.888113124296069" lon="12.197006614878774">
        <ele>2026.5999999999999</ele>
        <time>2014-03-07T11:08:02Z</time>
      </trkpt>
      <trkpt lat="46.888065012171865" lon="12.197029665112495">
        <ele>2027.0799999999999</ele>
        <time>2014-03-07T11:08:21Z</time>
      </trkpt>
      <trkpt lat="46.888062665238976" lon="12.197022037580609">
        <ele>2027.0799999999999</ele>
        <time>2014-03-07T11:08:38Z</time>
      </trkpt>
      <trkpt lat="46.88807507045567" lon="12.196980211883783">
        <ele>2026.5999999999999</ele>
        <time>2014-03-07T11:08:59Z</time>
      </trkpt>
      <trkpt lat="46.888067945837975" lon="12.196962023153901">
        <ele>2027.0799999999999</ele>
        <time>2014-03-07T11:09:16Z</time>
      </trkpt>
      <trkpt lat="46.888076160103083" lon="12.196963950991631">
        <ele>2027.5599999999999</ele>
        <time>2014-03-07T11:09:20Z</time>
      </trkpt>
      <trkpt lat="46.888093091547489" lon="12.196971578523517">
        <ele>2028.04</ele>
        <time>2014-03-07T11:09:28Z</time>
      </trkpt>
      <trkpt lat="46.888106167316437" lon="12.197010470554233">
        <ele>2028.04</ele>
        <time>2014-03-07T11:09:43Z</time>
      </trkpt>
      <trkpt lat="46.888099629431963" lon="12.197052715346217">
        <ele>2028.04</ele>
        <time>2014-03-07T11:09:53Z</time>
      </trkpt>
      <trkpt lat="46.888058977201581" lon="12.197174839675426">
        <ele>2031.4000000000001</ele>
        <time>2014-03-07T11:10:06Z</time>
      </trkpt>
      <trkpt lat="46.888058725744486" lon="12.197263604030013">
        <ele>2034.29</ele>
        <time>2014-03-07T11:10:22Z</time>
      </trkpt>
      <trkpt lat="46.888059983029962" lon="12.197257652878761">
        <ele>2034.29</ele>
        <time>2014-03-07T11:10:43Z</time>
      </trkpt>
      <trkpt lat="46.88803793862462" lon="12.197306687012315">
        <ele>2033.8099999999999</ele>
        <time>2014-03-07T11:10:55Z</time>
      </trkpt>
      <trkpt lat="46.888032574206591" lon="12.197305765002966">
        <ele>2034.29</ele>
        <time>2014-03-07T11:11:07Z</time>
      </trkpt>
      <trkpt lat="46.888045147061348" lon="12.197271902114153">
        <ele>2033.8099999999999</ele>
        <time>2014-03-07T11:11:24Z</time>
      </trkpt>
      <trkpt lat="46.888040620833635" lon="12.197263268753886">
        <ele>2033.8099999999999</ele>
        <time>2014-03-07T11:11:38Z</time>
      </trkpt>
      <trkpt lat="46.888050343841314" lon="12.197243655100465">
        <ele>2033.8099999999999</ele>
        <time>2014-03-07T11:12:00Z</time>
      </trkpt>
      <trkpt lat="46.888049086555839" lon="12.197266537696123">
        <ele>2034.29</ele>
        <time>2014-03-07T11:12:22Z</time>
      </trkpt>
      <trkpt lat="46.88806526362896" lon="12.197286235168576">
        <ele>2034.29</ele>
        <time>2014-03-07T11:12:43Z</time>
      </trkpt>
      <trkpt lat="46.888072304427624" lon="12.197296712547541">
        <ele>2034.29</ele>
        <time>2014-03-07T11:13:01Z</time>
      </trkpt>
      <trkpt lat="46.888044727966189" lon="12.197330323979259">
        <ele>2034.77</ele>
        <time>2014-03-07T11:13:13Z</time>
      </trkpt>
      <trkpt lat="46.888014301657677" lon="12.197310877963901">
        <ele>2033.3299999999999</ele>
        <time>2014-03-07T11:13:27Z</time>
      </trkpt>
      <trkpt lat="46.888010948896408" lon="12.197304088622332">
        <ele>2033.3299999999999</ele>
        <time>2014-03-07T11:13:36Z</time>
      </trkpt>
      <trkpt lat="46.888029891997576" lon="12.197335939854383">
        <ele>2033.8099999999999</ele>
        <time>2014-03-07T11:13:50Z</time>
      </trkpt>
      <trkpt lat="46.888038357719779" lon="12.197357648983598">
        <ele>2034.29</ele>
        <time>2014-03-07T11:14:13Z</time>
      </trkpt>
      <trkpt lat="46.888033328577876" lon="12.197319008409977">
        <ele>2034.29</ele>
        <time>2014-03-07T11:14:39Z</time>
      </trkpt>
      <trkpt lat="46.888030478730798" lon="12.197306100279093">
        <ele>2034.29</ele>
        <time>2014-03-07T11:15:03Z</time>
      </trkpt>
      <trkpt lat="46.888033580034971" lon="12.19731280580163">
        <ele>2033.8099999999999</ele>
        <time>2014-03-07T11:15:31Z</time>
      </trkpt>
      <trkpt lat="46.887999633327127" lon="12.197277769446373">
        <ele>2033.8099999999999</ele>
        <time>2014-03-07T11:15:56Z</time>
      </trkpt>
      <trkpt lat="46.887998292222619" lon="12.197285732254386">
        <ele>2033.8099999999999</ele>
        <time>2014-03-07T11:16:24Z</time>
      </trkpt>
      <trkpt lat="46.888011116534472" lon="12.197307106107473">
        <ele>2033.3299999999999</ele>
        <time>2014-03-07T11:16:55Z</time>
      </trkpt>
      <trkpt lat="46.887997454032302" lon="12.197297047823668">
        <ele>2033.3299999999999</ele>
        <time>2014-03-07T11:17:26Z</time>
      </trkpt>
      <trkpt lat="46.88799980096519" lon="12.197300819680095">
        <ele>2033.8099999999999</ele>
        <time>2014-03-07T11:17:56Z</time>
      </trkpt>
      <trkpt lat="46.888002650812268" lon="12.19729914329946">
        <ele>2033.3299999999999</ele>
        <time>2014-03-07T11:18:31Z</time>
      </trkpt>
      <trkpt lat="46.888018157333136" lon="12.197288498282433">
        <ele>2033.3299999999999</ele>
        <time>2014-03-07T11:19:03Z</time>
      </trkpt>
      <trkpt lat="46.888011954724789" lon="12.197303669527173">
        <ele>2033.3299999999999</ele>
        <time>2014-03-07T11:19:37Z</time>
      </trkpt>
      <trkpt lat="46.888003069907427" lon="12.197301490232348">
        <ele>2033.3299999999999</ele>
        <time>2014-03-07T11:20:14Z</time>
      </trkpt>
      <trkpt lat="46.888017654418945" lon="12.197290426120162">
        <ele>2032.8399999999999</ele>
        <time>2014-03-07T11:20:39Z</time>
      </trkpt>
      <trkpt lat="46.888045649975538" lon="12.197313392534852">
        <ele>2032.8399999999999</ele>
        <time>2014-03-07T11:20:57Z</time>
      </trkpt>
      <trkpt lat="46.888057552278042" lon="12.197329988703132">
        <ele>2033.3299999999999</ele>
        <time>2014-03-07T11:21:17Z</time>
      </trkpt>
      <trkpt lat="46.888051349669695" lon="12.197325713932514">
        <ele>2032.8399999999999</ele>
        <time>2014-03-07T11:21:51Z</time>
      </trkpt>
      <trkpt lat="46.888044979423285" lon="12.197321858257055">
        <ele>2032.8399999999999</ele>
        <time>2014-03-07T11:22:19Z</time>
      </trkpt>
      <trkpt lat="46.888031903654337" lon="12.197319092229009">
        <ele>2033.3299999999999</ele>
        <time>2014-03-07T11:22:41Z</time>
      </trkpt>
      <trkpt lat="46.888030646368861" lon="12.197341555729508">
        <ele>2032.8399999999999</ele>
        <time>2014-03-07T11:23:11Z</time>
      </trkpt>
      <trkpt lat="46.888046320527792" lon="12.197325881570578">
        <ele>2034.29</ele>
        <time>2014-03-07T11:23:33Z</time>
      </trkpt>
      <trkpt lat="46.888030730187893" lon="12.197332587093115">
        <ele>2033.3299999999999</ele>
        <time>2014-03-07T11:23:59Z</time>
      </trkpt>
      <trkpt lat="46.888010445982218" lon="12.19733526930213">
        <ele>2033.3299999999999</ele>
        <time>2014-03-07T11:24:37Z</time>
      </trkpt>
      <trkpt lat="46.888019163161516" lon="12.19729620963335">
        <ele>2033.3299999999999</ele>
        <time>2014-03-07T11:25:04Z</time>
      </trkpt>
      <trkpt lat="46.888004913926125" lon="12.197343818843365">
        <ele>2033.8099999999999</ele>
        <time>2014-03-07T11:25:44Z</time>
      </trkpt>
      <trkpt lat="46.887991754338145" lon="12.197320517152548">
        <ele>2032.8399999999999</ele>
        <time>2014-03-07T11:26:11Z</time>
      </trkpt>
      <trkpt lat="46.888043470680714" lon="12.197285396978259">
        <ele>2033.3299999999999</ele>
        <time>2014-03-07T11:26:45Z</time>
      </trkpt>
      <trkpt lat="46.888031316921115" lon="12.197313811630011">
        <ele>2032.3599999999999</ele>
        <time>2014-03-07T11:27:05Z</time>
      </trkpt>
      <trkpt lat="46.888034669682384" lon="12.197317834943533">
        <ele>2032.3599999999999</ele>
        <time>2014-03-07T11:27:24Z</time>
      </trkpt>
      <trkpt lat="46.888036597520113" lon="12.197296125814319">
        <ele>2033.8099999999999</ele>
        <time>2014-03-07T11:27:33Z</time>
      </trkpt>
      <trkpt lat="46.888027293607593" lon="12.197302663698792">
        <ele>2033.3299999999999</ele>
        <time>2014-03-07T11:27:58Z</time>
      </trkpt>
      <trkpt lat="46.888026036322117" lon="12.197276428341866">
        <ele>2033.3299999999999</ele>
        <time>2014-03-07T11:28:26Z</time>
      </trkpt>
      <trkpt lat="46.888044141232967" lon="12.19734943471849">
        <ele>2033.8099999999999</ele>
        <time>2014-03-07T11:28:40Z</time>
      </trkpt>
      <trkpt lat="46.888050176203251" lon="12.197401653975248">
        <ele>2036.21</ele>
        <time>2014-03-07T11:28:53Z</time>
      </trkpt>
      <trkpt lat="46.888044811785221" lon="12.197451023384929">
        <ele>2036.21</ele>
        <time>2014-03-07T11:29:08Z</time>
      </trkpt>
      <trkpt lat="46.888015223667026" lon="12.197517156600952">
        <ele>2039.0899999999999</ele>
        <time>2014-03-07T11:29:22Z</time>
      </trkpt>
      <trkpt lat="46.888014301657677" lon="12.197602400556207">
        <ele>2040.05</ele>
        <time>2014-03-07T11:29:34Z</time>
      </trkpt>
      <trkpt lat="46.888015391305089" lon="12.197622684761882">
        <ele>2040.54</ele>
        <time>2014-03-07T11:29:37Z</time>
      </trkpt>
      <trkpt lat="46.88799443654716" lon="12.197672640904784">
        <ele>2041.98</ele>
        <time>2014-03-07T11:29:51Z</time>
      </trkpt>
      <trkpt lat="46.888049505650997" lon="12.197681106626987">
        <ele>2043.9000000000001</ele>
        <time>2014-03-07T11:30:03Z</time>
      </trkpt>
      <trkpt lat="46.888108178973198" lon="12.197706000879407">
        <ele>2046.3</ele>
        <time>2014-03-07T11:30:17Z</time>
      </trkpt>
      <trkpt lat="46.888114716857672" lon="12.197826700285077">
        <ele>2048.71</ele>
        <time>2014-03-07T11:30:30Z</time>
      </trkpt>
      <trkpt lat="46.88809116370976" lon="12.19795142300427">
        <ele>2050.6300000000001</ele>
        <time>2014-03-07T11:30:44Z</time>
      </trkpt>
      <trkpt lat="46.888041542842984" lon="12.198101039975882">
        <ele>2053.0300000000002</ele>
        <time>2014-03-07T11:31:03Z</time>
      </trkpt>
      <trkpt lat="46.888004913926125" lon="12.198218638077378">
        <ele>2053.9899999999998</ele>
        <time>2014-03-07T11:31:15Z</time>
      </trkpt>
      <trkpt lat="46.887942720204592" lon="12.198407649993896">
        <ele>2055.4400000000001</ele>
        <time>2014-03-07T11:31:31Z</time>
      </trkpt>
      <trkpt lat="46.887882789596915" lon="12.198561960831285">
        <ele>2057.3600000000001</ele>
        <time>2014-03-07T11:31:46Z</time>
      </trkpt>
      <trkpt lat="46.887824870646" lon="12.198691377416253">
        <ele>2059.7600000000002</ele>
        <time>2014-03-07T11:32:00Z</time>
      </trkpt>
      <trkpt lat="46.887771226465702" lon="12.198777543380857">
        <ele>2061.6799999999998</ele>
        <time>2014-03-07T11:32:13Z</time>
      </trkpt>
      <trkpt lat="46.887705344706774" lon="12.198881478980184">
        <ele>2064.0900000000001</ele>
        <time>2014-03-07T11:32:29Z</time>
      </trkpt>
      <trkpt lat="46.887628398835659" lon="12.199013913050294">
        <ele>2064.5700000000002</ele>
        <time>2014-03-07T11:32:45Z</time>
      </trkpt>
      <trkpt lat="46.887623118236661" lon="12.199050039052963">
        <ele>2065.0500000000002</ele>
        <time>2014-03-07T11:32:49Z</time>
      </trkpt>
      <trkpt lat="46.887613730505109" lon="12.19920133240521">
        <ele>2066.4899999999998</ele>
        <time>2014-03-07T11:33:02Z</time>
      </trkpt>
      <trkpt lat="46.887582298368216" lon="12.199281379580498">
        <ele>2066.9699999999998</ele>
        <time>2014-03-07T11:33:13Z</time>
      </trkpt>
      <trkpt lat="46.88756637275219" lon="12.199259670451283">
        <ele>2066.9699999999998</ele>
        <time>2014-03-07T11:33:35Z</time>
      </trkpt>
      <trkpt lat="46.887557152658701" lon="12.19928196631372">
        <ele>2066.4899999999998</ele>
        <time>2014-03-07T11:33:54Z</time>
      </trkpt>
      <trkpt lat="46.887578275054693" lon="12.19921306706965">
        <ele>2066.4899999999998</ele>
        <time>2014-03-07T11:34:05Z</time>
      </trkpt>
      <trkpt lat="46.88758933916688" lon="12.199106784537435">
        <ele>2065.0500000000002</ele>
        <time>2014-03-07T11:34:14Z</time>
      </trkpt>
      <trkpt lat="46.887533767148852" lon="12.198984241113067">
        <ele>2064.0900000000001</ele>
        <time>2014-03-07T11:34:24Z</time>
      </trkpt>
      <trkpt lat="46.887472160160542" lon="12.198964124545455">
        <ele>2064.5700000000002</ele>
        <time>2014-03-07T11:34:31Z</time>
      </trkpt>
      <trkpt lat="46.887380881235003" lon="12.199088344350457">
        <ele>2067.4499999999998</ele>
        <time>2014-03-07T11:34:48Z</time>
      </trkpt>
      <trkpt lat="46.887355903163552" lon="12.199250953271985">
        <ele>2070.3400000000001</ele>
        <time>2014-03-07T11:35:03Z</time>
      </trkpt>
      <trkpt lat="46.887352131307125" lon="12.199416579678655">
        <ele>2072.2600000000002</ele>
        <time>2014-03-07T11:35:20Z</time>
      </trkpt>
      <trkpt lat="46.887356070801616" lon="12.199440049007535">
        <ele>2072.7399999999998</ele>
        <time>2014-03-07T11:35:22Z</time>
      </trkpt>
      <trkpt lat="46.8873983155936" lon="12.199513893574476">
        <ele>2072.7399999999998</ele>
        <time>2014-03-07T11:35:32Z</time>
      </trkpt>
      <trkpt lat="46.887454558163881" lon="12.199570303782821">
        <ele>2071.7800000000002</ele>
        <time>2014-03-07T11:35:47Z</time>
      </trkpt>
      <trkpt lat="46.887446260079741" lon="12.199572147801518">
        <ele>2072.2600000000002</ele>
        <time>2014-03-07T11:36:07Z</time>
      </trkpt>
      <trkpt lat="46.887447098270059" lon="12.199543565511703">
        <ele>2071.7800000000002</ele>
        <time>2014-03-07T11:36:25Z</time>
      </trkpt>
      <trkpt lat="46.887447265908122" lon="12.199540548026562">
        <ele>2072.2600000000002</ele>
        <time>2014-03-07T11:36:27Z</time>
      </trkpt>
      <trkpt lat="46.887449026107788" lon="12.199527639895678">
        <ele>2072.2600000000002</ele>
        <time>2014-03-07T11:36:49Z</time>
      </trkpt>
      <trkpt lat="46.887431424111128" lon="12.199542140588164">
        <ele>2071.7800000000002</ele>
        <time>2014-03-07T11:37:11Z</time>
      </trkpt>
      <trkpt lat="46.887416001409292" lon="12.199550606310368">
        <ele>2070.8200000000002</ele>
        <time>2014-03-07T11:37:27Z</time>
      </trkpt>
      <trkpt lat="46.887435112148523" lon="12.199515737593174">
        <ele>2071.7800000000002</ele>
        <time>2014-03-07T11:37:37Z</time>
      </trkpt>
      <trkpt lat="46.887421952560544" lon="12.199545912444592">
        <ele>2072.7399999999998</ele>
        <time>2014-03-07T11:37:46Z</time>
      </trkpt>
      <trkpt lat="46.887407703325152" lon="12.199579104781151">
        <ele>2072.2600000000002</ele>
        <time>2014-03-07T11:37:48Z</time>
      </trkpt>
      <trkpt lat="46.887329081073403" lon="12.199652781710029">
        <ele>2071.7800000000002</ele>
        <time>2014-03-07T11:38:01Z</time>
      </trkpt>
      <trkpt lat="46.887329583987594" lon="12.199677005410194">
        <ele>2071.3000000000002</ele>
        <time>2014-03-07T11:38:03Z</time>
      </trkpt>
      <trkpt lat="46.887316424399614" lon="12.199878171086311">
        <ele>2070.3400000000001</ele>
        <time>2014-03-07T11:38:19Z</time>
      </trkpt>
      <trkpt lat="46.887309718877077" lon="12.199936844408512">
        <ele>2069.8600000000001</ele>
        <time>2014-03-07T11:38:23Z</time>
      </trkpt>
      <trkpt lat="46.887311898171902" lon="12.199933407828212">
        <ele>2069.3800000000001</ele>
        <time>2014-03-07T11:38:38Z</time>
      </trkpt>
      <trkpt lat="46.887297229841352" lon="12.199974143877625">
        <ele>2069.3800000000001</ele>
        <time>2014-03-07T11:39:02Z</time>
      </trkpt>
      <trkpt lat="46.887252470478415" lon="12.199995014816523">
        <ele>2068.8899999999999</ele>
        <time>2014-03-07T11:39:20Z</time>
      </trkpt>
      <trkpt lat="46.887267557904124" lon="12.199979340657592">
        <ele>2068.4099999999999</ele>
        <time>2014-03-07T11:39:43Z</time>
      </trkpt>
      <trkpt lat="46.88727518543601" lon="12.19998219050467">
        <ele>2068.8899999999999</ele>
        <time>2014-03-07T11:40:04Z</time>
      </trkpt>
      <trkpt lat="46.887281471863389" lon="12.199978502467275">
        <ele>2068.4099999999999</ele>
        <time>2014-03-07T11:40:24Z</time>
      </trkpt>
      <trkpt lat="46.887297816574574" lon="12.199977161362767">
        <ele>2068.4099999999999</ele>
        <time>2014-03-07T11:40:39Z</time>
      </trkpt>
      <trkpt lat="46.88726831227541" lon="12.199950758367777">
        <ele>2067.9299999999998</ele>
        <time>2014-03-07T11:40:57Z</time>
      </trkpt>
      <trkpt lat="46.887260265648365" lon="12.199964756146073">
        <ele>2068.4099999999999</ele>
        <time>2014-03-07T11:41:19Z</time>
      </trkpt>
      <trkpt lat="46.887275688350201" lon="12.199983280152082">
        <ele>2067.4499999999998</ele>
        <time>2014-03-07T11:41:43Z</time>
      </trkpt>
      <trkpt lat="46.8872722517699" lon="12.199967605993152">
        <ele>2067.9299999999998</ele>
        <time>2014-03-07T11:41:59Z</time>
      </trkpt>
      <trkpt lat="46.887262109667063" lon="12.19996802508831">
        <ele>2067.9299999999998</ele>
        <time>2014-03-07T11:42:22Z</time>
      </trkpt>
      <trkpt lat="46.887268982827663" lon="12.199975904077291">
        <ele>2067.9299999999998</ele>
        <time>2014-03-07T11:42:36Z</time>
      </trkpt>
      <trkpt lat="46.887271665036678" lon="12.199972216039896">
        <ele>2068.4099999999999</ele>
        <time>2014-03-07T11:42:52Z</time>
      </trkpt>
      <trkpt lat="46.887276023626328" lon="12.199963331222534">
        <ele>2068.4099999999999</ele>
        <time>2014-03-07T11:43:11Z</time>
      </trkpt>
      <trkpt lat="46.887263786047697" lon="12.199999373406172">
        <ele>2067.9299999999998</ele>
        <time>2014-03-07T11:43:32Z</time>
      </trkpt>
      <trkpt lat="46.887276023626328" lon="12.199986129999161">
        <ele>2067.9299999999998</ele>
        <time>2014-03-07T11:43:51Z</time>
      </trkpt>
      <trkpt lat="46.887266719713807" lon="12.200092915445566">
        <ele>2067.4499999999998</ele>
        <time>2014-03-07T11:44:09Z</time>
      </trkpt>
      <trkpt lat="46.887259092181921" lon="12.20019768923521">
        <ele>2066.9699999999998</ele>
        <time>2014-03-07T11:44:21Z</time>
      </trkpt>
      <trkpt lat="46.887251548469067" lon="12.200213195756078">
        <ele>2066.4899999999998</ele>
        <time>2014-03-07T11:44:28Z</time>
      </trkpt>
      <trkpt lat="46.887149456888437" lon="12.200376642867923">
        <ele>2066.9699999999998</ele>
        <time>2014-03-07T11:44:44Z</time>
      </trkpt>
      <trkpt lat="46.887048287317157" lon="12.200429700314999">
        <ele>2069.8600000000001</ele>
        <time>2014-03-07T11:44:59Z</time>
      </trkpt>
      <trkpt lat="46.886926498264074" lon="12.200528355315328">
        <ele>2071.7800000000002</ele>
        <time>2014-03-07T11:45:17Z</time>
      </trkpt>
      <trkpt lat="46.886814767494798" lon="12.200607983395457">
        <ele>2073.2199999999998</ele>
        <time>2014-03-07T11:45:32Z</time>
      </trkpt>
      <trkpt lat="46.886695828288794" lon="12.200722396373749">
        <ele>2074.1799999999998</ele>
        <time>2014-03-07T11:45:49Z</time>
      </trkpt>
      <trkpt lat="46.886651907116175" lon="12.200787356123328">
        <ele>2075.1399999999999</ele>
        <time>2014-03-07T11:45:58Z</time>
      </trkpt>
      <trkpt lat="46.886616284027696" lon="12.20082264393568">
        <ele>2075.6199999999999</ele>
        <time>2014-03-07T11:46:11Z</time>
      </trkpt>
      <trkpt lat="46.886610416695476" lon="12.200889615342021">
        <ele>2075.6199999999999</ele>
        <time>2014-03-07T11:46:18Z</time>
      </trkpt>
      <trkpt lat="46.886618630960584" lon="12.201046189293265">
        <ele>2076.0999999999999</ele>
        <time>2014-03-07T11:46:29Z</time>
      </trkpt>
      <trkpt lat="46.886623743921518" lon="12.201112909242511">
        <ele>2076.5900000000001</ele>
        <time>2014-03-07T11:46:35Z</time>
      </trkpt>
      <trkpt lat="46.886608488857746" lon="12.201309716328979">
        <ele>2078.0300000000002</ele>
        <time>2014-03-07T11:46:50Z</time>
      </trkpt>
      <trkpt lat="46.886618798598647" lon="12.201417004689574">
        <ele>2079.9499999999998</ele>
        <time>2014-03-07T11:47:04Z</time>
      </trkpt>
      <trkpt lat="46.886617206037045" lon="12.201559999957681">
        <ele>2082.3499999999999</ele>
        <time>2014-03-07T11:47:19Z</time>
      </trkpt>
      <trkpt lat="46.886605136096478" lon="12.201633593067527">
        <ele>2083.3099999999999</ele>
        <time>2014-03-07T11:47:34Z</time>
      </trkpt>
      <trkpt lat="46.886607147753239" lon="12.201791759580374">
        <ele>2086.1999999999998</ele>
        <time>2014-03-07T11:47:51Z</time>
      </trkpt>
      <trkpt lat="46.886616200208664" lon="12.201942047104239">
        <ele>2088.5999999999999</ele>
        <time>2014-03-07T11:48:08Z</time>
      </trkpt>
      <trkpt lat="46.886633299291134" lon="12.202054113149643">
        <ele>2091</ele>
        <time>2014-03-07T11:48:24Z</time>
      </trkpt>
      <trkpt lat="46.886640759184957" lon="12.202149834483862">
        <ele>2092.9299999999998</ele>
        <time>2014-03-07T11:48:39Z</time>
      </trkpt>
      <trkpt lat="46.886646458879113" lon="12.202237425372005">
        <ele>2094.8499999999999</ele>
        <time>2014-03-07T11:48:48Z</time>
      </trkpt>
      <trkpt lat="46.886675795540214" lon="12.202323507517576">
        <ele>2097.25</ele>
        <time>2014-03-07T11:49:00Z</time>
      </trkpt>
      <trkpt lat="46.886673867702484" lon="12.202503215521574">
        <ele>2100.1399999999999</ele>
        <time>2014-03-07T11:49:18Z</time>
      </trkpt>
      <trkpt lat="46.886691972613335" lon="12.202607654035091">
        <ele>2101.5799999999999</ele>
        <time>2014-03-07T11:49:32Z</time>
      </trkpt>
      <trkpt lat="46.886662300676107" lon="12.202762719243765">
        <ele>2104.46</ele>
        <time>2014-03-07T11:49:51Z</time>
      </trkpt>
      <trkpt lat="46.886567920446396" lon="12.202710332348943">
        <ele>2106.8699999999999</ele>
        <time>2014-03-07T11:50:05Z</time>
      </trkpt>
      <trkpt lat="46.886560544371605" lon="12.202714271843433">
        <ele>2108.79</ele>
        <time>2014-03-07T11:50:21Z</time>
      </trkpt>
      <trkpt lat="46.886482089757919" lon="12.202675631269813">
        <ele>2110.23</ele>
        <time>2014-03-07T11:50:35Z</time>
      </trkpt>
      <trkpt lat="46.886358624324203" lon="12.202624585479498">
        <ele>2113.1199999999999</ele>
        <time>2014-03-07T11:50:53Z</time>
      </trkpt>
      <trkpt lat="46.886333394795656" lon="12.202623663470149">
        <ele>2113.5999999999999</ele>
        <time>2014-03-07T11:51:10Z</time>
      </trkpt>
      <trkpt lat="46.886335071176291" lon="12.202613521367311">
        <ele>2114.0799999999999</ele>
        <time>2014-03-07T11:51:31Z</time>
      </trkpt>
      <trkpt lat="46.886359881609678" lon="12.202578401193023">
        <ele>2113.5999999999999</ele>
        <time>2014-03-07T11:51:54Z</time>
      </trkpt>
      <trkpt lat="46.886359294876456" lon="12.202568762004375">
        <ele>2114.0799999999999</ele>
        <time>2014-03-07T11:52:14Z</time>
      </trkpt>
      <trkpt lat="46.886349404230714" lon="12.202571108937263">
        <ele>2114.0799999999999</ele>
        <time>2014-03-07T11:52:29Z</time>
      </trkpt>
      <trkpt lat="46.886338340118527" lon="12.202605977654457">
        <ele>2114.0799999999999</ele>
        <time>2014-03-07T11:52:50Z</time>
      </trkpt>
      <trkpt lat="46.88634529709816" lon="12.20263053663075">
        <ele>2114.0799999999999</ele>
        <time>2014-03-07T11:53:08Z</time>
      </trkpt>
      <trkpt lat="46.886343955993652" lon="12.202612766996026">
        <ele>2114.0799999999999</ele>
        <time>2014-03-07T11:53:24Z</time>
      </trkpt>
      <trkpt lat="46.886351834982634" lon="12.20261343754828">
        <ele>2114.0799999999999</ele>
        <time>2014-03-07T11:53:45Z</time>
      </trkpt>
      <trkpt lat="46.886336831375957" lon="12.202613605186343">
        <ele>2114.0799999999999</ele>
        <time>2014-03-07T11:53:59Z</time>
      </trkpt>
      <trkpt lat="46.886332305148244" lon="12.202590638771653">
        <ele>2114.0799999999999</ele>
        <time>2014-03-07T11:54:24Z</time>
      </trkpt>
      <trkpt lat="46.886263489723206" lon="12.202620394527912">
        <ele>2115.52</ele>
        <time>2014-03-07T11:54:37Z</time>
      </trkpt>
      <trkpt lat="46.88624169677496" lon="12.202614108100533">
        <ele>2115.52</ele>
        <time>2014-03-07T11:54:46Z</time>
      </trkpt>
      <trkpt lat="46.88608537428081" lon="12.202673871070147">
        <ele>2116</ele>
        <time>2014-03-07T11:55:03Z</time>
      </trkpt>
      <trkpt lat="46.886037597432733" lon="12.20268040895462">
        <ele>2116.96</ele>
        <time>2014-03-07T11:55:08Z</time>
      </trkpt>
      <trkpt lat="46.885978253558278" lon="12.202698849141598">
        <ele>2116.96</ele>
        <time>2014-03-07T11:55:20Z</time>
      </trkpt>
      <trkpt lat="46.885832073166966" lon="12.202710583806038">
        <ele>2113.5999999999999</ele>
        <time>2014-03-07T11:55:34Z</time>
      </trkpt>
      <trkpt lat="46.885719504207373" lon="12.202707817777991">
        <ele>2115.04</ele>
        <time>2014-03-07T11:55:47Z</time>
      </trkpt>
      <trkpt lat="46.885617580264807" lon="12.202719133347273">
        <ele>2117.9200000000001</ele>
        <time>2014-03-07T11:56:02Z</time>
      </trkpt>
      <trkpt lat="46.885495958849788" lon="12.202744949609041">
        <ele>2119.3600000000001</ele>
        <time>2014-03-07T11:56:18Z</time>
      </trkpt>
      <trkpt lat="46.88545161858201" lon="12.202723324298859">
        <ele>2120.8099999999999</ele>
        <time>2014-03-07T11:56:25Z</time>
      </trkpt>
      <trkpt lat="46.88535438850522" lon="12.202640846371651">
        <ele>2122.73</ele>
        <time>2014-03-07T11:56:43Z</time>
      </trkpt>
      <trkpt lat="46.885232431814075" lon="12.202524421736598">
        <ele>2123.21</ele>
        <time>2014-03-07T11:56:59Z</time>
      </trkpt>
      <trkpt lat="46.885159760713577" lon="12.202533725649118">
        <ele>2124.6500000000001</ele>
        <time>2014-03-07T11:57:11Z</time>
      </trkpt>
      <trkpt lat="46.885033529251814" lon="12.202505646273494">
        <ele>2126.5700000000002</ele>
        <time>2014-03-07T11:57:27Z</time>
      </trkpt>
      <trkpt lat="46.88501039519906" lon="12.202503802254796">
        <ele>2127.5300000000002</ele>
        <time>2014-03-07T11:57:41Z</time>
      </trkpt>
      <trkpt lat="46.884966557845473" lon="12.202479410916567">
        <ele>2128.02</ele>
        <time>2014-03-07T11:57:58Z</time>
      </trkpt>
      <trkpt lat="46.884842254221439" lon="12.202472537755966">
        <ele>2129.46</ele>
        <time>2014-03-07T11:58:12Z</time>
      </trkpt>
      <trkpt lat="46.884715016931295" lon="12.202461641281843">
        <ele>2131.3800000000001</ele>
        <time>2014-03-07T11:58:26Z</time>
      </trkpt>
      <trkpt lat="46.884613763540983" lon="12.202443117275834">
        <ele>2133.3000000000002</ele>
        <time>2014-03-07T11:58:40Z</time>
      </trkpt>
      <trkpt lat="46.884497674182057" lon="12.202426688745618">
        <ele>2135.71</ele>
        <time>2014-03-07T11:58:54Z</time>
      </trkpt>
      <trkpt lat="46.884334059432149" lon="12.202370446175337">
        <ele>2137.6300000000001</ele>
        <time>2014-03-07T11:59:13Z</time>
      </trkpt>
      <trkpt lat="46.884209252893925" lon="12.20227581448853">
        <ele>2138.1100000000001</ele>
        <time>2014-03-07T11:59:29Z</time>
      </trkpt>
      <trkpt lat="46.884155860170722" lon="12.202220158651471">
        <ele>2139.0700000000002</ele>
        <time>2014-03-07T11:59:43Z</time>
      </trkpt>
      <trkpt lat="46.884130630642176" lon="12.202230552211404">
        <ele>2138.5900000000001</ele>
        <time>2014-03-07T12:00:10Z</time>
      </trkpt>
      <trkpt lat="46.884045135229826" lon="12.202169951051474">
        <ele>2139.5500000000002</ele>
        <time>2014-03-07T12:00:24Z</time>
      </trkpt>
      <trkpt lat="46.884003644809127" lon="12.202150421217084">
        <ele>2139.5500000000002</ele>
        <time>2014-03-07T12:00:44Z</time>
      </trkpt>
      <trkpt lat="46.883951425552368" lon="12.202129885554314">
        <ele>2139.5500000000002</ele>
        <time>2014-03-07T12:00:49Z</time>
      </trkpt>
      <trkpt lat="46.883823769167066" lon="12.202099459245801">
        <ele>2139.0700000000002</ele>
        <time>2014-03-07T12:01:03Z</time>
      </trkpt>
      <trkpt lat="46.883700974285603" lon="12.202050089836121">
        <ele>2139.0700000000002</ele>
        <time>2014-03-07T12:01:17Z</time>
      </trkpt>
      <trkpt lat="46.883594775572419" lon="12.202019579708576">
        <ele>2139.5500000000002</ele>
        <time>2014-03-07T12:01:30Z</time>
      </trkpt>
      <trkpt lat="46.883464436978102" lon="12.201999379321933">
        <ele>2140.0300000000002</ele>
        <time>2014-03-07T12:01:44Z</time>
      </trkpt>
      <trkpt lat="46.883409870788455" lon="12.201965097337961">
        <ele>2140.5100000000002</ele>
        <time>2014-03-07T12:01:53Z</time>
      </trkpt>
      <trkpt lat="46.883310126140714" lon="12.201956799253821">
        <ele>2140.9899999999998</ele>
        <time>2014-03-07T12:02:08Z</time>
      </trkpt>
      <trkpt lat="46.883295373991132" lon="12.201945064589381">
        <ele>2140.9899999999998</ele>
        <time>2014-03-07T12:02:22Z</time>
      </trkpt>
      <trkpt lat="46.883240472525358" lon="12.20198848284781">
        <ele>2142.4400000000001</ele>
        <time>2014-03-07T12:02:40Z</time>
      </trkpt>
      <trkpt lat="46.883140308782458" lon="12.202036762610078">
        <ele>2145.3200000000002</ele>
        <time>2014-03-07T12:02:55Z</time>
      </trkpt>
      <trkpt lat="46.883013155311346" lon="12.202074900269508">
        <ele>2147.7199999999998</ele>
        <time>2014-03-07T12:03:11Z</time>
      </trkpt>
      <trkpt lat="46.882909471169114" lon="12.20214874483645">
        <ele>2149.6500000000001</ele>
        <time>2014-03-07T12:03:26Z</time>
      </trkpt>
      <trkpt lat="46.882861275225878" lon="12.202197108417749">
        <ele>2153.0100000000002</ele>
        <time>2014-03-07T12:03:40Z</time>
      </trkpt>
      <trkpt lat="46.882838727906346" lon="12.202262403443456">
        <ele>2156.3699999999999</ele>
        <time>2014-03-07T12:03:56Z</time>
      </trkpt>
      <trkpt lat="46.882804529741406" lon="12.202226025983691">
        <ele>2157.8200000000002</ele>
        <time>2014-03-07T12:04:11Z</time>
      </trkpt>
      <trkpt lat="46.882720207795501" lon="12.202260978519917">
        <ele>2160.2199999999998</ele>
        <time>2014-03-07T12:04:27Z</time>
      </trkpt>
      <trkpt lat="46.882700594142079" lon="12.202269276604056">
        <ele>2162.6199999999999</ele>
        <time>2014-03-07T12:04:45Z</time>
      </trkpt>
      <trkpt lat="46.882707802578807" lon="12.202239185571671">
        <ele>2163.0999999999999</ele>
        <time>2014-03-07T12:05:11Z</time>
      </trkpt>
      <trkpt lat="46.882624151185155" lon="12.202195264399052">
        <ele>2164.5500000000002</ele>
        <time>2014-03-07T12:05:24Z</time>
      </trkpt>
      <trkpt lat="46.882563633844256" lon="12.202202556654811">
        <ele>2165.5100000000002</ele>
        <time>2014-03-07T12:05:39Z</time>
      </trkpt>
      <trkpt lat="46.882540164515376" lon="12.202260894700885">
        <ele>2167.9099999999999</ele>
        <time>2014-03-07T12:05:45Z</time>
      </trkpt>
      <trkpt lat="46.882485598325729" lon="12.202370697632432">
        <ele>2170.79</ele>
        <time>2014-03-07T12:06:01Z</time>
      </trkpt>
      <trkpt lat="46.882443772628903" lon="12.202426604926586">
        <ele>2174.1599999999999</ele>
        <time>2014-03-07T12:06:13Z</time>
      </trkpt>
      <trkpt lat="46.882404712960124" lon="12.202485613524914">
        <ele>2177.04</ele>
        <time>2014-03-07T12:06:27Z</time>
      </trkpt>
      <trkpt lat="46.882319469004869" lon="12.202549148350954">
        <ele>2179.9299999999998</ele>
        <time>2014-03-07T12:06:44Z</time>
      </trkpt>
      <trkpt lat="46.882239505648613" lon="12.202644785866141">
        <ele>2182.3299999999999</ele>
        <time>2014-03-07T12:06:59Z</time>
      </trkpt>
      <trkpt lat="46.882123164832592" lon="12.202649060636759">
        <ele>2184.25</ele>
        <time>2014-03-07T12:07:17Z</time>
      </trkpt>
      <trkpt lat="46.882035322487354" lon="12.202656520530581">
        <ele>2187.6199999999999</ele>
        <time>2014-03-07T12:07:34Z</time>
      </trkpt>
      <trkpt lat="46.882027024403214" lon="12.202656017616391">
        <ele>2187.6199999999999</ele>
        <time>2014-03-07T12:07:35Z</time>
      </trkpt>
      <trkpt lat="46.882012858986855" lon="12.202619975432754">
        <ele>2188.0999999999999</ele>
        <time>2014-03-07T12:07:44Z</time>
      </trkpt>
      <trkpt lat="46.882012020796537" lon="12.202610168606043">
        <ele>2187.6199999999999</ele>
        <time>2014-03-07T12:08:02Z</time>
      </trkpt>
      <trkpt lat="46.88203314319253" lon="12.202621148899198">
        <ele>2187.1399999999999</ele>
        <time>2014-03-07T12:08:25Z</time>
      </trkpt>
      <trkpt lat="46.882025264203548" lon="12.202610000967979">
        <ele>2187.6199999999999</ele>
        <time>2014-03-07T12:08:43Z</time>
      </trkpt>
      <trkpt lat="46.882022330537438" lon="12.202620897442102">
        <ele>2188.0999999999999</ele>
        <time>2014-03-07T12:09:02Z</time>
      </trkpt>
      <trkpt lat="46.882050661370158" lon="12.20256800763309">
        <ele>2188.0999999999999</ele>
        <time>2014-03-07T12:09:28Z</time>
      </trkpt>
      <trkpt lat="46.882030460983515" lon="12.202585777267814">
        <ele>2187.1399999999999</ele>
        <time>2014-03-07T12:09:51Z</time>
      </trkpt>
      <trkpt lat="46.882007494568825" lon="12.202581837773323">
        <ele>2187.6199999999999</ele>
        <time>2014-03-07T12:10:06Z</time>
      </trkpt>
      <trkpt lat="46.881999364122748" lon="12.202600026503205">
        <ele>2186.6599999999999</ele>
        <time>2014-03-07T12:10:35Z</time>
      </trkpt>
      <trkpt lat="46.882030377164483" lon="12.202612766996026">
        <ele>2188.0999999999999</ele>
        <time>2014-03-07T12:10:58Z</time>
      </trkpt>
      <trkpt lat="46.882017552852631" lon="12.202607486397028">
        <ele>2188.0999999999999</ele>
        <time>2014-03-07T12:11:14Z</time>
      </trkpt>
      <trkpt lat="46.882015122100711" lon="12.202585944905877">
        <ele>2188.0999999999999</ele>
        <time>2014-03-07T12:11:36Z</time>
      </trkpt>
      <trkpt lat="46.882011517882347" lon="12.202577646821737">
        <ele>2188.0999999999999</ele>
        <time>2014-03-07T12:11:56Z</time>
      </trkpt>
      <trkpt lat="46.882011014968157" lon="12.202585441991687">
        <ele>2188.0999999999999</ele>
        <time>2014-03-07T12:12:15Z</time>
      </trkpt>
      <trkpt lat="46.882006069645286" lon="12.202610252425075">
        <ele>2188.0999999999999</ele>
        <time>2014-03-07T12:12:46Z</time>
      </trkpt>
      <trkpt lat="46.882013697177172" lon="12.202627267688513">
        <ele>2188.0999999999999</ele>
        <time>2014-03-07T12:13:04Z</time>
      </trkpt>
      <trkpt lat="46.88196474686265" lon="12.202657107263803">
        <ele>2189.54</ele>
        <time>2014-03-07T12:13:13Z</time>
      </trkpt>
      <trkpt lat="46.881854860112071" lon="12.202709075063467">
        <ele>2190.98</ele>
        <time>2014-03-07T12:13:25Z</time>
      </trkpt>
      <trkpt lat="46.88176098279655" lon="12.202740171924233">
        <ele>2191.9400000000001</ele>
        <time>2014-03-07T12:13:35Z</time>
      </trkpt>
      <trkpt lat="46.881700213998556" lon="12.20274587161839">
        <ele>2193.8699999999999</ele>
        <time>2014-03-07T12:13:42Z</time>
      </trkpt>
      <trkpt lat="46.881586806848645" lon="12.202784596011043">
        <ele>2195.3099999999999</ele>
        <time>2014-03-07T12:13:55Z</time>
      </trkpt>
      <trkpt lat="46.881442721933126" lon="12.202853914350271">
        <ele>2196.27</ele>
        <time>2014-03-07T12:14:11Z</time>
      </trkpt>
      <trkpt lat="46.881314227357507" lon="12.202888028696179">
        <ele>2194.8299999999999</ele>
        <time>2014-03-07T12:14:25Z</time>
      </trkpt>
      <trkpt lat="46.881256392225623" lon="12.202830025926232">
        <ele>2194.8299999999999</ele>
        <time>2014-03-07T12:14:32Z</time>
      </trkpt>
      <trkpt lat="46.881141979247332" lon="12.202782584354281">
        <ele>2195.79</ele>
        <time>2014-03-07T12:14:45Z</time>
      </trkpt>
      <trkpt lat="46.881093280389905" lon="12.202744530513883">
        <ele>2197.23</ele>
        <time>2014-03-07T12:14:53Z</time>
      </trkpt>
      <trkpt lat="46.881002839654684" lon="12.202664986252785">
        <ele>2197.71</ele>
        <time>2014-03-07T12:15:05Z</time>
      </trkpt>
      <trkpt lat="46.880918852984905" lon="12.202558200806379">
        <ele>2199.1500000000001</ele>
        <time>2014-03-07T12:15:20Z</time>
      </trkpt>
      <trkpt lat="46.880846684798598" lon="12.202470945194364">
        <ele>2200.5900000000001</ele>
        <time>2014-03-07T12:15:35Z</time>
      </trkpt>
      <trkpt lat="46.880761608481407" lon="12.20239944756031">
        <ele>2202.52</ele>
        <time>2014-03-07T12:15:49Z</time>
      </trkpt>
      <trkpt lat="46.880690278485417" lon="12.202289728447795">
        <ele>2204.9200000000001</ele>
        <time>2014-03-07T12:16:05Z</time>
      </trkpt>
      <trkpt lat="46.880676951259375" lon="12.202149918302894">
        <ele>2207.3200000000002</ele>
        <time>2014-03-07T12:16:21Z</time>
      </trkpt>
      <trkpt lat="46.880601514130831" lon="12.202093759551644">
        <ele>2210.21</ele>
        <time>2014-03-07T12:16:37Z</time>
      </trkpt>
      <trkpt lat="46.880504367873073" lon="12.202050844207406">
        <ele>2212.6100000000001</ele>
        <time>2014-03-07T12:16:53Z</time>
      </trkpt>
      <trkpt lat="46.880405712872744" lon="12.202036175876856">
        <ele>2214.5300000000002</ele>
        <time>2014-03-07T12:17:10Z</time>
      </trkpt>
      <trkpt lat="46.880329940468073" lon="12.202021926641464">
        <ele>2217.9000000000001</ele>
        <time>2014-03-07T12:17:26Z</time>
      </trkpt>
      <trkpt lat="46.880287192761898" lon="12.202047072350979">
        <ele>2220.3000000000002</ele>
        <time>2014-03-07T12:17:41Z</time>
      </trkpt>
      <trkpt lat="46.880305549129844" lon="12.202047910541296">
        <ele>2218.3800000000001</ele>
        <time>2014-03-07T12:17:58Z</time>
      </trkpt>
      <trkpt lat="46.880294233560562" lon="12.202022848650813">
        <ele>2220.3000000000002</ele>
        <time>2014-03-07T12:18:20Z</time>
      </trkpt>
      <trkpt lat="46.880316697061062" lon="12.202026285231113">
        <ele>2219.3400000000001</ele>
        <time>2014-03-07T12:18:41Z</time>
      </trkpt>
      <trkpt lat="46.88028777949512" lon="12.20203148201108">
        <ele>2218.8600000000001</ele>
        <time>2014-03-07T12:19:02Z</time>
      </trkpt>
      <trkpt lat="46.880312757566571" lon="12.202016226947308">
        <ele>2218.8600000000001</ele>
        <time>2014-03-07T12:19:17Z</time>
      </trkpt>
      <trkpt lat="46.880308818072081" lon="12.202026201412082">
        <ele>2219.3400000000001</ele>
        <time>2014-03-07T12:19:33Z</time>
      </trkpt>
      <trkpt lat="46.880296999588609" lon="12.202022764831781">
        <ele>2218.8600000000001</ele>
        <time>2014-03-07T12:19:55Z</time>
      </trkpt>
      <trkpt lat="46.88029607757926" lon="12.202026955783367">
        <ele>2219.8200000000002</ele>
        <time>2014-03-07T12:20:15Z</time>
      </trkpt>
      <trkpt lat="46.880287360399961" lon="12.20204908400774">
        <ele>2219.8200000000002</ele>
        <time>2014-03-07T12:20:38Z</time>
      </trkpt>
      <trkpt lat="46.880300855264068" lon="12.202033745124936">
        <ele>2219.8200000000002</ele>
        <time>2014-03-07T12:20:53Z</time>
      </trkpt>
      <trkpt lat="46.880305297672749" lon="12.202043049037457">
        <ele>2219.8200000000002</ele>
        <time>2014-03-07T12:21:12Z</time>
      </trkpt>
      <trkpt lat="46.880314853042364" lon="12.202032152563334">
        <ele>2219.3400000000001</ele>
        <time>2014-03-07T12:21:30Z</time>
      </trkpt>
      <trkpt lat="46.880292054265738" lon="12.201984208077192">
        <ele>2217.9000000000001</ele>
        <time>2014-03-07T12:21:36Z</time>
      </trkpt>
      <trkpt lat="46.880285851657391" lon="12.201971132308245">
        <ele>2217.9000000000001</ele>
        <time>2014-03-07T12:21:37Z</time>
      </trkpt>
      <trkpt lat="46.88026431016624" lon="12.201853785663843">
        <ele>2218.3800000000001</ele>
        <time>2014-03-07T12:21:51Z</time>
      </trkpt>
      <trkpt lat="46.880275122821331" lon="12.201880188658834">
        <ele>2217.9000000000001</ele>
        <time>2014-03-07T12:22:16Z</time>
      </trkpt>
      <trkpt lat="46.880283923819661" lon="12.201876752078533">
        <ele>2217.9000000000001</ele>
        <time>2014-03-07T12:22:29Z</time>
      </trkpt>
      <trkpt lat="46.880298759788275" lon="12.201877506449819">
        <ele>2217.9000000000001</ele>
        <time>2014-03-07T12:22:57Z</time>
      </trkpt>
      <trkpt lat="46.880295323207974" lon="12.201899634674191">
        <ele>2218.8600000000001</ele>
        <time>2014-03-07T12:23:16Z</time>
      </trkpt>
      <trkpt lat="46.880300436168909" lon="12.201950093731284">
        <ele>2219.3400000000001</ele>
        <time>2014-03-07T12:23:34Z</time>
      </trkpt>
      <trkpt lat="46.880351817235351" lon="12.202014550566673">
        <ele>2218.8600000000001</ele>
        <time>2014-03-07T12:23:41Z</time>
      </trkpt>
      <trkpt lat="46.880320133641362" lon="12.202006671577692">
        <ele>2218.3800000000001</ele>
        <time>2014-03-07T12:23:56Z</time>
      </trkpt>
      <trkpt lat="46.880317367613316" lon="12.202004240825772">
        <ele>2218.3800000000001</ele>
        <time>2014-03-07T12:23:57Z</time>
      </trkpt>
      <trkpt lat="46.880304962396622" lon="12.201994936913252">
        <ele>2217.9000000000001</ele>
        <time>2014-03-07T12:24:08Z</time>
      </trkpt>
      <trkpt lat="46.880321558564901" lon="12.202004827558994">
        <ele>2218.8600000000001</ele>
        <time>2014-03-07T12:24:26Z</time>
      </trkpt>
      <trkpt lat="46.880337065085769" lon="12.202013377100229">
        <ele>2218.3800000000001</ele>
        <time>2014-03-07T12:24:52Z</time>
      </trkpt>
      <trkpt lat="46.880317786708474" lon="12.202012203633785">
        <ele>2217.9000000000001</ele>
        <time>2014-03-07T12:25:13Z</time>
      </trkpt>
      <trkpt lat="46.880354918539524" lon="12.202012622728944">
        <ele>2218.3800000000001</ele>
        <time>2014-03-07T12:25:32Z</time>
      </trkpt>
      <trkpt lat="46.880377298220992" lon="12.202012538909912">
        <ele>2218.3800000000001</ele>
        <time>2014-03-07T12:25:45Z</time>
      </trkpt>
      <trkpt lat="46.880392720922828" lon="12.201995607465506">
        <ele>2217.9000000000001</ele>
        <time>2014-03-07T12:25:47Z</time>
      </trkpt>
      <trkpt lat="46.880419291555882" lon="12.20199435018003">
        <ele>2216.46</ele>
        <time>2014-03-07T12:25:50Z</time>
      </trkpt>
      <trkpt lat="46.880469331517816" lon="12.202023016288877">
        <ele>2214.5300000000002</ele>
        <time>2014-03-07T12:25:56Z</time>
      </trkpt>
      <trkpt lat="46.880573015660048" lon="12.2020598128438">
        <ele>2211.6500000000001</ele>
        <time>2014-03-07T12:26:10Z</time>
      </trkpt>
      <trkpt lat="46.880642082542181" lon="12.202120833098888">
        <ele>2209.25</ele>
        <time>2014-03-07T12:26:20Z</time>
      </trkpt>
      <trkpt lat="46.880700252950191" lon="12.202241532504559">
        <ele>2205.8800000000001</ele>
        <time>2014-03-07T12:26:31Z</time>
      </trkpt>
      <trkpt lat="46.88070997595787" lon="12.202264247462153">
        <ele>2205.4000000000001</ele>
        <time>2014-03-07T12:26:33Z</time>
      </trkpt>
      <trkpt lat="46.880743252113461" lon="12.202371703460813">
        <ele>2202.04</ele>
        <time>2014-03-07T12:26:42Z</time>
      </trkpt>
      <trkpt lat="46.880748784169555" lon="12.202379498630762">
        <ele>2201.5599999999999</ele>
        <time>2014-03-07T12:26:43Z</time>
      </trkpt>
      <trkpt lat="46.88083159737289" lon="12.202476477250457">
        <ele>2199.1500000000001</ele>
        <time>2014-03-07T12:26:55Z</time>
      </trkpt>
      <trkpt lat="46.880924385040998" lon="12.202563062310219">
        <ele>2197.23</ele>
        <time>2014-03-07T12:27:08Z</time>
      </trkpt>
      <trkpt lat="46.881037289276719" lon="12.202682588249445">
        <ele>2196.27</ele>
        <time>2014-03-07T12:27:22Z</time>
      </trkpt>
      <trkpt lat="46.881115827709436" lon="12.202746542170644">
        <ele>2195.3099999999999</ele>
        <time>2014-03-07T12:27:34Z</time>
      </trkpt>
      <trkpt lat="46.881163604557514" lon="12.202779315412045">
        <ele>2193.8699999999999</ele>
        <time>2014-03-07T12:27:39Z</time>
      </trkpt>
      <trkpt lat="46.881251027807593" lon="12.202783422544599">
        <ele>2191.9400000000001</ele>
        <time>2014-03-07T12:27:52Z</time>
      </trkpt>
      <trkpt lat="46.881265193223953" lon="12.202788786962628">
        <ele>2192.4200000000001</ele>
        <time>2014-03-07T12:27:55Z</time>
      </trkpt>
      <trkpt lat="46.881284052506089" lon="12.20279959961772">
        <ele>2192.4200000000001</ele>
        <time>2014-03-07T12:27:58Z</time>
      </trkpt>
      <trkpt lat="46.881368961185217" lon="12.2028265055269">
        <ele>2193.3899999999999</ele>
        <time>2014-03-07T12:28:08Z</time>
      </trkpt>
      <trkpt lat="46.881414223462343" lon="12.202817872166634">
        <ele>2193.8699999999999</ele>
        <time>2014-03-07T12:28:14Z</time>
      </trkpt>
      <trkpt lat="46.88146392814815" lon="12.20279180444777">
        <ele>2194.3499999999999</ele>
        <time>2014-03-07T12:28:20Z</time>
      </trkpt>
      <trkpt lat="46.881594518199563" lon="12.202721145004034">
        <ele>2193.8699999999999</ele>
        <time>2014-03-07T12:28:35Z</time>
      </trkpt>
      <trkpt lat="46.88164128921926" lon="12.202714188024402">
        <ele>2192.9000000000001</ele>
        <time>2014-03-07T12:28:46Z</time>
      </trkpt>
      <trkpt lat="46.881653191521764" lon="12.202688958495855">
        <ele>2191.9400000000001</ele>
        <time>2014-03-07T12:28:58Z</time>
      </trkpt>
      <trkpt lat="46.881692921742797" lon="12.202693819999695">
        <ele>2192.4200000000001</ele>
        <time>2014-03-07T12:29:23Z</time>
      </trkpt>
      <trkpt lat="46.881763665005565" lon="12.202671272680163">
        <ele>2191.9400000000001</ele>
        <time>2014-03-07T12:29:36Z</time>
      </trkpt>
      <trkpt lat="46.881796354427934" lon="12.202664399519563">
        <ele>2190.5</ele>
        <time>2014-03-07T12:29:40Z</time>
      </trkpt>
      <trkpt lat="46.881953766569495" lon="12.202610671520233">
        <ele>2187.6199999999999</ele>
        <time>2014-03-07T12:29:54Z</time>
      </trkpt>
      <trkpt lat="46.88212551176548" lon="12.202592063695192">
        <ele>2184.25</ele>
        <time>2014-03-07T12:30:07Z</time>
      </trkpt>
      <trkpt lat="46.882224921137094" lon="12.202566079795361">
        <ele>2182.3299999999999</ele>
        <time>2014-03-07T12:30:15Z</time>
      </trkpt>
      <trkpt lat="46.882343357428908" lon="12.202484523877501">
        <ele>2178.48</ele>
        <time>2014-03-07T12:30:27Z</time>
      </trkpt>
      <trkpt lat="46.882352996617556" lon="12.202479662373662">
        <ele>2178.48</ele>
        <time>2014-03-07T12:30:28Z</time>
      </trkpt>
      <trkpt lat="46.882376801222563" lon="12.202455857768655">
        <ele>2177.04</ele>
        <time>2014-03-07T12:30:31Z</time>
      </trkpt>
      <trkpt lat="46.88244410790503" lon="12.202413361519575">
        <ele>2173.6799999999998</ele>
        <time>2014-03-07T12:30:38Z</time>
      </trkpt>
      <trkpt lat="46.882452070713043" lon="12.202410008758307">
        <ele>2173.6799999999998</ele>
        <time>2014-03-07T12:30:39Z</time>
      </trkpt>
      <trkpt lat="46.882507055997849" lon="12.202364662662148">
        <ele>2170.3099999999999</ele>
        <time>2014-03-07T12:30:45Z</time>
      </trkpt>
      <trkpt lat="46.882517030462623" lon="12.20235887914896">
        <ele>2170.3099999999999</ele>
        <time>2014-03-07T12:30:46Z</time>
      </trkpt>
      <trkpt lat="46.882528262212873" lon="12.20235007815063">
        <ele>2169.3499999999999</ele>
        <time>2014-03-07T12:30:48Z</time>
      </trkpt>
      <trkpt lat="46.882532956078649" lon="12.202343791723251">
        <ele>2168.8699999999999</ele>
        <time>2014-03-07T12:30:49Z</time>
      </trkpt>
      <trkpt lat="46.882593305781484" lon="12.202278664335608">
        <ele>2165.5100000000002</ele>
        <time>2014-03-07T12:30:56Z</time>
      </trkpt>
      <trkpt lat="46.882619876414537" lon="12.202262151986361">
        <ele>2164.5500000000002</ele>
        <time>2014-03-07T12:30:59Z</time>
      </trkpt>
      <trkpt lat="46.882632616907358" lon="12.202230636030436">
        <ele>2163.0999999999999</ele>
        <time>2014-03-07T12:31:01Z</time>
      </trkpt>
      <trkpt lat="46.882672598585486" lon="12.202167017385364">
        <ele>2161.1799999999998</ele>
        <time>2014-03-07T12:31:06Z</time>
      </trkpt>
      <trkpt lat="46.882756752893329" lon="12.202140782028437">
        <ele>2157.8200000000002</ele>
        <time>2014-03-07T12:31:13Z</time>
      </trkpt>
      <trkpt lat="46.882766727358103" lon="12.202140865847468">
        <ele>2156.8600000000001</ele>
        <time>2014-03-07T12:31:14Z</time>
      </trkpt>
      <trkpt lat="46.882811738178134" lon="12.202138938009739">
        <ele>2154.4499999999998</ele>
        <time>2014-03-07T12:31:28Z</time>
      </trkpt>
      <trkpt lat="46.882896982133389" lon="12.202069954946637">
        <ele>2151.0900000000001</ele>
        <time>2014-03-07T12:31:37Z</time>
      </trkpt>
      <trkpt lat="46.882920283824205" lon="12.202057801187038">
        <ele>2150.6100000000001</ele>
        <time>2014-03-07T12:31:39Z</time>
      </trkpt>
      <trkpt lat="46.882933778688312" lon="12.202041037380695">
        <ele>2149.6500000000001</ele>
        <time>2014-03-07T12:31:41Z</time>
      </trkpt>
      <trkpt lat="46.882976274937391" lon="12.202005917206407">
        <ele>2148.1999999999998</ele>
        <time>2014-03-07T12:31:45Z</time>
      </trkpt>
      <trkpt lat="46.883146511390805" lon="12.201964426785707">
        <ele>2144.8400000000001</ele>
        <time>2014-03-07T12:32:00Z</time>
      </trkpt>
      <trkpt lat="46.88327525742352" lon="12.201935090124607">
        <ele>2142.4400000000001</ele>
        <time>2014-03-07T12:32:12Z</time>
      </trkpt>
      <trkpt lat="46.883437363430858" lon="12.201953697949648">
        <ele>2141.4699999999998</ele>
        <time>2014-03-07T12:32:26Z</time>
      </trkpt>
      <trkpt lat="46.883436441421509" lon="12.201984208077192">
        <ele>2141.4699999999998</ele>
        <time>2014-03-07T12:32:41Z</time>
      </trkpt>
      <trkpt lat="46.883443482220173" lon="12.201979598030448">
        <ele>2140.9899999999998</ele>
        <time>2014-03-07T12:32:44Z</time>
      </trkpt>
      <trkpt lat="46.883586309850216" lon="12.202022345736623">
        <ele>2140.5100000000002</ele>
        <time>2014-03-07T12:32:57Z</time>
      </trkpt>
      <trkpt lat="46.883700052276254" lon="12.202065009623766">
        <ele>2139.5500000000002</ele>
        <time>2014-03-07T12:33:09Z</time>
      </trkpt>
      <trkpt lat="46.88379904255271" lon="12.202109349891543">
        <ele>2138.5900000000001</ele>
        <time>2014-03-07T12:33:20Z</time>
      </trkpt>
      <trkpt lat="46.883854363113642" lon="12.202129801735282">
        <ele>2140.0300000000002</ele>
        <time>2014-03-07T12:33:26Z</time>
      </trkpt>
      <trkpt lat="46.883987635374069" lon="12.202166179195046">
        <ele>2140.0300000000002</ele>
        <time>2014-03-07T12:33:40Z</time>
      </trkpt>
      <trkpt lat="46.884107580408454" lon="12.202228205278516">
        <ele>2140.0300000000002</ele>
        <time>2014-03-07T12:33:53Z</time>
      </trkpt>
      <trkpt lat="46.884210426360369" lon="12.202278077602386">
        <ele>2138.5900000000001</ele>
        <time>2014-03-07T12:34:06Z</time>
      </trkpt>
      <trkpt lat="46.884190896525979" lon="12.202273048460484">
        <ele>2138.5900000000001</ele>
        <time>2014-03-07T12:34:20Z</time>
      </trkpt>
      <trkpt lat="46.884206654503942" lon="12.202280508354306">
        <ele>2138.5900000000001</ele>
        <time>2014-03-07T12:34:33Z</time>
      </trkpt>
      <trkpt lat="46.884196260944009" lon="12.202282184734941">
        <ele>2138.5900000000001</ele>
        <time>2014-03-07T12:34:57Z</time>
      </trkpt>
      <trkpt lat="46.884217299520969" lon="12.202280759811401">
        <ele>2139.0700000000002</ele>
        <time>2014-03-07T12:35:25Z</time>
      </trkpt>
      <trkpt lat="46.884230962023139" lon="12.202279502525926">
        <ele>2138.5900000000001</ele>
        <time>2014-03-07T12:35:35Z</time>
      </trkpt>
      <trkpt lat="46.884261388331652" lon="12.202264415100217">
        <ele>2138.5900000000001</ele>
        <time>2014-03-07T12:35:49Z</time>
      </trkpt>
      <trkpt lat="46.884276811033487" lon="12.202275898307562">
        <ele>2138.5900000000001</ele>
        <time>2014-03-07T12:36:02Z</time>
      </trkpt>
      <trkpt lat="46.884263651445508" lon="12.202268689870834">
        <ele>2138.5900000000001</ele>
        <time>2014-03-07T12:36:27Z</time>
      </trkpt>
      <trkpt lat="46.884264908730984" lon="12.202283358201385">
        <ele>2138.5900000000001</ele>
        <time>2014-03-07T12:36:46Z</time>
      </trkpt>
      <trkpt lat="46.884264489635825" lon="12.202320406213403">
        <ele>2138.5900000000001</ele>
        <time>2014-03-07T12:37:10Z</time>
      </trkpt>
      <trkpt lat="46.884264321997762" lon="12.202279502525926">
        <ele>2139.0700000000002</ele>
        <time>2014-03-07T12:37:32Z</time>
      </trkpt>
      <trkpt lat="46.884269267320633" lon="12.202264666557312">
        <ele>2138.1100000000001</ele>
        <time>2014-03-07T12:37:48Z</time>
      </trkpt>
      <trkpt lat="46.884290305897593" lon="12.202329710125923">
        <ele>2138.5900000000001</ele>
        <time>2014-03-07T12:38:07Z</time>
      </trkpt>
      <trkpt lat="46.884481497108936" lon="12.202419983223081">
        <ele>2136.6700000000001</ele>
        <time>2014-03-07T12:38:24Z</time>
      </trkpt>
      <trkpt lat="46.884645111858845" lon="12.202431801706553">
        <ele>2133.3000000000002</ele>
        <time>2014-03-07T12:38:36Z</time>
      </trkpt>
      <trkpt lat="46.884695906192064" lon="12.202439848333597">
        <ele>2131.8600000000001</ele>
        <time>2014-03-07T12:38:40Z</time>
      </trkpt>
      <trkpt lat="46.884888270869851" lon="12.20247320830822">
        <ele>2128.98</ele>
        <time>2014-03-07T12:38:54Z</time>
      </trkpt>
      <trkpt lat="46.885100249201059" lon="12.20251427963376">
        <ele>2125.6100000000001</ele>
        <time>2014-03-07T12:39:10Z</time>
      </trkpt>
      <trkpt lat="46.885254727676511" lon="12.202583514153957">
        <ele>2123.21</ele>
        <time>2014-03-07T12:39:22Z</time>
      </trkpt>
      <trkpt lat="46.885429490357637" lon="12.202675044536591">
        <ele>2121.29</ele>
        <time>2014-03-07T12:39:36Z</time>
      </trkpt>
      <trkpt lat="46.885600732639432" lon="12.202831953763962">
        <ele>2119.3600000000001</ele>
        <time>2014-03-07T12:39:51Z</time>
      </trkpt>
      <trkpt lat="46.885686982423067" lon="12.202867828309536">
        <ele>2118.4000000000001</ele>
        <time>2014-03-07T12:40:01Z</time>
      </trkpt>
      <trkpt lat="46.88585864380002" lon="12.202969836071134">
        <ele>2115.52</ele>
        <time>2014-03-07T12:40:15Z</time>
      </trkpt>
      <trkpt lat="46.886020749807358" lon="12.202901942655444">
        <ele>2116.96</ele>
        <time>2014-03-07T12:40:30Z</time>
      </trkpt>
      <trkpt lat="46.886180927976966" lon="12.202855171635747">
        <ele>2116</ele>
        <time>2014-03-07T12:40:45Z</time>
      </trkpt>
      <trkpt lat="46.88637413084507" lon="12.202913258224726">
        <ele>2113.1199999999999</ele>
        <time>2014-03-07T12:41:00Z</time>
      </trkpt>
      <trkpt lat="46.886513773351908" lon="12.202898254618049">
        <ele>2109.27</ele>
        <time>2014-03-07T12:41:12Z</time>
      </trkpt>
      <trkpt lat="46.886616200208664" lon="12.202774537727237">
        <ele>2106.3899999999999</ele>
        <time>2014-03-07T12:41:21Z</time>
      </trkpt>
      <trkpt lat="46.886672778055072" lon="12.20270630903542">
        <ele>2104.46</ele>
        <time>2014-03-07T12:41:26Z</time>
      </trkpt>
      <trkpt lat="46.886680154129863" lon="12.202565493062139">
        <ele>2101.0999999999999</ele>
        <time>2014-03-07T12:41:34Z</time>
      </trkpt>
      <trkpt lat="46.886670012027025" lon="12.202346976846457">
        <ele>2098.21</ele>
        <time>2014-03-07T12:41:47Z</time>
      </trkpt>
      <trkpt lat="46.886660624295473" lon="12.202294925227761">
        <ele>2097.25</ele>
        <time>2014-03-07T12:41:51Z</time>
      </trkpt>
      <trkpt lat="46.886636903509498" lon="12.202180009335279">
        <ele>2093.4099999999999</ele>
        <time>2014-03-07T12:41:59Z</time>
      </trkpt>
      <trkpt lat="46.886629527434707" lon="12.202148409560323">
        <ele>2093.4099999999999</ele>
        <time>2014-03-07T12:42:01Z</time>
      </trkpt>
      <trkpt lat="46.886619888246059" lon="12.202006503939629">
        <ele>2090.04</ele>
        <time>2014-03-07T12:42:10Z</time>
      </trkpt>
      <trkpt lat="46.886607566848397" lon="12.201903657987714">
        <ele>2088.1199999999999</ele>
        <time>2014-03-07T12:42:16Z</time>
      </trkpt>
      <trkpt lat="46.886632544919848" lon="12.201800141483545">
        <ele>2085.7199999999998</ele>
        <time>2014-03-07T12:42:23Z</time>
      </trkpt>
      <trkpt lat="46.886646542698145" lon="12.201782036572695">
        <ele>2084.7600000000002</ele>
        <time>2014-03-07T12:42:25Z</time>
      </trkpt>
      <trkpt lat="46.886711753904819" lon="12.20165085978806">
        <ele>2082.3499999999999</ele>
        <time>2014-03-07T12:42:34Z</time>
      </trkpt>
      <trkpt lat="46.886831196025014" lon="12.201387668028474">
        <ele>2079.4699999999998</ele>
        <time>2014-03-07T12:42:51Z</time>
      </trkpt>
      <trkpt lat="46.886836728081107" lon="12.201376939192414">
        <ele>2079.4699999999998</ele>
        <time>2014-03-07T12:42:52Z</time>
      </trkpt>
      <trkpt lat="46.886916607618332" lon="12.201151130720973">
        <ele>2078.9899999999998</ele>
        <time>2014-03-07T12:43:07Z</time>
      </trkpt>
      <trkpt lat="46.887002689763904" lon="12.200950970873237">
        <ele>2076.5900000000001</ele>
        <time>2014-03-07T12:43:20Z</time>
      </trkpt>
      <trkpt lat="46.887027835473418" lon="12.200699597597122">
        <ele>2073.6999999999998</ele>
        <time>2014-03-07T12:43:34Z</time>
      </trkpt>
      <trkpt lat="46.887060692533851" lon="12.200563307851553">
        <ele>2070.8200000000002</ele>
        <time>2014-03-07T12:43:43Z</time>
      </trkpt>
      <trkpt lat="46.887076031416655" lon="12.2005401737988">
        <ele>2069.8600000000001</ele>
        <time>2014-03-07T12:43:45Z</time>
      </trkpt>
      <trkpt lat="46.887094806879759" lon="12.200499689206481">
        <ele>2068.4099999999999</ele>
        <time>2014-03-07T12:43:48Z</time>
      </trkpt>
      <trkpt lat="46.887128502130508" lon="12.200435316190124">
        <ele>2066.9699999999998</ele>
        <time>2014-03-07T12:43:53Z</time>
      </trkpt>
      <trkpt lat="46.88721408136189" lon="12.200311180204153">
        <ele>2064.5700000000002</ele>
        <time>2014-03-07T12:44:04Z</time>
      </trkpt>
      <trkpt lat="46.887230258435011" lon="12.2002655826509">
        <ele>2065.0500000000002</ele>
        <time>2014-03-07T12:44:07Z</time>
      </trkpt>
      <trkpt lat="46.887295050546527" lon="12.20007355324924">
        <ele>2065.5300000000002</ele>
        <time>2014-03-07T12:44:20Z</time>
      </trkpt>
      <trkpt lat="46.887333523482084" lon="12.200075564906001">
        <ele>2066.0100000000002</ele>
        <time>2014-03-07T12:44:31Z</time>
      </trkpt>
      <trkpt lat="46.887324303388596" lon="12.200072044506669">
        <ele>2066.0100000000002</ele>
        <time>2014-03-07T12:44:50Z</time>
      </trkpt>
      <trkpt lat="46.887323297560215" lon="12.200035834684968">
        <ele>2065.5300000000002</ele>
        <time>2014-03-07T12:45:09Z</time>
      </trkpt>
      <trkpt lat="46.88737191259861" lon="12.199885714799166">
        <ele>2065.5300000000002</ele>
        <time>2014-03-07T12:45:22Z</time>
      </trkpt>
      <trkpt lat="46.887454809620976" lon="12.199709946289659">
        <ele>2066.9699999999998</ele>
        <time>2014-03-07T12:45:36Z</time>
      </trkpt>
      <trkpt lat="46.887532258406281" lon="12.199428398162127">
        <ele>2064.5700000000002</ele>
        <time>2014-03-07T12:45:53Z</time>
      </trkpt>
      <trkpt lat="46.887594452127814" lon="12.199182389304042">
        <ele>2061.1999999999998</ele>
        <time>2014-03-07T12:46:08Z</time>
      </trkpt>
      <trkpt lat="46.887597972527146" lon="12.199167804792523">
        <ele>2061.6799999999998</ele>
        <time>2014-03-07T12:46:09Z</time>
      </trkpt>
      <trkpt lat="46.887588333338499" lon="12.199122123420238">
        <ele>2061.1999999999998</ele>
        <time>2014-03-07T12:46:22Z</time>
      </trkpt>
      <trkpt lat="46.887587578967214" lon="12.199135283008218">
        <ele>2061.1999999999998</ele>
        <time>2014-03-07T12:46:31Z</time>
      </trkpt>
      <trkpt lat="46.887572910636663" lon="12.199143916368484">
        <ele>2061.1999999999998</ele>
        <time>2014-03-07T12:46:45Z</time>
      </trkpt>
      <trkpt lat="46.887586237862706" lon="12.199135450646281">
        <ele>2060.7199999999998</ele>
        <time>2014-03-07T12:46:58Z</time>
      </trkpt>
      <trkpt lat="46.887587662786245" lon="12.199157327413559">
        <ele>2061.1999999999998</ele>
        <time>2014-03-07T12:47:16Z</time>
      </trkpt>
      <trkpt lat="46.887595793232322" lon="12.199140647426248">
        <ele>2061.1999999999998</ele>
        <time>2014-03-07T12:47:30Z</time>
      </trkpt>
      <trkpt lat="46.887592440471053" lon="12.199130253866315">
        <ele>2061.1999999999998</ele>
        <time>2014-03-07T12:47:48Z</time>
      </trkpt>
      <trkpt lat="46.887580202892423" lon="12.199137881398201">
        <ele>2060.2399999999998</ele>
        <time>2014-03-07T12:48:03Z</time>
      </trkpt>
      <trkpt lat="46.887581711634994" lon="12.199122458696365">
        <ele>2060.2399999999998</ele>
        <time>2014-03-07T12:48:35Z</time>
      </trkpt>
      <trkpt lat="46.887567965313792" lon="12.19913687556982">
        <ele>2060.7199999999998</ele>
        <time>2014-03-07T12:49:07Z</time>
      </trkpt>
      <trkpt lat="46.88757324591279" lon="12.199127487838268">
        <ele>2060.7199999999998</ele>
        <time>2014-03-07T12:49:37Z</time>
      </trkpt>
      <trkpt lat="46.887581460177898" lon="12.199094211682677">
        <ele>2061.1999999999998</ele>
        <time>2014-03-07T12:49:50Z</time>
      </trkpt>
      <trkpt lat="46.887597134336829" lon="12.199132516980171">
        <ele>2061.1999999999998</ele>
        <time>2014-03-07T12:50:15Z</time>
      </trkpt>
      <trkpt lat="46.887595541775227" lon="12.199140060693026">
        <ele>2061.1999999999998</ele>
        <time>2014-03-07T12:50:35Z</time>
      </trkpt>
      <trkpt lat="46.887594116851687" lon="12.199133019894361">
        <ele>2060.7199999999998</ele>
        <time>2014-03-07T12:51:01Z</time>
      </trkpt>
      <trkpt lat="46.887587998062372" lon="12.199089350178838">
        <ele>2060.2399999999998</ele>
        <time>2014-03-07T12:51:23Z</time>
      </trkpt>
      <trkpt lat="46.887569557875395" lon="12.199130756780505">
        <ele>2061.1999999999998</ele>
        <time>2014-03-07T12:51:41Z</time>
      </trkpt>
      <trkpt lat="46.887593697756529" lon="12.199131930246949">
        <ele>2061.6799999999998</ele>
        <time>2014-03-07T12:52:01Z</time>
      </trkpt>
      <trkpt lat="46.887593446299434" lon="12.199108293280005">
        <ele>2061.1999999999998</ele>
        <time>2014-03-07T12:52:19Z</time>
      </trkpt>
      <trkpt lat="46.887624794617295" lon="12.199134277179837">
        <ele>2062.1700000000001</ele>
        <time>2014-03-07T12:52:43Z</time>
      </trkpt>
      <trkpt lat="46.887629991397262" lon="12.19912220723927">
        <ele>2061.6799999999998</ele>
        <time>2014-03-07T12:53:04Z</time>
      </trkpt>
      <trkpt lat="46.887588668614626" lon="12.199120111763477">
        <ele>2061.1999999999998</ele>
        <time>2014-03-07T12:53:20Z</time>
      </trkpt>
      <trkpt lat="46.887582633644342" lon="12.199130253866315">
        <ele>2061.1999999999998</ele>
        <time>2014-03-07T12:53:38Z</time>
      </trkpt>
      <trkpt lat="46.887581208720803" lon="12.199104940518737">
        <ele>2061.1999999999998</ele>
        <time>2014-03-07T12:53:58Z</time>
      </trkpt>
      <trkpt lat="46.887570815160871" lon="12.19910460524261">
        <ele>2061.1999999999998</ele>
        <time>2014-03-07T12:54:20Z</time>
      </trkpt>
      <trkpt lat="46.887545501813293" lon="12.199092116206884">
        <ele>2062.1700000000001</ele>
        <time>2014-03-07T12:54:42Z</time>
      </trkpt>
      <trkpt lat="46.887444583699107" lon="12.199124889448285">
        <ele>2061.1999999999998</ele>
        <time>2014-03-07T12:54:57Z</time>
      </trkpt>
      <trkpt lat="46.887400830164552" lon="12.199137462303042">
        <ele>2061.1999999999998</ele>
        <time>2014-03-07T12:55:19Z</time>
      </trkpt>
      <trkpt lat="46.887430669739842" lon="12.199198734015226">
        <ele>2060.7199999999998</ele>
        <time>2014-03-07T12:55:38Z</time>
      </trkpt>
      <trkpt lat="46.887361770495772" lon="12.199383219704032">
        <ele>2060.7199999999998</ele>
        <time>2014-03-07T12:55:59Z</time>
      </trkpt>
      <trkpt lat="46.887479703873396" lon="12.199352541938424">
        <ele>2061.1999999999998</ele>
        <time>2014-03-07T12:56:14Z</time>
      </trkpt>
      <trkpt lat="46.887544998899102" lon="12.199401911348104">
        <ele>2060.7199999999998</ele>
        <time>2014-03-07T12:56:20Z</time>
      </trkpt>
      <trkpt lat="46.887567462399602" lon="12.199488328769803">
        <ele>2061.1999999999998</ele>
        <time>2014-03-07T12:56:26Z</time>
      </trkpt>
      <trkpt lat="46.887535862624645" lon="12.199583211913705">
        <ele>2060.7199999999998</ele>
        <time>2014-03-07T12:56:32Z</time>
      </trkpt>
      <trkpt lat="46.887398147955537" lon="12.199419429525733">
        <ele>2061.1999999999998</ele>
        <time>2014-03-07T12:56:53Z</time>
      </trkpt>
      <trkpt lat="46.887409798800945" lon="12.199396882206202">
        <ele>2061.1999999999998</ele>
        <time>2014-03-07T12:56:58Z</time>
      </trkpt>
      <trkpt lat="46.887386664748192" lon="12.199431750923395">
        <ele>2060.7199999999998</ele>
        <time>2014-03-07T12:57:02Z</time>
      </trkpt>
      <trkpt lat="46.887159012258053" lon="12.19941683113575">
        <ele>2061.6799999999998</ele>
        <time>2014-03-07T12:57:24Z</time>
      </trkpt>
      <trkpt lat="46.887192623689771" lon="12.199265202507377">
        <ele>2061.1999999999998</ele>
        <time>2014-03-07T12:57:44Z</time>
      </trkpt>
      <trkpt lat="46.887207040563226" lon="12.199534513056278">
        <ele>2061.1999999999998</ele>
        <time>2014-03-07T12:58:13Z</time>
      </trkpt>
      <trkpt lat="46.887591267004609" lon="12.199100665748119">
        <ele>2061.6799999999998</ele>
        <time>2014-03-07T13:28:12Z</time>
      </trkpt>
      <trkpt lat="46.887583220377564" lon="12.199154812842607">
        <ele>2062.6500000000001</ele>
        <time>2014-03-07T13:28:25Z</time>
      </trkpt>
      <trkpt lat="46.887602666392922" lon="12.19914467073977">
        <ele>2062.6500000000001</ele>
        <time>2014-03-07T13:28:52Z</time>
      </trkpt>
      <trkpt lat="46.887596296146512" lon="12.199081806465983">
        <ele>2062.1700000000001</ele>
        <time>2014-03-07T13:29:16Z</time>
      </trkpt>
      <trkpt lat="46.887613227590919" lon="12.199151376262307">
        <ele>2061.6799999999998</ele>
        <time>2014-03-07T13:29:41Z</time>
      </trkpt>
      <trkpt lat="46.887582298368216" lon="12.199150705710053">
        <ele>2061.6799999999998</ele>
        <time>2014-03-07T13:30:09Z</time>
      </trkpt>
      <trkpt lat="46.887590428814292" lon="12.199134696274996">
        <ele>2062.1700000000001</ele>
        <time>2014-03-07T13:30:33Z</time>
      </trkpt>
      <trkpt lat="46.887580873444676" lon="12.199172079563141">
        <ele>2061.1999999999998</ele>
        <time>2014-03-07T13:30:55Z</time>
      </trkpt>
      <trkpt lat="46.887595290318131" lon="12.199148526415229">
        <ele>2061.1999999999998</ele>
        <time>2014-03-07T13:31:15Z</time>
      </trkpt>
      <trkpt lat="46.887589422985911" lon="12.199143748730421">
        <ele>2061.6799999999998</ele>
        <time>2014-03-07T13:31:18Z</time>
      </trkpt>
      <trkpt lat="46.887602834030986" lon="12.199141485616565">
        <ele>2062.6500000000001</ele>
        <time>2014-03-07T13:31:21Z</time>
      </trkpt>
      <trkpt lat="46.887605683878064" lon="12.1991310082376">
        <ele>2063.1300000000001</ele>
        <time>2014-03-07T13:31:33Z</time>
      </trkpt>
      <trkpt lat="46.887587495148182" lon="12.199143748730421">
        <ele>2062.6500000000001</ele>
        <time>2014-03-07T13:31:52Z</time>
      </trkpt>
      <trkpt lat="46.887598056346178" lon="12.199157578870654">
        <ele>2062.6500000000001</ele>
        <time>2014-03-07T13:32:10Z</time>
      </trkpt>
      <trkpt lat="46.887590009719133" lon="12.199141317978501">
        <ele>2062.1700000000001</ele>
        <time>2014-03-07T13:32:22Z</time>
      </trkpt>
      <trkpt lat="46.88759914599359" lon="12.199158752337098">
        <ele>2062.6500000000001</ele>
        <time>2014-03-07T13:32:40Z</time>
      </trkpt>
      <trkpt lat="46.887591267004609" lon="12.199151543900371">
        <ele>2062.1700000000001</ele>
        <time>2014-03-07T13:32:59Z</time>
      </trkpt>
      <trkpt lat="46.88760057091713" lon="12.199133271351457">
        <ele>2062.6500000000001</ele>
        <time>2014-03-07T13:33:15Z</time>
      </trkpt>
      <trkpt lat="46.887596631422639" lon="12.199135785922408">
        <ele>2062.6500000000001</ele>
        <time>2014-03-07T13:33:30Z</time>
      </trkpt>
      <trkpt lat="46.887606773525476" lon="12.199125811457634">
        <ele>2062.6500000000001</ele>
        <time>2014-03-07T13:33:54Z</time>
      </trkpt>
      <trkpt lat="46.887584729120135" lon="12.1991016715765">
        <ele>2062.1700000000001</ele>
        <time>2014-03-07T13:34:10Z</time>
      </trkpt>
      <trkpt lat="46.887588584795594" lon="12.199131846427917">
        <ele>2062.6500000000001</ele>
        <time>2014-03-07T13:34:29Z</time>
      </trkpt>
      <trkpt lat="46.887583388015628" lon="12.199161015450954">
        <ele>2062.6500000000001</ele>
        <time>2014-03-07T13:34:54Z</time>
      </trkpt>
      <trkpt lat="46.887562852352858" lon="12.199116675183177">
        <ele>2062.1700000000001</ele>
        <time>2014-03-07T13:35:13Z</time>
      </trkpt>
      <trkpt lat="46.887600654736161" lon="12.198989940807223">
        <ele>2062.1700000000001</ele>
        <time>2014-03-07T13:35:25Z</time>
      </trkpt>
      <trkpt lat="46.887641558423638" lon="12.198879132047296">
        <ele>2061.6799999999998</ele>
        <time>2014-03-07T13:35:40Z</time>
      </trkpt>
      <trkpt lat="46.887644659727812" lon="12.198887933045626">
        <ele>2060.2399999999998</ele>
        <time>2014-03-07T13:35:43Z</time>
      </trkpt>
      <trkpt lat="46.887655220925808" lon="12.198904026299715">
        <ele>2061.1999999999998</ele>
        <time>2014-03-07T13:36:03Z</time>
      </trkpt>
      <trkpt lat="46.88764650374651" lon="12.198913497850299">
        <ele>2061.1999999999998</ele>
        <time>2014-03-07T13:36:14Z</time>
      </trkpt>
      <trkpt lat="46.887624626979232" lon="12.198986588045955">
        <ele>2060.7199999999998</ele>
        <time>2014-03-07T13:36:30Z</time>
      </trkpt>
      <trkpt lat="46.887592859566212" lon="12.198972757905722">
        <ele>2060.7199999999998</ele>
        <time>2014-03-07T13:36:42Z</time>
      </trkpt>
      <trkpt lat="46.887578526511788" lon="12.198965465649962">
        <ele>2061.1999999999998</ele>
        <time>2014-03-07T13:37:00Z</time>
      </trkpt>
      <trkpt lat="46.887601409107447" lon="12.19908800907433">
        <ele>2061.6799999999998</ele>
        <time>2014-03-07T13:37:17Z</time>
      </trkpt>
      <trkpt lat="46.887602247297764" lon="12.199100498110056">
        <ele>2061.6799999999998</ele>
        <time>2014-03-07T13:37:33Z</time>
      </trkpt>
      <trkpt lat="46.887602414935827" lon="12.1991051081568">
        <ele>2061.1999999999998</ele>
        <time>2014-03-07T13:37:46Z</time>
      </trkpt>
      <trkpt lat="46.887623872607946" lon="12.199085159227252">
        <ele>2061.1999999999998</ele>
        <time>2014-03-07T13:38:10Z</time>
      </trkpt>
      <trkpt lat="46.887622280046344" lon="12.199101839214563">
        <ele>2061.1999999999998</ele>
        <time>2014-03-07T13:38:11Z</time>
      </trkpt>
      <trkpt lat="46.887594619765878" lon="12.199145006015897">
        <ele>2061.6799999999998</ele>
        <time>2014-03-07T13:38:28Z</time>
      </trkpt>
      <trkpt lat="46.88758447766304" lon="12.199129750952125">
        <ele>2061.6799999999998</ele>
        <time>2014-03-07T13:38:45Z</time>
      </trkpt>
      <trkpt lat="46.887602666392922" lon="12.199145089834929">
        <ele>2062.1700000000001</ele>
        <time>2014-03-07T13:39:03Z</time>
      </trkpt>
      <trkpt lat="46.887608198449016" lon="12.19911533407867">
        <ele>2062.1700000000001</ele>
        <time>2014-03-07T13:39:26Z</time>
      </trkpt>
      <trkpt lat="46.887632673606277" lon="12.19902204349637">
        <ele>2061.6799999999998</ele>
        <time>2014-03-07T13:39:38Z</time>
      </trkpt>
      <trkpt lat="46.88763577491045" lon="12.199011063203216">
        <ele>2061.1999999999998</ele>
        <time>2014-03-07T13:39:39Z</time>
      </trkpt>
      <trkpt lat="46.887711463496089" lon="12.198802186176181">
        <ele>2060.2399999999998</ele>
        <time>2014-03-07T13:39:54Z</time>
      </trkpt>
      <trkpt lat="46.88778430223465" lon="12.19868098385632">
        <ele>2056.8800000000001</ele>
        <time>2014-03-07T13:40:02Z</time>
      </trkpt>
      <trkpt lat="46.887839874252677" lon="12.198559110984206">
        <ele>2053.5100000000002</ele>
        <time>2014-03-07T13:40:09Z</time>
      </trkpt>
      <trkpt lat="46.887899050489068" lon="12.198419133201241">
        <ele>2051.1100000000001</ele>
        <time>2014-03-07T13:40:18Z</time>
      </trkpt>
      <trkpt lat="46.88799099996686" lon="12.198084779083729">
        <ele>2049.1900000000001</ele>
        <time>2014-03-07T13:40:37Z</time>
      </trkpt>
      <trkpt lat="46.888043722137809" lon="12.197897443547845">
        <ele>2046.3</ele>
        <time>2014-03-07T13:40:46Z</time>
      </trkpt>
      <trkpt lat="46.888094851747155" lon="12.197736846283078">
        <ele>2042.9400000000001</ele>
        <time>2014-03-07T13:40:55Z</time>
      </trkpt>
      <trkpt lat="46.888085883110762" lon="12.197696613147855">
        <ele>2041.02</ele>
        <time>2014-03-07T13:40:59Z</time>
      </trkpt>
      <trkpt lat="46.887967949733138" lon="12.197694685310125">
        <ele>2036.6900000000001</ele>
        <time>2014-03-07T13:41:10Z</time>
      </trkpt>
      <trkpt lat="46.887985467910767" lon="12.197556719183922">
        <ele>2034.77</ele>
        <time>2014-03-07T13:41:22Z</time>
      </trkpt>
      <trkpt lat="46.888027377426624" lon="12.197396205738187">
        <ele>2031.4000000000001</ele>
        <time>2014-03-07T13:41:34Z</time>
      </trkpt>
      <trkpt lat="46.888029724359512" lon="12.1973817050457">
        <ele>2031.4000000000001</ele>
        <time>2014-03-07T13:41:35Z</time>
      </trkpt>
      <trkpt lat="46.888046404346824" lon="12.197272488847375">
        <ele>2028.52</ele>
        <time>2014-03-07T13:41:42Z</time>
      </trkpt>
      <trkpt lat="46.888024276122451" lon="12.197229573503137">
        <ele>2028.04</ele>
        <time>2014-03-07T13:41:48Z</time>
      </trkpt>
      <trkpt lat="46.888068616390228" lon="12.197105186060071">
        <ele>2024.1900000000001</ele>
        <time>2014-03-07T13:41:56Z</time>
      </trkpt>
      <trkpt lat="46.888049757108092" lon="12.197077022865415">
        <ele>2021.79</ele>
        <time>2014-03-07T13:42:07Z</time>
      </trkpt>
      <trkpt lat="46.888011284172535" lon="12.197022875770926">
        <ele>2021.3099999999999</ele>
        <time>2014-03-07T13:42:20Z</time>
      </trkpt>
      <trkpt lat="46.888013212010264" lon="12.19699521549046">
        <ele>2020.3499999999999</ele>
        <time>2014-03-07T13:42:22Z</time>
      </trkpt>
      <trkpt lat="46.888064006343484" lon="12.196845430880785">
        <ele>2016.98</ele>
        <time>2014-03-07T13:42:34Z</time>
      </trkpt>
      <trkpt lat="46.888090996071696" lon="12.196754487231374">
        <ele>2014.5799999999999</ele>
        <time>2014-03-07T13:42:45Z</time>
      </trkpt>
      <trkpt lat="46.888113040477037" lon="12.196641750633717">
        <ele>2013.1400000000001</ele>
        <time>2014-03-07T13:42:58Z</time>
      </trkpt>
      <trkpt lat="46.888129971921444" lon="12.196531780064106">
        <ele>2011.22</ele>
        <time>2014-03-07T13:43:05Z</time>
      </trkpt>
      <trkpt lat="46.888094348832965" lon="12.196496408432722">
        <ele>2010.25</ele>
        <time>2014-03-07T13:43:09Z</time>
      </trkpt>
      <trkpt lat="46.888116477057338" lon="12.196411080658436">
        <ele>2008.8099999999999</ele>
        <time>2014-03-07T13:43:15Z</time>
      </trkpt>
      <trkpt lat="46.888202056288719" lon="12.196347629651427">
        <ele>2005.45</ele>
        <time>2014-03-07T13:43:26Z</time>
      </trkpt>
      <trkpt lat="46.888252766802907" lon="12.196373529732227">
        <ele>2004.49</ele>
        <time>2014-03-07T13:43:32Z</time>
      </trkpt>
      <trkpt lat="46.888281935825944" lon="12.196344863623381">
        <ele>2003.04</ele>
        <time>2014-03-07T13:43:35Z</time>
      </trkpt>
      <trkpt lat="46.888291658833623" lon="12.19626909121871">
        <ele>2002.0799999999999</ele>
        <time>2014-03-07T13:43:49Z</time>
      </trkpt>
      <trkpt lat="46.88828319311142" lon="12.196291638538241">
        <ele>2002.5599999999999</ele>
        <time>2014-03-07T13:44:06Z</time>
      </trkpt>
      <trkpt lat="46.888285204768181" lon="12.196307815611362">
        <ele>2002.0799999999999</ele>
        <time>2014-03-07T13:44:32Z</time>
      </trkpt>
      <trkpt lat="46.888267016038299" lon="12.196311252191663">
        <ele>2001.5999999999999</ele>
        <time>2014-03-07T13:44:57Z</time>
      </trkpt>
      <trkpt lat="46.888267770409584" lon="12.196319717913866">
        <ele>2001.5999999999999</ele>
        <time>2014-03-07T13:45:19Z</time>
      </trkpt>
      <trkpt lat="46.888250168412924" lon="12.196278730407357">
        <ele>2002.0799999999999</ele>
        <time>2014-03-07T13:45:39Z</time>
      </trkpt>
      <trkpt lat="46.888234578073025" lon="12.196271186694503">
        <ele>2001.5999999999999</ele>
        <time>2014-03-07T13:45:45Z</time>
      </trkpt>
      <trkpt lat="46.888154111802578" lon="12.196150152012706">
        <ele>2000.1600000000001</ele>
        <time>2014-03-07T13:46:01Z</time>
      </trkpt>
      <trkpt lat="46.888175318017602" lon="12.196175632998347">
        <ele>2000.1600000000001</ele>
        <time>2014-03-07T13:46:22Z</time>
      </trkpt>
      <trkpt lat="46.88813516870141" lon="12.19607169739902">
        <ele>1997.28</ele>
        <time>2014-03-07T13:46:41Z</time>
      </trkpt>
      <trkpt lat="46.888112034648657" lon="12.195994835346937">
        <ele>1994.8699999999999</ele>
        <time>2014-03-07T13:46:46Z</time>
      </trkpt>
      <trkpt lat="46.888067191466689" lon="12.195925852283835">
        <ele>1991.51</ele>
        <time>2014-03-07T13:46:53Z</time>
      </trkpt>
      <trkpt lat="46.888044560328126" lon="12.195902215316892">
        <ele>1990.55</ele>
        <time>2014-03-07T13:46:55Z</time>
      </trkpt>
      <trkpt lat="46.88810046762228" lon="12.195722172036767">
        <ele>1986.7</ele>
        <time>2014-03-07T13:47:05Z</time>
      </trkpt>
      <trkpt lat="46.888107676059008" lon="12.19569593667984">
        <ele>1985.74</ele>
        <time>2014-03-07T13:47:07Z</time>
      </trkpt>
      <trkpt lat="46.888121506199241" lon="12.195688979700208">
        <ele>1984.3</ele>
        <time>2014-03-07T13:47:19Z</time>
      </trkpt>
      <trkpt lat="46.888101389631629" lon="12.195691745728254">
        <ele>1983.8199999999999</ele>
        <time>2014-03-07T13:47:36Z</time>
      </trkpt>
      <trkpt lat="46.888088062405586" lon="12.195689314976335">
        <ele>1984.78</ele>
        <time>2014-03-07T13:47:45Z</time>
      </trkpt>
      <trkpt lat="46.887968871742487" lon="12.19561630859971">
        <ele>1981.4100000000001</ele>
        <time>2014-03-07T13:47:55Z</time>
      </trkpt>
      <trkpt lat="46.8879319075495" lon="12.195576326921582">
        <ele>1979.49</ele>
        <time>2014-03-07T13:47:59Z</time>
      </trkpt>
      <trkpt lat="46.887927800416946" lon="12.195531316101551">
        <ele>1979.01</ele>
        <time>2014-03-07T13:48:02Z</time>
      </trkpt>
      <trkpt lat="46.887955376878381" lon="12.19545747153461">
        <ele>1976.6099999999999</ele>
        <time>2014-03-07T13:48:07Z</time>
      </trkpt>
      <trkpt lat="46.888007428497076" lon="12.195384884253144">
        <ele>1975.1700000000001</ele>
        <time>2014-03-07T13:48:13Z</time>
      </trkpt>
      <trkpt lat="46.888018995523453" lon="12.195302909240127">
        <ele>1973.24</ele>
        <time>2014-03-07T13:48:18Z</time>
      </trkpt>
      <trkpt lat="46.887993514537811" lon="12.195236189290881">
        <ele>1971.8</ele>
        <time>2014-03-07T13:48:22Z</time>
      </trkpt>
      <trkpt lat="46.887959903106093" lon="12.195218168199062">
        <ele>1969.8800000000001</ele>
        <time>2014-03-07T13:48:25Z</time>
      </trkpt>
      <trkpt lat="46.887949090451002" lon="12.195212468504906">
        <ele>1969.4000000000001</ele>
        <time>2014-03-07T13:48:26Z</time>
      </trkpt>
      <trkpt lat="46.887931823730469" lon="12.195094870403409">
        <ele>1966.99</ele>
        <time>2014-03-07T13:48:32Z</time>
      </trkpt>
      <trkpt lat="46.88797976821661" lon="12.194951204583049">
        <ele>1963.6300000000001</ele>
        <time>2014-03-07T13:48:42Z</time>
      </trkpt>
      <trkpt lat="46.88798856921494" lon="12.194950114935637">
        <ele>1963.1500000000001</ele>
        <time>2014-03-07T13:48:43Z</time>
      </trkpt>
      <trkpt lat="46.888050343841314" lon="12.194882305338979">
        <ele>1960.27</ele>
        <time>2014-03-07T13:48:49Z</time>
      </trkpt>
      <trkpt lat="46.888052523136139" lon="12.194863278418779">
        <ele>1958.8199999999999</ele>
        <time>2014-03-07T13:48:51Z</time>
      </trkpt>
      <trkpt lat="46.888009021058679" lon="12.194806197658181">
        <ele>1956.9000000000001</ele>
        <time>2014-03-07T13:48:56Z</time>
      </trkpt>
      <trkpt lat="46.887999046593904" lon="12.194783734157681">
        <ele>1955.46</ele>
        <time>2014-03-07T13:49:02Z</time>
      </trkpt>
      <trkpt lat="46.888107256963849" lon="12.194752637296915">
        <ele>1954.02</ele>
        <time>2014-03-07T13:49:16Z</time>
      </trkpt>
      <trkpt lat="46.888104574754834" lon="12.194751631468534">
        <ele>1954.02</ele>
        <time>2014-03-07T13:49:21Z</time>
      </trkpt>
      <trkpt lat="46.888015726581216" lon="12.194611737504601">
        <ele>1951.1300000000001</ele>
        <time>2014-03-07T13:49:34Z</time>
      </trkpt>
      <trkpt lat="46.888027377426624" lon="12.194550801068544">
        <ele>1949.21</ele>
        <time>2014-03-07T13:49:38Z</time>
      </trkpt>
      <trkpt lat="46.888068616390228" lon="12.194514339789748">
        <ele>1947.29</ele>
        <time>2014-03-07T13:49:43Z</time>
      </trkpt>
      <trkpt lat="46.888066604733467" lon="12.194485757499933">
        <ele>1946.3299999999999</ele>
        <time>2014-03-07T13:49:45Z</time>
      </trkpt>
      <trkpt lat="46.888067610561848" lon="12.194470334798098">
        <ele>1946.3299999999999</ele>
        <time>2014-03-07T13:49:46Z</time>
      </trkpt>
      <trkpt lat="46.888100048527122" lon="12.194392634555697">
        <ele>1943.4400000000001</ele>
        <time>2014-03-07T13:49:53Z</time>
      </trkpt>
      <trkpt lat="46.888096192851663" lon="12.194328932091594">
        <ele>1942</ele>
        <time>2014-03-07T13:49:57Z</time>
      </trkpt>
      <trkpt lat="46.888086637482047" lon="12.194299763068557">
        <ele>1941.04</ele>
        <time>2014-03-07T13:49:59Z</time>
      </trkpt>
      <trkpt lat="46.888091918081045" lon="12.194172441959381">
        <ele>1939.1199999999999</ele>
        <time>2014-03-07T13:50:06Z</time>
      </trkpt>
      <trkpt lat="46.888122344389558" lon="12.194152660667896">
        <ele>1938.6400000000001</ele>
        <time>2014-03-07T13:50:10Z</time>
      </trkpt>
      <trkpt lat="46.888152938336134" lon="12.194185936823487">
        <ele>1937.1900000000001</ele>
        <time>2014-03-07T13:50:13Z</time>
      </trkpt>
      <trkpt lat="46.888198535889387" lon="12.194218290969729">
        <ele>1936.71</ele>
        <time>2014-03-07T13:50:19Z</time>
      </trkpt>
      <trkpt lat="46.88831496052444" lon="12.194257350638509">
        <ele>1934.3099999999999</ele>
        <time>2014-03-07T13:50:34Z</time>
      </trkpt>
      <trkpt lat="46.88837212510407" lon="12.194217620417476">
        <ele>1933.8299999999999</ele>
        <time>2014-03-07T13:51:03Z</time>
      </trkpt>
      <trkpt lat="46.888372963294387" lon="12.194206472486258">
        <ele>1933.8299999999999</ele>
        <time>2014-03-07T13:51:07Z</time>
      </trkpt>
      <trkpt lat="46.888455022126436" lon="12.194243604317307">
        <ele>1931.9100000000001</ele>
        <time>2014-03-07T13:51:21Z</time>
      </trkpt>
      <trkpt lat="46.888434235006571" lon="12.194260954856873">
        <ele>1931.4300000000001</ele>
        <time>2014-03-07T13:51:41Z</time>
      </trkpt>
      <trkpt lat="46.888501206412911" lon="12.194289201870561">
        <ele>1931.4300000000001</ele>
        <time>2014-03-07T13:51:46Z</time>
      </trkpt>
      <trkpt lat="46.888673705980182" lon="12.194425323978066">
        <ele>1927.5799999999999</ele>
        <time>2014-03-07T13:52:00Z</time>
      </trkpt>
      <trkpt lat="46.888795495033264" lon="12.194560775533319">
        <ele>1924.22</ele>
        <time>2014-03-07T13:52:10Z</time>
      </trkpt>
      <trkpt lat="46.888884007930756" lon="12.194693628698587">
        <ele>1921.3299999999999</ele>
        <time>2014-03-07T13:52:19Z</time>
      </trkpt>
      <trkpt lat="46.889002276584506" lon="12.194742411375046">
        <ele>1918.9300000000001</ele>
        <time>2014-03-07T13:52:32Z</time>
      </trkpt>
      <trkpt lat="46.889175111427903" lon="12.194625232368708">
        <ele>1916.04</ele>
        <time>2014-03-07T13:52:47Z</time>
      </trkpt>
      <trkpt lat="46.88923018053174" lon="12.194584496319294">
        <ele>1915.0799999999999</ele>
        <time>2014-03-07T13:52:51Z</time>
      </trkpt>
      <trkpt lat="46.889346772804856" lon="12.194516686722636">
        <ele>1911.72</ele>
        <time>2014-03-07T13:53:00Z</time>
      </trkpt>
      <trkpt lat="46.889420952647924" lon="12.19449196010828">
        <ele>1909.8</ele>
        <time>2014-03-07T13:53:07Z</time>
      </trkpt>
      <trkpt lat="46.889495383948088" lon="12.19438198953867">
        <ele>1906.4300000000001</ele>
        <time>2014-03-07T13:53:17Z</time>
      </trkpt>
      <trkpt lat="46.889439895749092" lon="12.194253075867891">
        <ele>1904.03</ele>
        <time>2014-03-07T13:53:30Z</time>
      </trkpt>
      <trkpt lat="46.889311820268631" lon="12.194157186895609">
        <ele>1900.6600000000001</ele>
        <time>2014-03-07T13:53:42Z</time>
      </trkpt>
      <trkpt lat="46.889180727303028" lon="12.194225918501616">
        <ele>1897.78</ele>
        <time>2014-03-07T13:53:53Z</time>
      </trkpt>
      <trkpt lat="46.889132782816887" lon="12.194241005927324">
        <ele>1897.78</ele>
        <time>2014-03-07T13:53:57Z</time>
      </trkpt>
      <trkpt lat="46.889109229668975" lon="12.194140674546361">
        <ele>1894.4200000000001</ele>
        <time>2014-03-07T13:54:03Z</time>
      </trkpt>
      <trkpt lat="46.889115599915385" lon="12.19412793405354">
        <ele>1893.9300000000001</ele>
        <time>2014-03-07T13:54:04Z</time>
      </trkpt>
      <trkpt lat="46.889130268245935" lon="12.194083258509636">
        <ele>1892.49</ele>
        <time>2014-03-07T13:54:09Z</time>
      </trkpt>
      <trkpt lat="46.889116941019893" lon="12.193997763097286">
        <ele>1889.6099999999999</ele>
        <time>2014-03-07T13:54:18Z</time>
      </trkpt>
      <trkpt lat="46.889125490561128" lon="12.193988375365734">
        <ele>1889.1300000000001</ele>
        <time>2014-03-07T13:54:19Z</time>
      </trkpt>
      <trkpt lat="46.889143260195851" lon="12.193946046754718">
        <ele>1888.1700000000001</ele>
        <time>2014-03-07T13:54:22Z</time>
      </trkpt>
      <trkpt lat="46.889155749231577" lon="12.193896509706974">
        <ele>1886.72</ele>
        <time>2014-03-07T13:54:25Z</time>
      </trkpt>
      <trkpt lat="46.889162622392178" lon="12.193790227174759">
        <ele>1883.8399999999999</ele>
        <time>2014-03-07T13:54:31Z</time>
      </trkpt>
      <trkpt lat="46.889166310429573" lon="12.193778241053224">
        <ele>1883.3599999999999</ele>
        <time>2014-03-07T13:54:32Z</time>
      </trkpt>
      <trkpt lat="46.889172932133079" lon="12.193751838058233">
        <ele>1881.9200000000001</ele>
        <time>2014-03-07T13:54:34Z</time>
      </trkpt>
      <trkpt lat="46.889190953224897" lon="12.193630803376436">
        <ele>1877.5899999999999</ele>
        <time>2014-03-07T13:54:41Z</time>
      </trkpt>
      <trkpt lat="46.889190282672644" lon="12.193597694858909">
        <ele>1875.6700000000001</ele>
        <time>2014-03-07T13:54:53Z</time>
      </trkpt>
      <trkpt lat="46.889177458360791" lon="12.193556455895305">
        <ele>1875.1900000000001</ele>
        <time>2014-03-07T13:55:06Z</time>
      </trkpt>
      <trkpt lat="46.88918324187398" lon="12.193540781736374">
        <ele>1875.1900000000001</ele>
        <time>2014-03-07T13:55:07Z</time>
      </trkpt>
      <trkpt lat="46.889184080064297" lon="12.193501386791468">
        <ele>1874.23</ele>
        <time>2014-03-07T13:55:10Z</time>
      </trkpt>
      <trkpt lat="46.88920184969902" lon="12.193430392071605">
        <ele>1873.27</ele>
        <time>2014-03-07T13:55:14Z</time>
      </trkpt>
      <trkpt lat="46.889220708981156" lon="12.193349925801158">
        <ele>1871.3399999999999</ele>
        <time>2014-03-07T13:55:18Z</time>
      </trkpt>
      <trkpt lat="46.889288853853941" lon="12.19319561496377">
        <ele>1868.46</ele>
        <time>2014-03-07T13:55:27Z</time>
      </trkpt>
      <trkpt lat="46.889339899644256" lon="12.193112382665277">
        <ele>1866.0599999999999</ele>
        <time>2014-03-07T13:55:32Z</time>
      </trkpt>
      <trkpt lat="46.8893669731915" lon="12.193043064326048">
        <ele>1866.54</ele>
        <time>2014-03-07T13:55:38Z</time>
      </trkpt>
      <trkpt lat="46.889343084767461" lon="12.192933764308691">
        <ele>1865.0899999999999</ele>
        <time>2014-03-07T13:55:47Z</time>
      </trkpt>
      <trkpt lat="46.889295224100351" lon="12.192887663841248">
        <ele>1864.1300000000001</ele>
        <time>2014-03-07T13:55:52Z</time>
      </trkpt>
      <trkpt lat="46.889305952936411" lon="12.192842988297343">
        <ele>1863.6500000000001</ele>
        <time>2014-03-07T13:55:56Z</time>
      </trkpt>
      <trkpt lat="46.889405781403184" lon="12.192831672728062">
        <ele>1861.25</ele>
        <time>2014-03-07T13:56:04Z</time>
      </trkpt>
      <trkpt lat="46.889427406713367" lon="12.192742070183158">
        <ele>1857.8900000000001</ele>
        <time>2014-03-07T13:56:12Z</time>
      </trkpt>
      <trkpt lat="46.889372505247593" lon="12.192716589197516">
        <ele>1857.8900000000001</ele>
        <time>2014-03-07T13:56:17Z</time>
      </trkpt>
      <trkpt lat="46.889357585459948" lon="12.192677613347769">
        <ele>1857.4000000000001</ele>
        <time>2014-03-07T13:56:28Z</time>
      </trkpt>
      <trkpt lat="46.889363285154104" lon="12.192620113492012">
        <ele>1855.96</ele>
        <time>2014-03-07T13:56:39Z</time>
      </trkpt>
      <trkpt lat="46.889391448348761" lon="12.192449541762471">
        <ele>1853.5599999999999</ele>
        <time>2014-03-07T13:56:54Z</time>
      </trkpt>
      <trkpt lat="46.889372337609529" lon="12.192519530653954">
        <ele>1853.5599999999999</ele>
        <time>2014-03-07T13:57:09Z</time>
      </trkpt>
      <trkpt lat="46.889363788068295" lon="12.192522296682">
        <ele>1853.5599999999999</ele>
        <time>2014-03-07T13:57:10Z</time>
      </trkpt>
      <trkpt lat="46.889368398115039" lon="12.1924998331815">
        <ele>1853.5599999999999</ele>
        <time>2014-03-07T13:57:22Z</time>
      </trkpt>
      <trkpt lat="46.889359513297677" lon="12.192467143759131">
        <ele>1854.04</ele>
        <time>2014-03-07T13:57:36Z</time>
      </trkpt>
      <trkpt lat="46.889375941827893" lon="12.192438645288348">
        <ele>1854.04</ele>
        <time>2014-03-07T13:57:51Z</time>
      </trkpt>
      <trkpt lat="46.889384910464287" lon="12.192436633631587">
        <ele>1853.5599999999999</ele>
        <time>2014-03-07T13:57:56Z</time>
      </trkpt>
      <trkpt lat="46.889429502189159" lon="12.192470664158463">
        <ele>1851.6400000000001</ele>
        <time>2014-03-07T13:58:08Z</time>
      </trkpt>
      <trkpt lat="46.889506280422211" lon="12.192488936707377">
        <ele>1849.23</ele>
        <time>2014-03-07T13:58:16Z</time>
      </trkpt>
      <trkpt lat="46.889591524377465" lon="12.192366058006883">
        <ele>1844.9100000000001</ele>
        <time>2014-03-07T13:58:23Z</time>
      </trkpt>
      <trkpt lat="46.889607701450586" lon="12.192243849858642">
        <ele>1842.02</ele>
        <time>2014-03-07T13:58:28Z</time>
      </trkpt>
      <trkpt lat="46.889645755290985" lon="12.192109739407897">
        <ele>1838.1800000000001</ele>
        <time>2014-03-07T13:58:36Z</time>
      </trkpt>
      <trkpt lat="46.889652712270617" lon="12.192079145461321">
        <ele>1837.22</ele>
        <time>2014-03-07T13:58:38Z</time>
      </trkpt>
      <trkpt lat="46.889675175771117" lon="12.192058609798551">
        <ele>1836.26</ele>
        <time>2014-03-07T13:58:40Z</time>
      </trkpt>
      <trkpt lat="46.88969780690968" lon="12.192047294229269">
        <ele>1835.29</ele>
        <time>2014-03-07T13:58:42Z</time>
      </trkpt>
      <trkpt lat="46.889727395027876" lon="12.191948387771845">
        <ele>1831.9300000000001</ele>
        <time>2014-03-07T13:58:48Z</time>
      </trkpt>
      <trkpt lat="46.88973686657846" lon="12.191883428022265">
        <ele>1830.01</ele>
        <time>2014-03-07T13:58:51Z</time>
      </trkpt>
      <trkpt lat="46.889761090278625" lon="12.191844200715423">
        <ele>1828.5599999999999</ele>
        <time>2014-03-07T13:58:54Z</time>
      </trkpt>
      <trkpt lat="46.88978036865592" lon="12.191820731386542">
        <ele>1827.5999999999999</ele>
        <time>2014-03-07T13:58:56Z</time>
      </trkpt>
      <trkpt lat="46.88979746773839" lon="12.191797513514757">
        <ele>1826.1600000000001</ele>
        <time>2014-03-07T13:58:58Z</time>
      </trkpt>
      <trkpt lat="46.889862092211843" lon="12.191708497703075">
        <ele>1821.8399999999999</ele>
        <time>2014-03-07T13:59:04Z</time>
      </trkpt>
      <trkpt lat="46.889873743057251" lon="12.191695338115096">
        <ele>1821.8399999999999</ele>
        <time>2014-03-07T13:59:05Z</time>
      </trkpt>
      <trkpt lat="46.889869719743729" lon="12.1915846131742">
        <ele>1818.47</ele>
        <time>2014-03-07T13:59:11Z</time>
      </trkpt>
      <trkpt lat="46.889862176030874" lon="12.191551504656672">
        <ele>1817.51</ele>
        <time>2014-03-07T13:59:13Z</time>
      </trkpt>
      <trkpt lat="46.889882544055581" lon="12.191486964002252">
        <ele>1815.5899999999999</ele>
        <time>2014-03-07T13:59:17Z</time>
      </trkpt>
      <trkpt lat="46.889898553490639" lon="12.19143021851778">
        <ele>1813.6600000000001</ele>
        <time>2014-03-07T13:59:21Z</time>
      </trkpt>
      <trkpt lat="46.889914898201823" lon="12.191337682306767">
        <ele>1809.8199999999999</ele>
        <time>2014-03-07T13:59:27Z</time>
      </trkpt>
      <trkpt lat="46.889924872666597" lon="12.191226119175553">
        <ele>1806.45</ele>
        <time>2014-03-07T13:59:33Z</time>
      </trkpt>
      <trkpt lat="46.889938786625862" lon="12.19117222353816">
        <ele>1804.53</ele>
        <time>2014-03-07T13:59:36Z</time>
      </trkpt>
      <trkpt lat="46.889929147437215" lon="12.191094942390919">
        <ele>1802.6099999999999</ele>
        <time>2014-03-07T13:59:40Z</time>
      </trkpt>
      <trkpt lat="46.889922358095646" lon="12.191018918529153">
        <ele>1800.21</ele>
        <time>2014-03-07T13:59:44Z</time>
      </trkpt>
      <trkpt lat="46.889922274276614" lon="12.190895369276404">
        <ele>1796.3599999999999</ele>
        <time>2014-03-07T13:59:51Z</time>
      </trkpt>
      <trkpt lat="46.889952700585127" lon="12.190853878855705">
        <ele>1794.9200000000001</ele>
        <time>2014-03-07T13:59:54Z</time>
      </trkpt>
      <trkpt lat="46.889990754425526" lon="12.190797049552202">
        <ele>1793.48</ele>
        <time>2014-03-07T13:59:58Z</time>
      </trkpt>
      <trkpt lat="46.889968039467931" lon="12.190753379836679">
        <ele>1792.03</ele>
        <time>2014-03-07T14:00:02Z</time>
      </trkpt>
      <trkpt lat="46.889899224042892" lon="12.190556572750211">
        <ele>1792.03</ele>
        <time>2014-03-07T14:00:16Z</time>
      </trkpt>
      <trkpt lat="46.889892015606165" lon="12.190510472282767">
        <ele>1791.55</ele>
        <time>2014-03-07T14:00:19Z</time>
      </trkpt>
      <trkpt lat="46.889854213222861" lon="12.190388096496463">
        <ele>1792.52</ele>
        <time>2014-03-07T14:00:33Z</time>
      </trkpt>
      <trkpt lat="46.889872904866934" lon="12.190378708764911">
        <ele>1792.52</ele>
        <time>2014-03-07T14:00:50Z</time>
      </trkpt>
      <trkpt lat="46.889845496043563" lon="12.190366052091122">
        <ele>1792.03</ele>
        <time>2014-03-07T14:01:04Z</time>
      </trkpt>
      <trkpt lat="46.889825882390141" lon="12.190370829775929">
        <ele>1792.03</ele>
        <time>2014-03-07T14:01:11Z</time>
      </trkpt>
      <trkpt lat="46.88964013941586" lon="12.190195564180613">
        <ele>1788.6700000000001</ele>
        <time>2014-03-07T14:01:27Z</time>
      </trkpt>
      <trkpt lat="46.889509884640574" lon="12.189989872276783">
        <ele>1786.27</ele>
        <time>2014-03-07T14:01:41Z</time>
      </trkpt>
      <trkpt lat="46.889500077813864" lon="12.189901527017355">
        <ele>1785.79</ele>
        <time>2014-03-07T14:01:52Z</time>
      </trkpt>
      <trkpt lat="46.889503011479974" lon="12.189773116260767">
        <ele>1785.3099999999999</ele>
        <time>2014-03-07T14:02:09Z</time>
      </trkpt>
      <trkpt lat="46.889512063935399" lon="12.189567256718874">
        <ele>1784.3399999999999</ele>
        <time>2014-03-07T14:02:22Z</time>
      </trkpt>
      <trkpt lat="46.889519607648253" lon="12.1893344912678">
        <ele>1785.3099999999999</ele>
        <time>2014-03-07T14:02:37Z</time>
      </trkpt>
      <trkpt lat="46.889516254886985" lon="12.189325606450438">
        <ele>1784.8199999999999</ele>
        <time>2014-03-07T14:02:38Z</time>
      </trkpt>
      <trkpt lat="46.889389855787158" lon="12.189198201522231">
        <ele>1781.9400000000001</ele>
        <time>2014-03-07T14:02:52Z</time>
      </trkpt>
      <trkpt lat="46.889280723407865" lon="12.189069706946611">
        <ele>1779.0599999999999</ele>
        <time>2014-03-07T14:03:04Z</time>
      </trkpt>
      <trkpt lat="46.889205537736416" lon="12.18899292871356">
        <ele>1778.0999999999999</ele>
        <time>2014-03-07T14:03:13Z</time>
      </trkpt>
      <trkpt lat="46.889164466410875" lon="12.188812885433435">
        <ele>1776.6500000000001</ele>
        <time>2014-03-07T14:03:26Z</time>
      </trkpt>
      <trkpt lat="46.889173686504364" lon="12.188770137727261">
        <ele>1776.6500000000001</ele>
        <time>2014-03-07T14:03:29Z</time>
      </trkpt>
      <trkpt lat="46.889205034822226" lon="12.188608702272177">
        <ele>1775.21</ele>
        <time>2014-03-07T14:03:37Z</time>
      </trkpt>
      <trkpt lat="46.88923018053174" lon="12.188427653163671">
        <ele>1775.21</ele>
        <time>2014-03-07T14:03:50Z</time>
      </trkpt>
      <trkpt lat="46.889237724244595" lon="12.18835573643446">
        <ele>1774.73</ele>
        <time>2014-03-07T14:03:56Z</time>
      </trkpt>
      <trkpt lat="46.889245770871639" lon="12.188279293477535">
        <ele>1775.21</ele>
        <time>2014-03-07T14:04:02Z</time>
      </trkpt>
      <trkpt lat="46.889260690659285" lon="12.188117858022451">
        <ele>1773.77</ele>
        <time>2014-03-07T14:04:12Z</time>
      </trkpt>
      <trkpt lat="46.889264211058617" lon="12.188074607402086">
        <ele>1773.77</ele>
        <time>2014-03-07T14:04:15Z</time>
      </trkpt>
      <trkpt lat="46.889262869954109" lon="12.187928846105933">
        <ele>1772.3299999999999</ele>
        <time>2014-03-07T14:04:24Z</time>
      </trkpt>
      <trkpt lat="46.889234790578485" lon="12.187850140035152">
        <ele>1771.3699999999999</ele>
        <time>2014-03-07T14:04:32Z</time>
      </trkpt>
      <trkpt lat="46.889256751164794" lon="12.187872435897589">
        <ele>1770.4100000000001</ele>
        <time>2014-03-07T14:04:47Z</time>
      </trkpt>
      <trkpt lat="46.889245603233576" lon="12.187892971560359">
        <ele>1770.4100000000001</ele>
        <time>2014-03-07T14:05:08Z</time>
      </trkpt>
      <trkpt lat="46.889249123632908" lon="12.187913088127971">
        <ele>1770.4100000000001</ele>
        <time>2014-03-07T14:05:37Z</time>
      </trkpt>
      <trkpt lat="46.889273263514042" lon="12.187890289351344">
        <ele>1770.8900000000001</ele>
        <time>2014-03-07T14:06:08Z</time>
      </trkpt>
      <trkpt lat="46.8892443459481" lon="12.187970001250505">
        <ele>1770.8900000000001</ele>
        <time>2014-03-07T14:06:46Z</time>
      </trkpt>
      <trkpt lat="46.889227582141757" lon="12.187879309058189">
        <ele>1771.8499999999999</ele>
        <time>2014-03-07T14:07:14Z</time>
      </trkpt>
      <trkpt lat="46.889252979308367" lon="12.187837399542332">
        <ele>1772.3299999999999</ele>
        <time>2014-03-07T14:07:26Z</time>
      </trkpt>
      <trkpt lat="46.889257756993175" lon="12.187824323773384">
        <ele>1772.8099999999999</ele>
        <time>2014-03-07T14:07:45Z</time>
      </trkpt>
      <trkpt lat="46.889263456687331" lon="12.187839662656188">
        <ele>1772.3299999999999</ele>
        <time>2014-03-07T14:08:04Z</time>
      </trkpt>
      <trkpt lat="46.889259098097682" lon="12.187831532210112">
        <ele>1772.8099999999999</ele>
        <time>2014-03-07T14:08:22Z</time>
      </trkpt>
      <trkpt lat="46.889242753386497" lon="12.187761291861534">
        <ele>1772.3299999999999</ele>
        <time>2014-03-07T14:08:44Z</time>
      </trkpt>
      <trkpt lat="46.88922967761755" lon="12.187708904966712">
        <ele>1772.3299999999999</ele>
        <time>2014-03-07T14:08:58Z</time>
      </trkpt>
      <trkpt lat="46.889202352613211" lon="12.187546631321311">
        <ele>1770.4100000000001</ele>
        <time>2014-03-07T14:09:13Z</time>
      </trkpt>
      <trkpt lat="46.889180392026901" lon="12.187237842008471">
        <ele>1768.48</ele>
        <time>2014-03-07T14:09:30Z</time>
      </trkpt>
      <trkpt lat="46.889179889112711" lon="12.186991330236197">
        <ele>1766.0799999999999</ele>
        <time>2014-03-07T14:09:46Z</time>
      </trkpt>
      <trkpt lat="46.889174859970808" lon="12.186949755996466">
        <ele>1765.5999999999999</ele>
        <time>2014-03-07T14:09:52Z</time>
      </trkpt>
      <trkpt lat="46.889156419783831" lon="12.186750015243888">
        <ele>1763.6800000000001</ele>
        <time>2014-03-07T14:10:05Z</time>
      </trkpt>
      <trkpt lat="46.889154156669974" lon="12.186506856232882">
        <ele>1760.79</ele>
        <time>2014-03-07T14:10:18Z</time>
      </trkpt>
      <trkpt lat="46.889156838878989" lon="12.186487829312682">
        <ele>1760.3099999999999</ele>
        <time>2014-03-07T14:10:19Z</time>
      </trkpt>
      <trkpt lat="46.889161448925734" lon="12.186357071623206">
        <ele>1759.3499999999999</ele>
        <time>2014-03-07T14:10:26Z</time>
      </trkpt>
      <trkpt lat="46.889172932133079" lon="12.18626101501286">
        <ele>1758.8699999999999</ele>
        <time>2014-03-07T14:10:31Z</time>
      </trkpt>
      <trkpt lat="46.889176201075315" lon="12.185916434973478">
        <ele>1755.99</ele>
        <time>2014-03-07T14:10:48Z</time>
      </trkpt>
      <trkpt lat="46.889203023165464" lon="12.18587695620954">
        <ele>1755.99</ele>
        <time>2014-03-07T14:11:04Z</time>
      </trkpt>
      <trkpt lat="46.889197994023561" lon="12.185819456353784">
        <ele>1755.02</ele>
        <time>2014-03-07T14:11:18Z</time>
      </trkpt>
      <trkpt lat="46.889201095327735" lon="12.185647124424577">
        <ele>1754.0599999999999</ele>
        <time>2014-03-07T14:11:28Z</time>
      </trkpt>
      <trkpt lat="46.88920620828867" lon="12.18553245998919">
        <ele>1753.0999999999999</ele>
        <time>2014-03-07T14:11:34Z</time>
      </trkpt>
      <trkpt lat="46.889203526079655" lon="12.185229705646634">
        <ele>1750.7</ele>
        <time>2014-03-07T14:11:50Z</time>
      </trkpt>
      <trkpt lat="46.889177793636918" lon="12.184950169175863">
        <ele>1748.29</ele>
        <time>2014-03-07T14:12:05Z</time>
      </trkpt>
      <trkpt lat="46.889122724533081" lon="12.184677924960852">
        <ele>1745.4100000000001</ele>
        <time>2014-03-07T14:12:20Z</time>
      </trkpt>
      <trkpt lat="46.889077965170145" lon="12.184543563053012">
        <ele>1743.97</ele>
        <time>2014-03-07T14:12:29Z</time>
      </trkpt>
      <trkpt lat="46.88906354829669" lon="12.184503832831979">
        <ele>1743.49</ele>
        <time>2014-03-07T14:12:31Z</time>
      </trkpt>
      <trkpt lat="46.889027673751116" lon="12.184303924441338">
        <ele>1742.05</ele>
        <time>2014-03-07T14:12:43Z</time>
      </trkpt>
      <trkpt lat="46.888984087854624" lon="12.184151876717806">
        <ele>1740.5999999999999</ele>
        <time>2014-03-07T14:12:52Z</time>
      </trkpt>
      <trkpt lat="46.888914098963141" lon="12.183866556733847">
        <ele>1737.24</ele>
        <time>2014-03-07T14:13:07Z</time>
      </trkpt>
      <trkpt lat="46.888859113678336" lon="12.183641586452723">
        <ele>1735.3199999999999</ele>
        <time>2014-03-07T14:13:20Z</time>
      </trkpt>
      <trkpt lat="46.888797171413898" lon="12.183374287560582">
        <ele>1732.9100000000001</ele>
        <time>2014-03-07T14:13:35Z</time>
      </trkpt>
      <trkpt lat="46.888770181685686" lon="12.183120734989643">
        <ele>1730.99</ele>
        <time>2014-03-07T14:13:49Z</time>
      </trkpt>
      <trkpt lat="46.888764733448625" lon="12.182981763035059">
        <ele>1729.55</ele>
        <time>2014-03-07T14:13:57Z</time>
      </trkpt>
      <trkpt lat="46.888811085373163" lon="12.18280783854425">
        <ele>1728.1099999999999</ele>
        <time>2014-03-07T14:14:07Z</time>
      </trkpt>
      <trkpt lat="46.888902196660638" lon="12.1825479157269">
        <ele>1725.7</ele>
        <time>2014-03-07T14:14:23Z</time>
      </trkpt>
      <trkpt lat="46.888936562463641" lon="12.182277096435428">
        <ele>1723.3</ele>
        <time>2014-03-07T14:14:39Z</time>
      </trkpt>
      <trkpt lat="46.888946536928415" lon="12.181918350979686">
        <ele>1719.9400000000001</ele>
        <time>2014-03-07T14:14:58Z</time>
      </trkpt>
      <trkpt lat="46.888935808092356" lon="12.181652225553989">
        <ele>1717.53</ele>
        <time>2014-03-07T14:15:13Z</time>
      </trkpt>
      <trkpt lat="46.888870177790523" lon="12.181356847286224">
        <ele>1714.6500000000001</ele>
        <time>2014-03-07T14:15:30Z</time>
      </trkpt>
      <trkpt lat="46.888764817267656" lon="12.181066414341331">
        <ele>1711.76</ele>
        <time>2014-03-07T14:15:48Z</time>
      </trkpt>
      <trkpt lat="46.888611260801554" lon="12.180790565907955">
        <ele>1708.8800000000001</ele>
        <time>2014-03-07T14:16:07Z</time>
      </trkpt>
      <trkpt lat="46.888482766225934" lon="12.180524356663227">
        <ele>1706</ele>
        <time>2014-03-07T14:16:25Z</time>
      </trkpt>
      <trkpt lat="46.888355948030949" lon="12.180326795205474">
        <ele>1704.0699999999999</ele>
        <time>2014-03-07T14:16:40Z</time>
      </trkpt>
      <trkpt lat="46.888288892805576" lon="12.180220764130354">
        <ele>1702.6300000000001</ele>
        <time>2014-03-07T14:16:48Z</time>
      </trkpt>
      <trkpt lat="46.888181855902076" lon="12.180043151602149">
        <ele>1700.23</ele>
        <time>2014-03-07T14:17:01Z</time>
      </trkpt>
      <trkpt lat="46.888083536177874" lon="12.179732350632548">
        <ele>1697.8299999999999</ele>
        <time>2014-03-07T14:17:19Z</time>
      </trkpt>
      <trkpt lat="46.888009943068027" lon="12.179424483329058">
        <ele>1695.4200000000001</ele>
        <time>2014-03-07T14:17:36Z</time>
      </trkpt>
      <trkpt lat="46.887974990531802" lon="12.179123321548104">
        <ele>1693.02</ele>
        <time>2014-03-07T14:17:52Z</time>
      </trkpt>
      <trkpt lat="46.887933248654008" lon="12.178784608840942">
        <ele>1690.6199999999999</ele>
        <time>2014-03-07T14:18:09Z</time>
      </trkpt>
      <trkpt lat="46.887918831780553" lon="12.178557543084025">
        <ele>1688.6900000000001</ele>
        <time>2014-03-07T14:18:22Z</time>
      </trkpt>
      <trkpt lat="46.887901145964861" lon="12.178362160921097">
        <ele>1687.73</ele>
        <time>2014-03-07T14:18:32Z</time>
      </trkpt>
      <trkpt lat="46.887887567281723" lon="12.178114978596568">
        <ele>1686.77</ele>
        <time>2014-03-07T14:18:45Z</time>
      </trkpt>
      <trkpt lat="46.887871222570539" lon="12.17780870385468">
        <ele>1685.3299999999999</ele>
        <time>2014-03-07T14:19:02Z</time>
      </trkpt>
      <trkpt lat="46.887889411300421" lon="12.177577614784241">
        <ele>1683.8900000000001</ele>
        <time>2014-03-07T14:19:16Z</time>
      </trkpt>
      <trkpt lat="46.88793727196753" lon="12.177256671711802">
        <ele>1681</ele>
        <time>2014-03-07T14:19:33Z</time>
      </trkpt>
      <trkpt lat="46.887915981933475" lon="12.177039245143533">
        <ele>1679.5599999999999</ele>
        <time>2014-03-07T14:19:48Z</time>
      </trkpt>
      <trkpt lat="46.887911707162857" lon="12.17702298425138">
        <ele>1679.5599999999999</ele>
        <time>2014-03-07T14:19:49Z</time>
      </trkpt>
      <trkpt lat="46.887887483462691" lon="12.176744788885117">
        <ele>1678.1199999999999</ele>
        <time>2014-03-07T14:20:05Z</time>
      </trkpt>
      <trkpt lat="46.887877089902759" lon="12.176687121391296">
        <ele>1677.1600000000001</ele>
        <time>2014-03-07T14:20:08Z</time>
      </trkpt>
      <trkpt lat="46.887840460985899" lon="12.176346480846405">
        <ele>1675.72</ele>
        <time>2014-03-07T14:20:27Z</time>
      </trkpt>
      <trkpt lat="46.887812884524465" lon="12.176053784787655">
        <ele>1674.27</ele>
        <time>2014-03-07T14:20:43Z</time>
      </trkpt>
      <trkpt lat="46.887752031907439" lon="12.175792772322893">
        <ele>1672.3499999999999</ele>
        <time>2014-03-07T14:21:00Z</time>
      </trkpt>
      <trkpt lat="46.887699812650681" lon="12.175584398210049">
        <ele>1670.4300000000001</ele>
        <time>2014-03-07T14:21:14Z</time>
      </trkpt>
      <trkpt lat="46.887716827914119" lon="12.175587834790349">
        <ele>1669.95</ele>
        <time>2014-03-07T14:21:25Z</time>
      </trkpt>
      <trkpt lat="46.887718671932817" lon="12.175607364624739">
        <ele>1670.9100000000001</ele>
        <time>2014-03-07T14:21:44Z</time>
      </trkpt>
      <trkpt lat="46.88771397806704" lon="12.175589594990015">
        <ele>1670.4300000000001</ele>
        <time>2014-03-07T14:22:03Z</time>
      </trkpt>
      <trkpt lat="46.887712804600596" lon="12.175604933872819">
        <ele>1670.4300000000001</ele>
        <time>2014-03-07T14:22:23Z</time>
      </trkpt>
      <trkpt lat="46.88772956840694" lon="12.175614405423403">
        <ele>1670.9100000000001</ele>
        <time>2014-03-07T14:22:43Z</time>
      </trkpt>
      <trkpt lat="46.887731999158859" lon="12.175619434565306">
        <ele>1670.4300000000001</ele>
        <time>2014-03-07T14:23:01Z</time>
      </trkpt>
      <trkpt lat="46.887743230909109" lon="12.175594875589013">
        <ele>1670.4300000000001</ele>
        <time>2014-03-07T14:23:23Z</time>
      </trkpt>
      <trkpt lat="46.887722443789244" lon="12.175600742921233">
        <ele>1670.4300000000001</ele>
        <time>2014-03-07T14:23:40Z</time>
      </trkpt>
      <trkpt lat="46.887657819315791" lon="12.175512397661805">
        <ele>1669.47</ele>
        <time>2014-03-07T14:23:53Z</time>
      </trkpt>
      <trkpt lat="46.887565283104777" lon="12.175303855910897">
        <ele>1668.99</ele>
        <time>2014-03-07T14:24:10Z</time>
      </trkpt>
      <trkpt lat="46.887564277276397" lon="12.175287008285522">
        <ele>1668.99</ele>
        <time>2014-03-07T14:24:26Z</time>
      </trkpt>
      <trkpt lat="46.887576850131154" lon="12.175298742949963">
        <ele>1668.99</ele>
        <time>2014-03-07T14:24:46Z</time>
      </trkpt>
      <trkpt lat="46.887565786018968" lon="12.175287595018744">
        <ele>1668.99</ele>
        <time>2014-03-07T14:25:10Z</time>
      </trkpt>
      <trkpt lat="46.887545669451356" lon="12.175341993570328">
        <ele>1668.51</ele>
        <time>2014-03-07T14:25:34Z</time>
      </trkpt>
      <trkpt lat="46.887520272284746" lon="12.175342412665486">
        <ele>1668.51</ele>
        <time>2014-03-07T14:25:47Z</time>
      </trkpt>
      <trkpt lat="46.887535443529487" lon="12.175320535898209">
        <ele>1668.51</ele>
        <time>2014-03-07T14:26:10Z</time>
      </trkpt>
      <trkpt lat="46.887535778805614" lon="12.175336461514235">
        <ele>1668.51</ele>
        <time>2014-03-07T14:26:29Z</time>
      </trkpt>
      <trkpt lat="46.887562433257699" lon="12.17532305046916">
        <ele>1668.02</ele>
        <time>2014-03-07T14:26:50Z</time>
      </trkpt>
      <trkpt lat="46.88755614683032" lon="12.175315339118242">
        <ele>1668.51</ele>
        <time>2014-03-07T14:27:05Z</time>
      </trkpt>
      <trkpt lat="46.887554386630654" lon="12.175391195341945">
        <ele>1668.99</ele>
        <time>2014-03-07T14:27:18Z</time>
      </trkpt>
      <trkpt lat="46.887510465458035" lon="12.175365881994367">
        <ele>1667.54</ele>
        <time>2014-03-07T14:27:33Z</time>
      </trkpt>
      <trkpt lat="46.887511219829321" lon="12.175365295261145">
        <ele>1667.54</ele>
        <time>2014-03-07T14:28:01Z</time>
      </trkpt>
      <trkpt lat="46.887520607560873" lon="12.17537141405046">
        <ele>1668.02</ele>
        <time>2014-03-07T14:28:15Z</time>
      </trkpt>
      <trkpt lat="46.887528402730823" lon="12.175345094874501">
        <ele>1667.54</ele>
        <time>2014-03-07T14:28:31Z</time>
      </trkpt>
      <trkpt lat="46.8875434063375" lon="12.175361271947622">
        <ele>1668.02</ele>
        <time>2014-03-07T14:28:55Z</time>
      </trkpt>
      <trkpt lat="46.887558996677399" lon="12.175338137894869">
        <ele>1671.3900000000001</ele>
        <time>2014-03-07T14:29:06Z</time>
      </trkpt>
      <trkpt lat="46.887559834867716" lon="12.17534014955163">
        <ele>1668.02</ele>
        <time>2014-03-07T14:29:07Z</time>
      </trkpt>
      <trkpt lat="46.887546507641673" lon="12.175349956378341">
        <ele>1668.02</ele>
        <time>2014-03-07T14:29:16Z</time>
      </trkpt>
      <trkpt lat="46.887549860402942" lon="12.175349034368992">
        <ele>1668.99</ele>
        <time>2014-03-07T14:29:26Z</time>
      </trkpt>
      <trkpt lat="46.887548603117466" lon="12.17536604963243">
        <ele>1668.02</ele>
        <time>2014-03-07T14:29:45Z</time>
      </trkpt>
      <trkpt lat="46.887539969757199" lon="12.175318021327257">
        <ele>1668.51</ele>
        <time>2014-03-07T14:30:06Z</time>
      </trkpt>
      <trkpt lat="46.887521864846349" lon="12.175352890044451">
        <ele>1668.51</ele>
        <time>2014-03-07T14:30:23Z</time>
      </trkpt>
      <trkpt lat="46.88752337358892" lon="12.175331600010395">
        <ele>1667.54</ele>
        <time>2014-03-07T14:30:37Z</time>
      </trkpt>
      <trkpt lat="46.887448020279408" lon="12.17532891780138">
        <ele>1668.99</ele>
        <time>2014-03-07T14:31:14Z</time>
      </trkpt>
      <trkpt lat="46.887495126575232" lon="12.175373174250126">
        <ele>1668.51</ele>
        <time>2014-03-07T14:31:32Z</time>
      </trkpt>
      <trkpt lat="46.887530414387584" lon="12.175366301089525">
        <ele>1668.51</ele>
        <time>2014-03-07T14:31:55Z</time>
      </trkpt>
      <trkpt lat="46.887548100203276" lon="12.17540611512959">
        <ele>1668.99</ele>
        <time>2014-03-07T14:32:14Z</time>
      </trkpt>
      <trkpt lat="46.887543573975563" lon="12.175408126786351">
        <ele>1668.99</ele>
        <time>2014-03-07T14:32:38Z</time>
      </trkpt>
      <trkpt lat="46.887524044141173" lon="12.175454394891858">
        <ele>1669.47</ele>
        <time>2014-03-07T14:33:04Z</time>
      </trkpt>
      <trkpt lat="46.887538880109787" lon="12.17552731744945">
        <ele>1669.47</ele>
        <time>2014-03-07T14:33:27Z</time>
      </trkpt>
      <trkpt lat="46.887452965602279" lon="12.175487419590354">
        <ele>1669.47</ele>
        <time>2014-03-07T14:33:45Z</time>
      </trkpt>
      <trkpt lat="46.887538293376565" lon="12.175432685762644">
        <ele>1669.47</ele>
        <time>2014-03-07T14:34:10Z</time>
      </trkpt>
      <trkpt lat="46.887504262849689" lon="12.175388345494866">
        <ele>1669.47</ele>
        <time>2014-03-07T14:34:34Z</time>
      </trkpt>
      <trkpt lat="46.887497724965215" lon="12.1754349488765">
        <ele>1668.99</ele>
        <time>2014-03-07T14:34:55Z</time>
      </trkpt>
      <trkpt lat="46.887459503486753" lon="12.175452886149287">
        <ele>1669.95</ele>
        <time>2014-03-07T14:35:24Z</time>
      </trkpt>
      <trkpt lat="46.887526558712125" lon="12.17538801021874">
        <ele>1669.95</ele>
        <time>2014-03-07T14:35:47Z</time>
      </trkpt>
      <trkpt lat="46.887487079948187" lon="12.175350291654468">
        <ele>1669.95</ele>
        <time>2014-03-07T14:36:14Z</time>
      </trkpt>
      <trkpt lat="46.887510130181909" lon="12.175421789288521">
        <ele>1669.95</ele>
        <time>2014-03-07T14:36:46Z</time>
      </trkpt>
      <trkpt lat="46.88755220733583" lon="12.175361271947622">
        <ele>1670.9100000000001</ele>
        <time>2014-03-07T14:37:10Z</time>
      </trkpt>
      <trkpt lat="46.887550782412291" lon="12.175378454849124">
        <ele>1669.95</ele>
        <time>2014-03-07T14:37:26Z</time>
      </trkpt>
      <trkpt lat="46.887584729120135" lon="12.175356997177005">
        <ele>1670.4300000000001</ele>
        <time>2014-03-07T14:37:53Z</time>
      </trkpt>
      <trkpt lat="46.887574838474393" lon="12.17539387755096">
        <ele>1671.8699999999999</ele>
        <time>2014-03-07T14:38:05Z</time>
      </trkpt>
      <trkpt lat="46.887516165152192" lon="12.17532305046916">
        <ele>1671.3900000000001</ele>
        <time>2014-03-07T14:38:17Z</time>
      </trkpt>
      <trkpt lat="46.887559415772557" lon="12.175323385745287">
        <ele>1671.8699999999999</ele>
        <time>2014-03-07T14:38:40Z</time>
      </trkpt>
      <trkpt lat="46.887519434094429" lon="12.175340065732598">
        <ele>1670.9100000000001</ele>
        <time>2014-03-07T14:38:50Z</time>
      </trkpt>
      <trkpt lat="46.887501832097769" lon="12.175314920023084">
        <ele>1670.9100000000001</ele>
        <time>2014-03-07T14:38:56Z</time>
      </trkpt>
      <trkpt lat="46.887373421341181" lon="12.175096655264497">
        <ele>1669.95</ele>
        <time>2014-03-07T14:39:14Z</time>
      </trkpt>
      <trkpt lat="46.887223133817315" lon="12.174860285595059">
        <ele>1667.54</ele>
        <time>2014-03-07T14:39:32Z</time>
      </trkpt>
      <trkpt lat="46.887089777737856" lon="12.174640512093902">
        <ele>1667.0599999999999</ele>
        <time>2014-03-07T14:39:49Z</time>
      </trkpt>
      <trkpt lat="46.887115677818656" lon="12.174555435776711">
        <ele>1666.5799999999999</ele>
        <time>2014-03-07T14:39:55Z</time>
      </trkpt>
      <trkpt lat="46.887120036408305" lon="12.174456529319286">
        <ele>1665.6199999999999</ele>
        <time>2014-03-07T14:40:01Z</time>
      </trkpt>
      <trkpt lat="46.887023895978928" lon="12.174130557104945">
        <ele>1664.1800000000001</ele>
        <time>2014-03-07T14:40:20Z</time>
      </trkpt>
      <trkpt lat="46.886936221271753" lon="12.173788491636515">
        <ele>1663.22</ele>
        <time>2014-03-07T14:40:39Z</time>
      </trkpt>
      <trkpt lat="46.886909231543541" lon="12.173725962638855">
        <ele>1662.74</ele>
        <time>2014-03-07T14:40:50Z</time>
      </trkpt>
      <trkpt lat="46.886861873790622" lon="12.173459334298968">
        <ele>1661.78</ele>
        <time>2014-03-07T14:41:06Z</time>
      </trkpt>
      <trkpt lat="46.886831112205982" lon="12.173389010131359">
        <ele>1661.3</ele>
        <time>2014-03-07T14:41:19Z</time>
      </trkpt>
      <trkpt lat="46.886852402240038" lon="12.173317847773433">
        <ele>1661.78</ele>
        <time>2014-03-07T14:41:38Z</time>
      </trkpt>
      <trkpt lat="46.886852318421006" lon="12.173286415636539">
        <ele>1661.3</ele>
        <time>2014-03-07T14:41:42Z</time>
      </trkpt>
      <trkpt lat="46.886845361441374" lon="12.173274261876941">
        <ele>1661.3</ele>
        <time>2014-03-07T14:41:56Z</time>
      </trkpt>
      <trkpt lat="46.886842176318169" lon="12.173289097845554">
        <ele>1661.3</ele>
        <time>2014-03-07T14:42:15Z</time>
      </trkpt>
      <trkpt lat="46.886870507150888" lon="12.17321215197444">
        <ele>1661.3</ele>
        <time>2014-03-07T14:42:30Z</time>
      </trkpt>
      <trkpt lat="46.886900011450052" lon="12.173089105635881">
        <ele>1661.3</ele>
        <time>2014-03-07T14:42:45Z</time>
      </trkpt>
      <trkpt lat="46.886903112754226" lon="12.172923227772117">
        <ele>1660.3299999999999</ele>
        <time>2014-03-07T14:42:58Z</time>
      </trkpt>
      <trkpt lat="46.886901268735528" lon="12.172866649925709">
        <ele>1660.3299999999999</ele>
        <time>2014-03-07T14:43:01Z</time>
      </trkpt>
      <trkpt lat="46.886822981759906" lon="12.172560123726726">
        <ele>1659.3699999999999</ele>
        <time>2014-03-07T14:43:19Z</time>
      </trkpt>
      <trkpt lat="46.886738240718842" lon="12.172339176759124">
        <ele>1658.8900000000001</ele>
        <time>2014-03-07T14:43:34Z</time>
      </trkpt>
      <trkpt lat="46.88673815689981" lon="12.172329872846603">
        <ele>1658.8900000000001</ele>
        <time>2014-03-07T14:43:36Z</time>
      </trkpt>
      <trkpt lat="46.886732708662748" lon="12.172264158725739">
        <ele>1658.4100000000001</ele>
        <time>2014-03-07T14:43:40Z</time>
      </trkpt>
      <trkpt lat="46.886618882417679" lon="12.17194220982492">
        <ele>1657.9300000000001</ele>
        <time>2014-03-07T14:43:59Z</time>
      </trkpt>
      <trkpt lat="46.886595161631703" lon="12.171838441863656">
        <ele>1657.45</ele>
        <time>2014-03-07T14:44:05Z</time>
      </trkpt>
      <trkpt lat="46.886565154418349" lon="12.171783037483692">
        <ele>1656.97</ele>
        <time>2014-03-07T14:44:09Z</time>
      </trkpt>
      <trkpt lat="46.886430373415351" lon="12.171405516564846">
        <ele>1656.97</ele>
        <time>2014-03-07T14:44:31Z</time>
      </trkpt>
      <trkpt lat="46.886312691494823" lon="12.171101924031973">
        <ele>1656.01</ele>
        <time>2014-03-07T14:44:50Z</time>
      </trkpt>
      <trkpt lat="46.886168522760272" lon="12.170832026749849">
        <ele>1655.05</ele>
        <time>2014-03-07T14:45:08Z</time>
      </trkpt>
      <trkpt lat="46.886022174730897" lon="12.170554166659713">
        <ele>1656.01</ele>
        <time>2014-03-07T14:45:27Z</time>
      </trkpt>
      <trkpt lat="46.885877419263124" lon="12.170281670987606">
        <ele>1656.01</ele>
        <time>2014-03-07T14:45:44Z</time>
      </trkpt>
      <trkpt lat="46.885835342109203" lon="12.170189050957561">
        <ele>1656.49</ele>
        <time>2014-03-07T14:45:51Z</time>
      </trkpt>
      <trkpt lat="46.885692682117224" lon="12.169990818947554">
        <ele>1656.49</ele>
        <time>2014-03-07T14:46:08Z</time>
      </trkpt>
      <trkpt lat="46.885557398200035" lon="12.169779594987631">
        <ele>1656.49</ele>
        <time>2014-03-07T14:46:24Z</time>
      </trkpt>
      <trkpt lat="46.885407948866487" lon="12.169497292488813">
        <ele>1656.49</ele>
        <time>2014-03-07T14:46:44Z</time>
      </trkpt>
      <trkpt lat="46.885258415713906" lon="12.169234603643417">
        <ele>1656.49</ele>
        <time>2014-03-07T14:47:03Z</time>
      </trkpt>
      <trkpt lat="46.885136291384697" lon="12.169032013043761">
        <ele>1656.01</ele>
        <time>2014-03-07T14:47:20Z</time>
      </trkpt>
      <trkpt lat="46.885031098499894" lon="12.168839061632752">
        <ele>1656.01</ele>
        <time>2014-03-07T14:47:36Z</time>
      </trkpt>
      <trkpt lat="46.884863208979368" lon="12.168545024469495">
        <ele>1656.49</ele>
        <time>2014-03-07T14:47:58Z</time>
      </trkpt>
      <trkpt lat="46.884740665555" lon="12.16832684352994">
        <ele>1656.01</ele>
        <time>2014-03-07T14:48:14Z</time>
      </trkpt>
      <trkpt lat="46.884606303647161" lon="12.168137496337295">
        <ele>1655.53</ele>
        <time>2014-03-07T14:48:32Z</time>
      </trkpt>
      <trkpt lat="46.884578811004758" lon="12.168137496337295">
        <ele>1656.01</ele>
        <time>2014-03-07T14:48:44Z</time>
      </trkpt>
      <trkpt lat="46.88458476215601" lon="12.168094329535961">
        <ele>1655.53</ele>
        <time>2014-03-07T14:48:47Z</time>
      </trkpt>
      <trkpt lat="46.884452076628804" lon="12.167852343991399">
        <ele>1655.53</ele>
        <time>2014-03-07T14:49:05Z</time>
      </trkpt>
      <trkpt lat="46.884307237342" lon="12.167600300163031">
        <ele>1655.53</ele>
        <time>2014-03-07T14:49:25Z</time>
      </trkpt>
      <trkpt lat="46.884170696139336" lon="12.167375916615129">
        <ele>1655.53</ele>
        <time>2014-03-07T14:49:43Z</time>
      </trkpt>
      <trkpt lat="46.884041279554367" lon="12.167172906920314">
        <ele>1655.53</ele>
        <time>2014-03-07T14:49:59Z</time>
      </trkpt>
      <trkpt lat="46.8839031457901" lon="12.166927652433515">
        <ele>1655.05</ele>
        <time>2014-03-07T14:50:19Z</time>
      </trkpt>
      <trkpt lat="46.883789235725999" lon="12.16675590723753">
        <ele>1654.5699999999999</ele>
        <time>2014-03-07T14:50:34Z</time>
      </trkpt>
      <trkpt lat="46.88364171423018" lon="12.16650478541851">
        <ele>1654.5699999999999</ele>
        <time>2014-03-07T14:50:54Z</time>
      </trkpt>
      <trkpt lat="46.883641881868243" lon="12.166514424607158">
        <ele>1654.5699999999999</ele>
        <time>2014-03-07T14:51:02Z</time>
      </trkpt>
      <trkpt lat="46.883487068116665" lon="12.166253160685301">
        <ele>1654.0899999999999</ele>
        <time>2014-03-07T14:51:20Z</time>
      </trkpt>
      <trkpt lat="46.883353795856237" lon="12.165981670841575">
        <ele>1654.0899999999999</ele>
        <time>2014-03-07T14:51:39Z</time>
      </trkpt>
      <trkpt lat="46.883314149454236" lon="12.165733650326729">
        <ele>1654.0899999999999</ele>
        <time>2014-03-07T14:51:55Z</time>
      </trkpt>
      <trkpt lat="46.883282549679279" lon="12.165476409718394">
        <ele>1654.0899999999999</ele>
        <time>2014-03-07T14:52:12Z</time>
      </trkpt>
      <trkpt lat="46.883286321535707" lon="12.165247416123748">
        <ele>1653.5999999999999</ele>
        <time>2014-03-07T14:52:30Z</time>
      </trkpt>
      <trkpt lat="46.883282717317343" lon="12.164999730885029">
        <ele>1654.0899999999999</ele>
        <time>2014-03-07T14:52:46Z</time>
      </trkpt>
      <trkpt lat="46.883284896612167" lon="12.164703430607915">
        <ele>1653.5999999999999</ele>
        <time>2014-03-07T14:53:05Z</time>
      </trkpt>
      <trkpt lat="46.883318927139044" lon="12.164376704022288">
        <ele>1653.5999999999999</ele>
        <time>2014-03-07T14:53:25Z</time>
      </trkpt>
      <trkpt lat="46.883372319862247" lon="12.164112171158195">
        <ele>1653.5999999999999</ele>
        <time>2014-03-07T14:53:41Z</time>
      </trkpt>
      <trkpt lat="46.883472315967083" lon="12.163867000490427">
        <ele>1653.5999999999999</ele>
        <time>2014-03-07T14:53:58Z</time>
      </trkpt>
      <trkpt lat="46.883566696196795" lon="12.163582602515817">
        <ele>1653.1199999999999</ele>
        <time>2014-03-07T14:54:17Z</time>
      </trkpt>
      <trkpt lat="46.883631153032184" lon="12.163371713832021">
        <ele>1653.5999999999999</ele>
        <time>2014-03-07T14:54:32Z</time>
      </trkpt>
      <trkpt lat="46.88371941447258" lon="12.163129644468427">
        <ele>1653.5999999999999</ele>
        <time>2014-03-07T14:54:49Z</time>
      </trkpt>
      <trkpt lat="46.883810609579086" lon="12.162865865975618">
        <ele>1653.1199999999999</ele>
        <time>2014-03-07T14:55:06Z</time>
      </trkpt>
      <trkpt lat="46.883897697553039" lon="12.162602506577969">
        <ele>1653.1199999999999</ele>
        <time>2014-03-07T14:55:24Z</time>
      </trkpt>
      <trkpt lat="46.883974559605122" lon="12.162310481071472">
        <ele>1653.1199999999999</ele>
        <time>2014-03-07T14:55:43Z</time>
      </trkpt>
      <trkpt lat="46.884033903479576" lon="12.162064891308546">
        <ele>1653.1199999999999</ele>
        <time>2014-03-07T14:55:58Z</time>
      </trkpt>
      <trkpt lat="46.884102132171392" lon="12.161775631830096">
        <ele>1653.5999999999999</ele>
        <time>2014-03-07T14:56:15Z</time>
      </trkpt>
      <trkpt lat="46.884161727502942" lon="12.161571700125933">
        <ele>1652.6400000000001</ele>
        <time>2014-03-07T14:56:29Z</time>
      </trkpt>
      <trkpt lat="46.884218472987413" lon="12.161367181688547">
        <ele>1651.6800000000001</ele>
        <time>2014-03-07T14:56:43Z</time>
      </trkpt>
      <trkpt lat="46.884282929822803" lon="12.161172218620777">
        <ele>1652.6400000000001</ele>
        <time>2014-03-07T14:56:56Z</time>
      </trkpt>
      <trkpt lat="46.884389044716954" lon="12.16104288585484">
        <ele>1652.1600000000001</ele>
        <time>2014-03-07T14:57:12Z</time>
      </trkpt>
      <trkpt lat="46.884395163506269" lon="12.161025702953339">
        <ele>1652.1600000000001</ele>
        <time>2014-03-07T14:57:33Z</time>
      </trkpt>
      <trkpt lat="46.884470852091908" lon="12.160942135378718">
        <ele>1652.1600000000001</ele>
        <time>2014-03-07T14:57:54Z</time>
      </trkpt>
      <trkpt lat="46.884588785469532" lon="12.16069252230227">
        <ele>1653.1199999999999</ele>
        <time>2014-03-07T14:58:12Z</time>
      </trkpt>
      <trkpt lat="46.884670844301581" lon="12.160423547029495">
        <ele>1652.6400000000001</ele>
        <time>2014-03-07T14:58:31Z</time>
      </trkpt>
      <trkpt lat="46.884752316400409" lon="12.160152979195118">
        <ele>1653.1199999999999</ele>
        <time>2014-03-07T14:58:50Z</time>
      </trkpt>
      <trkpt lat="46.884784083813429" lon="12.15997813269496">
        <ele>1652.6400000000001</ele>
        <time>2014-03-07T14:59:03Z</time>
      </trkpt>
      <trkpt lat="46.884775534272194" lon="12.159914681687951">
        <ele>1652.1600000000001</ele>
        <time>2014-03-07T14:59:07Z</time>
      </trkpt>
      <trkpt lat="46.884695151820779" lon="12.159719886258245">
        <ele>1652.6400000000001</ele>
        <time>2014-03-07T14:59:22Z</time>
      </trkpt>
      <trkpt lat="46.884679226204753" lon="12.159723155200481">
        <ele>1652.6400000000001</ele>
        <time>2014-03-07T14:59:30Z</time>
      </trkpt>
      <trkpt lat="46.884674532338977" lon="12.15970010496676">
        <ele>1653.1199999999999</ele>
        <time>2014-03-07T14:59:32Z</time>
      </trkpt>
      <trkpt lat="46.884555844590068" lon="12.159506902098656">
        <ele>1653.1199999999999</ele>
        <time>2014-03-07T14:59:50Z</time>
      </trkpt>
      <trkpt lat="46.884413352236152" lon="12.159403469413519">
        <ele>1652.6400000000001</ele>
        <time>2014-03-07T15:00:05Z</time>
      </trkpt>
      <trkpt lat="46.884332299232483" lon="12.159403804689646">
        <ele>1653.1199999999999</ele>
        <time>2014-03-07T15:00:13Z</time>
      </trkpt>
      <trkpt lat="46.884199948981404" lon="12.159525761380792">
        <ele>1653.1199999999999</ele>
        <time>2014-03-07T15:00:30Z</time>
      </trkpt>
      <trkpt lat="46.884179245680571" lon="12.159543950110674">
        <ele>1652.6400000000001</ele>
        <time>2014-03-07T15:00:48Z</time>
      </trkpt>
      <trkpt lat="46.884168600663543" lon="12.159527773037553">
        <ele>1653.1199999999999</ele>
        <time>2014-03-07T15:00:58Z</time>
      </trkpt>
      <trkpt lat="46.884157871827483" lon="12.159543028101325">
        <ele>1653.1199999999999</ele>
        <time>2014-03-07T15:01:01Z</time>
      </trkpt>
      <trkpt lat="46.884009428322315" lon="12.15944604948163">
        <ele>1653.1199999999999</ele>
        <time>2014-03-07T15:01:16Z</time>
      </trkpt>
      <trkpt lat="46.883893087506294" lon="12.159314285963774">
        <ele>1652.6400000000001</ele>
        <time>2014-03-07T15:01:32Z</time>
      </trkpt>
      <trkpt lat="46.883842376992106" lon="12.159276064485312">
        <ele>1654.0899999999999</ele>
        <time>2014-03-07T15:01:40Z</time>
      </trkpt>
      <trkpt lat="46.883844556286931" lon="12.159171793609858">
        <ele>1653.5999999999999</ele>
        <time>2014-03-07T15:01:47Z</time>
      </trkpt>
      <trkpt lat="46.883914126083255" lon="12.158915475010872">
        <ele>1653.5999999999999</ele>
        <time>2014-03-07T15:02:04Z</time>
      </trkpt>
      <trkpt lat="46.883912282064557" lon="12.158708861097693">
        <ele>1652.6400000000001</ele>
        <time>2014-03-07T15:02:17Z</time>
      </trkpt>
      <trkpt lat="46.883934661746025" lon="12.158578606322408">
        <ele>1653.1199999999999</ele>
        <time>2014-03-07T15:02:25Z</time>
      </trkpt>
      <trkpt lat="46.883906498551369" lon="12.158367047086358">
        <ele>1652.6400000000001</ele>
        <time>2014-03-07T15:02:37Z</time>
      </trkpt>
      <trkpt lat="46.883863499388099" lon="12.158135706558824">
        <ele>1652.1600000000001</ele>
        <time>2014-03-07T15:02:51Z</time>
      </trkpt>
      <trkpt lat="46.883820248767734" lon="12.157887769863009">
        <ele>1651.6800000000001</ele>
        <time>2014-03-07T15:03:06Z</time>
      </trkpt>
      <trkpt lat="46.883806670084596" lon="12.15769967995584">
        <ele>1651.6800000000001</ele>
        <time>2014-03-07T15:03:17Z</time>
      </trkpt>
      <trkpt lat="46.88394321128726" lon="12.157393656671047">
        <ele>1651.2</ele>
        <time>2014-03-07T15:03:38Z</time>
      </trkpt>
      <trkpt lat="46.883946564048529" lon="12.157389465719461">
        <ele>1651.6800000000001</ele>
        <time>2014-03-07T15:03:39Z</time>
      </trkpt>
      <trkpt lat="46.883959053084254" lon="12.15736742131412">
        <ele>1651.6800000000001</ele>
        <time>2014-03-07T15:03:41Z</time>
      </trkpt>
      <trkpt lat="46.88401504419744" lon="12.157256444916129">
        <ele>1652.1600000000001</ele>
        <time>2014-03-07T15:03:50Z</time>
      </trkpt>
      <trkpt lat="46.884025270119309" lon="12.157207075506449">
        <ele>1651.6800000000001</ele>
        <time>2014-03-07T15:03:53Z</time>
      </trkpt>
      <trkpt lat="46.884107748046517" lon="12.156964000314474">
        <ele>1651.6800000000001</ele>
        <time>2014-03-07T15:04:08Z</time>
      </trkpt>
      <trkpt lat="46.884111268445849" lon="12.156687565147877">
        <ele>1651.6800000000001</ele>
        <time>2014-03-07T15:04:25Z</time>
      </trkpt>
      <trkpt lat="46.884124176576734" lon="12.15642437338829">
        <ele>1650.72</ele>
        <time>2014-03-07T15:04:39Z</time>
      </trkpt>
      <trkpt lat="46.884127361699939" lon="12.15614190325141">
        <ele>1650.24</ele>
        <time>2014-03-07T15:04:56Z</time>
      </trkpt>
      <trkpt lat="46.884123338386416" lon="12.155918357893825">
        <ele>1650.24</ele>
        <time>2014-03-07T15:05:10Z</time>
      </trkpt>
      <trkpt lat="46.884113112464547" lon="12.155730100348592">
        <ele>1649.28</ele>
        <time>2014-03-07T15:05:20Z</time>
      </trkpt>
      <trkpt lat="46.884103640913963" lon="12.155604874715209">
        <ele>1648.8</ele>
        <time>2014-03-07T15:05:27Z</time>
      </trkpt>
      <trkpt lat="46.884048068895936" lon="12.155295498669147">
        <ele>1648.8</ele>
        <time>2014-03-07T15:05:46Z</time>
      </trkpt>
      <trkpt lat="46.883994759991765" lon="12.155049238353968">
        <ele>1647.3599999999999</ele>
        <time>2014-03-07T15:06:03Z</time>
      </trkpt>
      <trkpt lat="46.883973805233836" lon="12.154983188956976">
        <ele>1647.8399999999999</ele>
        <time>2014-03-07T15:06:23Z</time>
      </trkpt>
      <trkpt lat="46.883939523249865" lon="12.154638944193721">
        <ele>1647.3599999999999</ele>
        <time>2014-03-07T15:06:41Z</time>
      </trkpt>
      <trkpt lat="46.883934494107962" lon="12.154615810140967">
        <ele>1645.9100000000001</ele>
        <time>2014-03-07T15:06:44Z</time>
      </trkpt>
      <trkpt lat="46.883926363661885" lon="12.154465019702911">
        <ele>1645.9100000000001</ele>
        <time>2014-03-07T15:06:52Z</time>
      </trkpt>
      <trkpt lat="46.883889567106962" lon="12.154179532080889">
        <ele>1644.95</ele>
        <time>2014-03-07T15:07:08Z</time>
      </trkpt>
      <trkpt lat="46.883857129141688" lon="12.153872000053525">
        <ele>1643.03</ele>
        <time>2014-03-07T15:07:26Z</time>
      </trkpt>
      <trkpt lat="46.883816057816148" lon="12.153558013960719">
        <ele>1642.55</ele>
        <time>2014-03-07T15:07:44Z</time>
      </trkpt>
      <trkpt lat="46.883755875751376" lon="12.153229778632522">
        <ele>1641.5899999999999</ele>
        <time>2014-03-07T15:08:02Z</time>
      </trkpt>
      <trkpt lat="46.883739111945033" lon="12.152993157505989">
        <ele>1640.1500000000001</ele>
        <time>2014-03-07T15:08:15Z</time>
      </trkpt>
      <trkpt lat="46.883768113330007" lon="12.152930879965425">
        <ele>1640.1500000000001</ele>
        <time>2014-03-07T15:08:19Z</time>
      </trkpt>
      <trkpt lat="46.883857296779752" lon="12.152940770611167">
        <ele>1639.6700000000001</ele>
        <time>2014-03-07T15:08:27Z</time>
      </trkpt>
      <trkpt lat="46.883923010900617" lon="12.152998186647892">
        <ele>1638.7</ele>
        <time>2014-03-07T15:08:33Z</time>
      </trkpt>
      <trkpt lat="46.884107328951359" lon="12.153012100607157">
        <ele>1638.7</ele>
        <time>2014-03-07T15:08:49Z</time>
      </trkpt>
      <trkpt lat="46.884285528212786" lon="12.152804983779788">
        <ele>1638.7</ele>
        <time>2014-03-07T15:09:07Z</time>
      </trkpt>
      <trkpt lat="46.88435803167522" lon="12.152571296319366">
        <ele>1637.26</ele>
        <time>2014-03-07T15:09:23Z</time>
      </trkpt>
      <trkpt lat="46.88443623483181" lon="12.152362670749426">
        <ele>1636.3</ele>
        <time>2014-03-07T15:09:37Z</time>
      </trkpt>
      <trkpt lat="46.884476384148002" lon="12.152336854487658">
        <ele>1635.8199999999999</ele>
        <time>2014-03-07T15:09:50Z</time>
      </trkpt>
      <trkpt lat="46.884476551786065" lon="12.15231791138649">
        <ele>1635.8199999999999</ele>
        <time>2014-03-07T15:09:53Z</time>
      </trkpt>
      <trkpt lat="46.884442940354347" lon="12.152219591662288">
        <ele>1636.3</ele>
        <time>2014-03-07T15:10:04Z</time>
      </trkpt>
      <trkpt lat="46.884433049708605" lon="12.152239708229899">
        <ele>1636.3</ele>
        <time>2014-03-07T15:10:06Z</time>
      </trkpt>
      <trkpt lat="46.884418716654181" lon="12.15230081230402">
        <ele>1636.78</ele>
        <time>2014-03-07T15:10:20Z</time>
      </trkpt>
      <trkpt lat="46.884413603693247" lon="12.152286898344755">
        <ele>1635.3399999999999</ele>
        <time>2014-03-07T15:10:29Z</time>
      </trkpt>
      <trkpt lat="46.884387116879225" lon="12.152286898344755">
        <ele>1635.8199999999999</ele>
        <time>2014-03-07T15:10:56Z</time>
      </trkpt>
      <trkpt lat="46.884391224011779" lon="12.152283797040582">
        <ele>1635.3399999999999</ele>
        <time>2014-03-07T15:11:26Z</time>
      </trkpt>
      <trkpt lat="46.884441934525967" lon="12.152207102626562">
        <ele>1634.8599999999999</ele>
        <time>2014-03-07T15:11:50Z</time>
      </trkpt>
    </trkseg>
  </trk>

</gpx>